[[{"header":{"parameterUnit":"m.s-1","parameterCategory":1,"la1":30.6,"la2":29.2853,"lo1":-89.7004,"lo2":-87.6739,"dy":0.0162,"dx":0.0183,"nx":112,"ny":82,"refTime":"2023-11-06T06:00:00:Z","depth":0,"parameterNumber":2,"parameterNumberName":"U-component_of_WINDS"},"data":[0.0,0.0,0.0,0.0,0.0,0.0,0.0,0.0,0.0,0.0,0.0,0.0,0.0,0.0,0.0,0.0,0.0,0.0,0.0,0.0,0.0,0.0,0.0,0.0,0.0,0.0,0.0,0.0,0.0,0.0,0.0,0.0,0.0,0.0,0.0,0.0,0.0,0.0,0.0,0.0,0.0,0.0,0.0,0.0,0.0,0.0,0.0,0.0,0.0,0.0,0.0,0.0,0.0,0.0,0.0,0.0,0.0,0.0,0.0,0.0,0.0,0.0,0.0,0.0,0.0,0.0,0.0,0.0,0.0,0.0,0.0,0.0,0.0,0.0,0.0,0.0,0.0,0.0,0.0,0.0,0.0,0.0,0.0,0.0,0.0,0.0,0.0,0.0,0.0,0.0,-4.2495,-4.4205,-4.4416,-4.4471,-4.4557,-4.3077,-4.22,-4.2325,0.0,0.0,0.0,0.0,0.0,0.0,0.0,0.0,0.0,0.0,0.0,0.0,0.0,0.0,0.0,0.0,0.0,0.0,0.0,0.0,0.0,0.0,0.0,0.0,0.0,0.0,0.0,0.0,0.0,0.0,0.0,0.0,0.0,0.0,0.0,0.0,0.0,0.0,0.0,0.0,0.0,0.0,0.0,0.0,0.0,0.0,0.0,0.0,0.0,0.0,0.0,0.0,0.0,0.0,0.0,0.0,0.0,0.0,0.0,0.0,0.0,0.0,0.0,0.0,0.0,0.0,0.0,0.0,0.0,0.0,0.0,0.0,0.0,0.0,0.0,0.0,0.0,0.0,0.0,0.0,0.0,0.0,0.0,0.0,0.0,0.0,0.0,0.0,0.0,0.0,0.0,0.0,0.0,0.0,0.0,0.0,0.0,0.0,0.0,0.0,0.0,0.0,0.0,0.0,-4.2336,-4.4109,-4.4173,-4.414,-4.434,-4.2819,-4.1919,-4.2051,0.0,0.0,0.0,0.0,0.0,0.0,0.0,0.0,0.0,0.0,0.0,0.0,0.0,0.0,0.0,0.0,0.0,0.0,0.0,0.0,0.0,0.0,0.0,0.0,0.0,0.0,0.0,0.0,0.0,0.0,0.0,0.0,0.0,0.0,0.0,0.0,0.0,0.0,0.0,0.0,0.0,0.0,0.0,0.0,0.0,0.0,0.0,0.0,0.0,0.0,0.0,0.0,0.0,0.0,0.0,0.0,0.0,0.0,0.0,0.0,0.0,0.0,0.0,0.0,0.0,0.0,0.0,0.0,0.0,0.0,0.0,0.0,0.0,0.0,0.0,0.0,0.0,0.0,0.0,0.0,0.0,0.0,0.0,0.0,0.0,0.0,0.0,0.0,0.0,0.0,0.0,0.0,0.0,0.0,0.0,0.0,0.0,0.0,0.0,0.0,0.0,0.0,0.0,-4.2118,-4.2735,-4.4001,-4.4051,-4.4036,-4.4131,-4.2623,-4.1773,-4.1991,-4.0539,0.0,0.0,0.0,0.0,0.0,0.0,0.0,0.0,0.0,0.0,0.0,0.0,0.0,0.0,0.0,0.0,0.0,0.0,0.0,0.0,0.0,0.0,0.0,0.0,0.0,0.0,0.0,0.0,0.0,0.0,0.0,0.0,0.0,0.0,0.0,0.0,0.0,0.0,0.0,0.0,0.0,0.0,0.0,0.0,0.0,0.0,0.0,0.0,0.0,0.0,0.0,0.0,0.0,0.0,0.0,0.0,0.0,0.0,0.0,0.0,0.0,0.0,0.0,0.0,0.0,0.0,0.0,0.0,0.0,0.0,0.0,0.0,0.0,0.0,0.0,0.0,0.0,0.0,0.0,0.0,0.0,0.0,0.0,0.0,0.0,0.0,0.0,0.0,0.0,0.0,0.0,0.0,0.0,0.0,0.0,0.0,0.0,0.0,0.0,0.0,0.0,0.0,-4.2281,-4.3098,-4.3912,-4.4005,-4.4005,-4.4005,-4.2519,-4.1706,-4.1938,-4.0227,0.0,0.0,0.0,0.0,0.0,0.0,0.0,0.0,0.0,0.0,0.0,0.0,0.0,0.0,0.0,0.0,0.0,0.0,0.0,0.0,0.0,0.0,0.0,0.0,0.0,0.0,0.0,0.0,0.0,0.0,0.0,0.0,0.0,0.0,0.0,0.0,0.0,0.0,0.0,0.0,0.0,0.0,0.0,0.0,0.0,0.0,0.0,0.0,0.0,0.0,0.0,0.0,0.0,0.0,0.0,0.0,0.0,0.0,0.0,0.0,0.0,0.0,0.0,0.0,0.0,0.0,0.0,0.0,0.0,0.0,0.0,0.0,0.0,0.0,0.0,0.0,0.0,0.0,0.0,0.0,0.0,0.0,0.0,0.0,0.0,0.0,0.0,0.0,0.0,0.0,0.0,0.0,0.0,0.0,0.0,0.0,0.0,0.0,0.0,0.0,0.0,0.0,-4.2251,-4.3052,-4.3912,-4.4005,-4.4005,-4.4005,-4.2519,-4.1663,-4.1801,-3.967,0.0,0.0,0.0,0.0,0.0,0.0,0.0,0.0,0.0,0.0,0.0,0.0,0.0,0.0,0.0,0.0,0.0,0.0,0.0,0.0,0.0,0.0,0.0,0.0,0.0,0.0,0.0,0.0,0.0,0.0,0.0,0.0,0.0,0.0,0.0,0.0,0.0,0.0,0.0,0.0,0.0,0.0,0.0,0.0,0.0,0.0,0.0,0.0,0.0,0.0,0.0,0.0,0.0,0.0,0.0,0.0,0.0,0.0,0.0,0.0,0.0,0.0,0.0,0.0,0.0,0.0,0.0,0.0,0.0,0.0,0.0,0.0,0.0,0.0,0.0,0.0,0.0,0.0,0.0,0.0,0.0,0.0,0.0,0.0,0.0,0.0,0.0,0.0,0.0,0.0,0.0,0.0,0.0,0.0,0.0,0.0,0.0,0.0,0.0,0.0,0.0,0.0,-4.1585,-4.2205,0.0,-4.4005,-4.3801,-4.328,-4.2082,-4.1275,-4.1059,0.0,0.0,0.0,0.0,0.0,0.0,0.0,0.0,0.0,0.0,0.0,0.0,0.0,0.0,0.0,0.0,0.0,0.0,0.0,0.0,0.0,0.0,0.0,0.0,0.0,0.0,0.0,0.0,0.0,0.0,0.0,0.0,0.0,0.0,0.0,0.0,0.0,0.0,0.0,0.0,0.0,0.0,0.0,0.0,0.0,0.0,0.0,0.0,0.0,0.0,0.0,0.0,0.0,0.0,0.0,0.0,0.0,0.0,0.0,0.0,0.0,0.0,0.0,0.0,0.0,0.0,0.0,0.0,0.0,0.0,0.0,0.0,0.0,0.0,0.0,0.0,0.0,0.0,0.0,0.0,0.0,0.0,0.0,0.0,0.0,0.0,0.0,0.0,0.0,0.0,0.0,0.0,0.0,0.0,0.0,0.0,0.0,0.0,0.0,0.0,0.0,0.0,-4.0705,-4.0738,-4.1331,0.0,-4.3513,-4.333,-4.2617,-4.1422,-4.0462,-3.9931,0.0,0.0,0.0,0.0,0.0,0.0,0.0,0.0,0.0,0.0,0.0,0.0,0.0,0.0,0.0,0.0,0.0,0.0,0.0,0.0,0.0,0.0,0.0,0.0,0.0,0.0,0.0,0.0,0.0,0.0,0.0,0.0,0.0,0.0,0.0,0.0,0.0,0.0,0.0,0.0,0.0,0.0,0.0,0.0,0.0,0.0,0.0,0.0,0.0,0.0,0.0,0.0,0.0,0.0,0.0,0.0,0.0,0.0,0.0,0.0,0.0,0.0,0.0,0.0,0.0,0.0,0.0,0.0,0.0,0.0,0.0,0.0,0.0,0.0,0.0,0.0,0.0,0.0,0.0,0.0,0.0,0.0,0.0,0.0,0.0,0.0,0.0,0.0,0.0,0.0,0.0,0.0,0.0,0.0,0.0,0.0,0.0,0.0,0.0,0.0,0.0,0.0,-3.9402,-3.9788,-4.049,-4.1846,-4.2468,-4.254,-4.2009,-4.0495,-3.9234,0.0,0.0,0.0,0.0,0.0,0.0,0.0,0.0,0.0,0.0,0.0,0.0,0.0,0.0,0.0,0.0,0.0,0.0,0.0,0.0,0.0,0.0,0.0,0.0,0.0,0.0,0.0,0.0,0.0,0.0,0.0,0.0,0.0,0.0,0.0,0.0,0.0,0.0,0.0,0.0,0.0,0.0,0.0,0.0,0.0,0.0,0.0,0.0,0.0,0.0,0.0,0.0,0.0,0.0,0.0,0.0,0.0,0.0,0.0,0.0,0.0,0.0,0.0,0.0,0.0,0.0,0.0,0.0,0.0,0.0,0.0,0.0,0.0,0.0,0.0,0.0,0.0,0.0,0.0,0.0,0.0,0.0,0.0,0.0,0.0,0.0,0.0,0.0,0.0,0.0,0.0,0.0,0.0,0.0,0.0,0.0,0.0,0.0,0.0,0.0,0.0,0.0,0.0,-3.9296,-3.9085,-3.9502,-4.1323,-4.1178,-4.0673,-3.995,-3.8743,-3.7608,-3.656,0.0,0.0,0.0,0.0,0.0,0.0,0.0,0.0,0.0,0.0,0.0,0.0,0.0,0.0,0.0,0.0,0.0,0.0,0.0,0.0,0.0,0.0,0.0,0.0,0.0,0.0,0.0,0.0,0.0,0.0,0.0,0.0,0.0,0.0,0.0,0.0,0.0,0.0,0.0,0.0,0.0,0.0,0.0,0.0,0.0,0.0,0.0,0.0,0.0,0.0,0.0,0.0,0.0,0.0,0.0,0.0,0.0,0.0,0.0,0.0,0.0,0.0,0.0,0.0,0.0,0.0,0.0,0.0,0.0,0.0,0.0,0.0,0.0,0.0,0.0,0.0,0.0,0.0,0.0,0.0,0.0,0.0,0.0,0.0,0.0,0.0,0.0,0.0,0.0,0.0,0.0,0.0,0.0,0.0,0.0,0.0,0.0,0.0,0.0,0.0,0.0,0.0,-3.8054,-3.78,-3.8053,-3.9449,-3.9126,-3.8519,-3.7827,-3.6879,-3.5901,-3.4887,0.0,0.0,0.0,0.0,0.0,0.0,0.0,0.0,0.0,0.0,0.0,0.0,0.0,0.0,0.0,0.0,0.0,0.0,0.0,0.0,0.0,0.0,0.0,0.0,0.0,0.0,0.0,0.0,0.0,0.0,0.0,0.0,0.0,0.0,0.0,0.0,0.0,0.0,0.0,0.0,0.0,0.0,0.0,0.0,0.0,0.0,0.0,0.0,0.0,0.0,0.0,0.0,0.0,0.0,0.0,0.0,0.0,0.0,0.0,0.0,0.0,0.0,0.0,0.0,0.0,0.0,0.0,0.0,0.0,0.0,0.0,0.0,0.0,0.0,0.0,0.0,0.0,0.0,0.0,0.0,0.0,0.0,0.0,0.0,0.0,0.0,0.0,0.0,0.0,0.0,0.0,0.0,0.0,0.0,0.0,0.0,0.0,0.0,0.0,0.0,0.0,0.0,-3.6078,-3.6092,-3.6277,-3.6775,-3.6599,-3.6245,-3.5779,-3.5005,-3.4214,-3.3407,0.0,0.0,0.0,0.0,0.0,0.0,0.0,0.0,0.0,0.0,0.0,0.0,0.0,0.0,0.0,0.0,0.0,0.0,0.0,0.0,0.0,0.0,0.0,0.0,0.0,0.0,0.0,0.0,0.0,0.0,0.0,0.0,0.0,0.0,0.0,0.0,0.0,0.0,0.0,0.0,0.0,0.0,0.0,0.0,0.0,0.0,0.0,0.0,0.0,0.0,0.0,0.0,0.0,0.0,0.0,0.0,0.0,0.0,0.0,0.0,-3.4671,0.0,0.0,0.0,0.0,0.0,0.0,0.0,0.0,0.0,0.0,0.0,0.0,0.0,0.0,0.0,0.0,0.0,0.0,0.0,0.0,0.0,0.0,0.0,0.0,0.0,0.0,0.0,0.0,0.0,0.0,0.0,0.0,0.0,0.0,0.0,0.0,0.0,0.0,0.0,0.0,0.0,-3.4794,-3.4601,-3.4685,-3.5428,-3.5002,-3.4609,-3.4495,-3.3748,-3.3024,-3.2441,-3.244,0.0,0.0,0.0,0.0,0.0,0.0,0.0,0.0,0.0,0.0,0.0,0.0,0.0,0.0,0.0,0.0,0.0,0.0,0.0,0.0,0.0,0.0,0.0,0.0,0.0,0.0,0.0,0.0,0.0,0.0,0.0,0.0,0.0,0.0,0.0,0.0,0.0,0.0,0.0,0.0,0.0,0.0,0.0,0.0,0.0,0.0,0.0,0.0,0.0,0.0,0.0,0.0,0.0,0.0,0.0,0.0,0.0,0.0,0.0,0.0,-3.4624,0.0,0.0,0.0,0.0,0.0,0.0,0.0,0.0,0.0,0.0,0.0,0.0,0.0,0.0,0.0,0.0,0.0,0.0,0.0,0.0,0.0,0.0,0.0,0.0,0.0,0.0,0.0,0.0,0.0,0.0,0.0,0.0,0.0,0.0,0.0,0.0,0.0,0.0,0.0,0.0,-3.3857,-3.3531,-3.3442,-3.3836,-3.3262,-3.2855,-3.2855,-3.2515,-3.2159,-3.1873,-3.202,0.0,0.0,0.0,0.0,0.0,0.0,0.0,0.0,0.0,0.0,0.0,0.0,0.0,0.0,0.0,0.0,0.0,0.0,0.0,0.0,0.0,0.0,0.0,0.0,0.0,0.0,0.0,0.0,0.0,0.0,0.0,0.0,0.0,0.0,0.0,0.0,0.0,0.0,0.0,0.0,0.0,0.0,0.0,0.0,0.0,0.0,0.0,0.0,0.0,0.0,0.0,0.0,0.0,-3.4188,-3.414,-3.4252,-3.4124,-3.3905,-3.3628,-3.4024,-3.3899,-3.3427,-3.4455,0.0,0.0,0.0,0.0,0.0,0.0,0.0,0.0,0.0,0.0,0.0,0.0,0.0,0.0,0.0,0.0,0.0,0.0,0.0,0.0,0.0,0.0,-3.0985,-3.1044,-3.014,-2.9552,-3.0645,0.0,0.0,0.0,0.0,0.0,0.0,0.0,0.0,0.0,0.0,0.0,-3.2923,-3.2603,-3.2366,-3.2366,-3.1856,-3.1498,-3.1498,-3.1557,-3.1579,-3.1579,-3.1688,-3.1764,0.0,0.0,0.0,0.0,0.0,0.0,0.0,0.0,0.0,0.0,0.0,0.0,0.0,0.0,0.0,0.0,0.0,0.0,0.0,0.0,0.0,0.0,0.0,0.0,0.0,0.0,0.0,0.0,0.0,0.0,0.0,0.0,-3.3119,-3.3198,0.0,0.0,0.0,0.0,0.0,0.0,0.0,0.0,0.0,0.0,0.0,0.0,0.0,-3.5052,-3.492,-3.5096,-3.5142,-3.5142,-3.4657,-3.4725,-3.5267,-3.4694,-3.4711,-3.5147,-3.4025,0.0,-3.3235,-3.3505,0.0,0.0,0.0,0.0,0.0,0.0,0.0,0.0,0.0,0.0,0.0,0.0,0.0,0.0,0.0,0.0,0.0,0.0,0.0,0.0,0.0,0.0,-3.0489,-3.0514,-2.9927,-2.9438,-2.9614,-3.0196,-3.0625,-3.026,-3.0526,0.0,0.0,0.0,0.0,0.0,0.0,0.0,-3.1547,-3.1506,-3.1468,-3.1468,-3.1494,-3.1498,-3.1498,-3.1517,-3.15,-3.15,-3.1536,-3.1555,-3.1538,-3.1555,0.0,0.0,0.0,0.0,0.0,0.0,0.0,0.0,0.0,0.0,0.0,0.0,0.0,0.0,0.0,0.0,0.0,0.0,0.0,0.0,0.0,0.0,0.0,0.0,0.0,0.0,0.0,0.0,0.0,-3.2492,-3.2574,-3.2641,-3.2868,-3.3029,0.0,0.0,0.0,0.0,0.0,0.0,0.0,0.0,0.0,-3.3435,-3.4427,-3.4758,-3.4376,-3.4461,-3.45,-3.4515,-3.4267,-3.4316,-3.4591,-3.4301,-3.4331,-3.4576,-3.3951,-3.3654,-3.3584,-3.3365,-3.3339,-3.3495,0.0,0.0,0.0,0.0,-3.4161,-3.3912,-3.3684,-3.3556,-3.3505,-3.3582,0.0,0.0,0.0,0.0,0.0,0.0,0.0,-3.2296,0.0,0.0,-3.0715,-3.0464,-3.0171,-2.9848,-2.9479,-2.9927,-3.0247,0.0,-2.994,-3.0381,-3.0645,0.0,0.0,0.0,0.0,-3.1295,-3.1295,-3.1274,-3.1252,-3.1252,-3.1308,-3.1327,-3.1327,-3.1385,-3.1387,-3.1387,-3.1462,-3.1462,-3.1387,-3.1462,-3.1481,0.0,0.0,0.0,0.0,0.0,0.0,0.0,0.0,0.0,0.0,0.0,0.0,0.0,0.0,0.0,0.0,0.0,0.0,0.0,0.0,0.0,0.0,0.0,0.0,0.0,0.0,0.0,0.0,-3.2247,-3.2191,-3.2342,-3.2191,-3.2163,0.0,0.0,0.0,0.0,0.0,0.0,-3.2268,-3.3262,-3.3644,-3.3226,-3.4278,-3.4646,-3.4197,-3.4364,-3.4455,-3.4455,-3.4455,-3.4531,-3.4698,-3.4531,-3.4531,-3.4683,-3.4334,-3.4152,-3.4046,-3.342,-3.3026,-3.2916,-3.3351,-3.3391,-3.3224,-3.3339,-3.3313,-3.3145,-3.2841,-3.2668,-3.2614,-3.2722,-3.2776,-3.2868,-3.3261,0.0,0.0,0.0,0.0,-3.1939,-3.1469,-3.1342,-3.1239,-3.0894,-3.0543,-3.016,-2.9654,-2.9648,-2.9588,0.0,-2.9355,-2.981,-3.0149,0.0,0.0,0.0,0.0,-3.1274,-3.1274,-3.1232,-3.119,-3.119,-3.119,-3.119,-3.119,-3.1252,-3.1218,-3.1103,-3.1291,-3.1271,-3.0925,-3.1137,-3.1157,-3.0948,0.0,0.0,0.0,0.0,0.0,0.0,0.0,0.0,0.0,0.0,0.0,0.0,0.0,0.0,0.0,0.0,0.0,0.0,0.0,0.0,0.0,0.0,0.0,0.0,0.0,0.0,0.0,0.0,0.0,-3.2191,-3.1968,0.0,0.0,0.0,0.0,-3.2025,-3.2602,-3.2967,-3.2938,-3.3559,-3.3879,-3.3849,-3.4592,-3.4988,-3.4957,-3.5595,-3.5899,-3.5899,-3.5899,-3.6233,-3.6825,-3.6187,-3.6248,-3.678,-3.5519,-3.4849,-3.4573,-3.3484,-3.2996,-3.2977,-3.2905,-3.2547,-3.215,-3.2641,-3.252,-3.2066,-3.2066,-3.2053,-3.2038,-3.2053,-3.2398,-3.2815,-3.2841,-3.3166,0.0,0.0,-3.2748,-3.2613,-3.2099,-3.1946,-3.1946,-3.1918,-3.0961,-3.0019,-2.9989,-2.9329,-2.87,0.0,-2.8826,-2.9143,-2.9166,0.0,-3.0011,-3.0477,-3.0918,-3.121,-3.121,-3.121,-3.119,-3.119,-3.119,-3.119,-3.119,-3.121,-3.1015,-3.058,-3.0958,-3.0818,-2.9903,-3.0309,-3.0377,-2.9967,-2.9946,0.0,0.0,0.0,0.0,0.0,0.0,0.0,0.0,0.0,0.0,0.0,0.0,0.0,0.0,0.0,0.0,0.0,0.0,0.0,0.0,0.0,0.0,0.0,0.0,0.0,0.0,0.0,0.0,-3.2053,-3.2246,0.0,-3.2676,-3.294,-3.3109,-3.3109,-3.3246,-3.3322,-3.3322,-3.3938,-3.4299,-3.4299,-3.4961,-3.5337,-3.5337,-3.5563,-3.5683,-3.5683,-3.5683,-3.5804,-3.6029,-3.5789,-3.5804,-3.5999,-3.5533,-3.5259,-3.5151,-3.4299,-3.3713,-3.3337,-3.3346,-3.3212,-3.3005,-3.3182,-3.3123,-3.2915,-3.2567,-3.2387,-3.2239,-3.1819,-3.1796,-3.1951,-3.1951,-3.2203,-3.2398,-3.2219,-3.2219,-3.2247,-3.2053,-3.1996,-3.1996,-3.1996,-3.1632,-3.1177,-3.0737,-3.0075,-2.9399,-2.8885,-2.8812,-2.8865,-2.8951,-2.9097,-2.9416,-2.9968,-3.0182,-3.0305,-3.0305,-3.0305,-3.041,-3.072,-3.0472,-3.0535,-3.1151,-3.0918,-3.0679,-3.0518,-3.0658,-3.0456,-2.9832,-2.9968,-2.9989,-2.9843,-2.9556,-2.9695,0.0,0.0,0.0,0.0,0.0,0.0,0.0,0.0,0.0,0.0,0.0,0.0,0.0,0.0,0.0,0.0,0.0,0.0,0.0,0.0,0.0,0.0,0.0,0.0,0.0,0.0,-3.2158,-3.233,-3.2703,-3.3035,-3.3229,-3.3472,-3.3622,-3.3622,-3.3756,-3.3829,-3.3829,-3.4457,-3.4848,-3.4848,-3.5265,-3.5504,-3.5504,-3.5504,-3.5504,-3.5504,-3.5504,-3.5504,-3.5504,-3.5504,-3.5504,-3.5504,-3.5504,-3.5504,-3.5474,-3.5011,-3.4562,-3.4128,-3.3772,-3.3576,-3.3499,-3.3499,-3.3499,-3.3455,-3.3096,-3.2931,-3.2766,-3.2303,-3.2019,-3.1839,-3.1839,-3.1777,-3.1698,-3.1698,-3.1769,-3.1826,-3.1826,-3.1826,-3.1826,-3.1826,-3.1673,-3.1371,-3.0948,-3.0328,-2.9739,-2.9301,-2.8807,-2.8479,-2.859,-2.8716,-2.9051,-2.9623,-2.9689,-2.975,-2.9946,-2.9793,-2.9777,-3.0102,-2.9843,-2.9924,-3.0539,-3.0497,-3.0272,-2.9913,-3.023,-3.0059,-2.9227,-2.955,-2.9661,-2.9506,-2.9189,-2.9309,-2.9892,0.0,0.0,0.0,0.0,0.0,0.0,0.0,0.0,0.0,0.0,0.0,0.0,0.0,0.0,0.0,0.0,0.0,0.0,0.0,0.0,0.0,0.0,0.0,-3.197,-3.2414,-3.2763,-3.2984,-3.3307,-3.3576,-3.3713,-3.3636,-3.3559,-3.3559,-3.4174,-3.4533,-3.4533,-3.5145,-3.5504,-3.5504,-3.5504,-3.5504,-3.5504,-3.5504,-3.5504,-3.5504,-3.5504,-3.5504,-3.5504,-3.5504,-3.5504,-3.5504,-3.5504,-3.5504,-3.5504,-3.5504,-3.5504,-3.537,-3.4068,-3.3559,-3.3559,-3.3559,-3.3544,-3.3529,-3.3529,-3.3514,-3.3499,-3.3499,-3.3066,-3.2542,-3.2542,-3.2064,-3.157,-3.154,-3.1525,-3.1525,-3.1511,-3.1511,-3.1511,-3.1511,-3.0987,-3.0537,-3.0537,-3.0058,-2.9636,-2.9636,-2.877,-2.804,-2.8056,-2.842,-2.8904,-2.9483,-2.9445,0.0,-3.0145,-2.9717,-2.9361,-2.9406,-2.9384,-2.9384,-2.9429,-2.9935,-2.9827,-2.8779,-2.9673,-2.9563,-2.8054,-2.8989,-2.9355,-2.8881,-2.8881,-2.8818,-2.8709,0.0,0.0,0.0,0.0,0.0,0.0,0.0,0.0,0.0,0.0,0.0,0.0,0.0,0.0,0.0,0.0,0.0,0.0,0.0,0.0,0.0,0.0,-3.2243,-3.236,-3.2481,-3.2751,-3.3291,-3.386,-3.4234,-3.4296,-3.4683,-3.4951,-3.4951,-3.5115,-3.522,-3.522,-3.54,-3.5504,-3.5504,-3.5504,-3.5504,-3.5504,-3.5504,-3.5504,-3.5504,-3.5504,-3.5504,-3.5504,-3.5504,-3.5504,-3.5504,-3.5504,-3.5504,-3.5504,-3.5504,-3.5504,-3.5474,-3.51,-3.4951,-3.4951,-3.4951,-3.4637,-3.4234,-3.4234,-3.3903,-3.3499,-3.3499,-3.338,-3.323,-3.323,-3.3095,-3.2856,-3.2348,-3.2213,-3.2108,-3.163,-3.1511,-3.1511,-3.1511,-3.1361,-3.1227,-3.1227,-3.0717,-3.0253,-3.0253,-2.9675,-2.92,-2.9294,-2.9011,-2.8864,-2.9138,-2.8722,0.0,-2.8614,-2.8494,-2.8646,-2.9316,-2.9088,-2.9157,-2.9865,-2.9739,-2.9384,-2.8732,-2.8973,-2.8795,-2.8029,-2.8268,-2.8389,-2.8259,-2.8574,-2.8748,0.0,0.0,0.0,0.0,0.0,0.0,0.0,0.0,0.0,0.0,0.0,0.0,0.0,0.0,0.0,0.0,0.0,0.0,0.0,0.0,0.0,0.0,-3.2751,-3.3021,-3.3305,-3.3335,-3.3484,-3.3858,-3.4502,-3.4906,-3.4906,-3.5519,-3.5923,-3.5923,-3.6148,-3.6312,-3.6312,-3.6312,-3.6312,-3.6312,-3.6312,-3.6312,-3.6312,-3.6312,-3.6178,-3.5923,-3.5923,-3.5774,-3.5504,-3.5504,-3.5504,-3.5504,-3.5504,-3.5504,-3.5504,-3.5504,-3.5504,0.0,0.0,0.0,0.0,0.0,-3.525,-3.4906,-3.4906,-3.4651,-3.4337,-3.4337,-3.4143,-3.3903,-3.3903,-3.3709,-3.3425,-3.3036,-3.2931,-3.2766,-3.2079,-3.1914,-3.1854,-3.157,-3.1511,-3.1511,-3.1511,-3.1182,-3.0913,-3.0913,-3.0657,0.0,-3.0501,-2.9759,-2.926,-2.9567,-2.9082,-2.8657,-2.8629,-2.8414,-2.8343,-2.8622,-2.84,-2.8472,-2.9019,-2.9042,0.0,0.0,0.0,-2.8487,-2.822,-2.822,0.0,0.0,0.0,-2.8487,-2.8247,-2.8519,0.0,0.0,-2.888,-2.9065,0.0,0.0,0.0,0.0,0.0,0.0,0.0,0.0,0.0,0.0,0.0,0.0,0.0,0.0,0.0,0.0,-3.3169,-3.3813,-3.4487,-3.4592,-3.4592,-3.4623,-3.519,-3.5609,-3.5609,-3.6207,-3.6596,-3.6596,-3.7105,-3.7404,-3.7404,0.0,0.0,0.0,0.0,-3.7404,-3.7404,-3.7404,-3.7135,-3.6596,-3.6596,-3.6282,-3.5714,-3.5654,-3.5609,-3.5609,-3.5534,-3.5504,-3.5504,-3.5504,-3.5504,-3.5472,-3.5504,-3.5504,-3.5504,-3.5504,-3.5504,-3.5504,-3.5504,0.0,0.0,-3.5504,-3.51,-3.4623,-3.4623,-3.4188,-3.3709,-3.3619,-3.3604,-3.3455,-3.2796,-3.2617,-3.2452,-3.1765,-3.1615,-3.1585,-3.1525,-3.1511,-3.1511,-3.1511,-3.1511,-3.1511,-3.1511,-3.0507,-2.9885,-3.0406,-2.9997,-2.9595,-2.951,-2.9031,-2.8498,-2.7946,0.0,0.0,-2.778,-2.8195,-2.8238,-2.765,-2.8091,-2.8407,-2.8407,-2.8407,-2.8407,-2.8407,-2.8407,-2.814,-2.76,-2.76,-2.76,-2.7625,-2.8693,-2.8973,0.0,0.0,0.0,0.0,0.0,0.0,0.0,0.0,0.0,0.0,0.0,0.0,0.0,0.0,0.0,-3.3632,-3.3824,-3.4182,-3.4964,-3.5053,-3.5133,-3.5277,-3.5893,-3.6297,-3.6297,-3.6866,-3.724,-3.724,-3.7345,-3.7404,-3.7404,-3.7404,-3.7404,-3.7404,-3.7404,-3.7404,-3.7404,-3.7404,-3.7345,-3.724,0.0,0.0,-3.703,-3.6522,-3.6297,-3.6267,-3.5729,-3.5504,-3.5504,-3.5504,-3.5392,-3.5261,-3.5439,-3.5504,-3.5504,-3.5504,-3.5504,-3.5504,-3.5504,-3.5504,-3.5504,-3.5504,-3.5415,-3.531,-3.531,-3.522,0.0,-3.4474,-3.4324,-3.4159,-3.3469,-3.3305,-3.314,-3.2482,-3.2303,-3.2153,-3.1615,-3.1511,-3.1511,-3.1511,-3.1511,-3.1511,-3.1511,-3.0866,-3.0383,-3.0478,-3.0003,-2.9615,-2.9572,-2.9492,-2.9512,-2.975,-2.9287,-2.8966,-2.8966,-2.8578,-2.8125,-2.7625,-2.771,-2.776,-2.776,-2.776,-2.776,-2.776,-2.776,-2.771,-2.76,-2.76,-2.76,-2.7625,-2.7845,-2.7959,0.0,0.0,0.0,0.0,0.0,0.0,0.0,0.0,0.0,0.0,0.0,-3.2486,0.0,0.0,-3.3593,-3.395,-3.4242,-3.4599,-3.499,-3.5034,-3.5148,-3.5472,-3.6088,-3.6492,-3.6492,-3.7345,-3.7898,-3.7898,-3.8212,-3.8407,-3.8407,-3.8407,-3.8407,-3.8407,-3.8407,-3.8336,-3.8266,-3.8266,-3.8017,-3.7584,-3.7689,-3.7526,-3.708,-3.6988,-3.6675,-3.6179,-3.5952,-3.5591,-3.518,-3.518,-3.5148,-3.5082,-3.5148,-3.5261,-3.5359,-3.5472,-3.5504,-3.5504,-3.5504,-3.5504,-3.5504,-3.5504,-3.5504,-3.5504,-3.5504,-3.5504,-3.5429,-3.5085,-3.4996,-3.4846,-3.4158,-3.3978,-3.3829,-3.3155,-3.3006,-3.2826,-3.2138,-3.1989,-3.1899,-3.157,-3.1511,-3.1511,-3.1511,-3.1212,-3.0987,-3.0987,-3.0746,-3.0432,-3.0088,-3.0043,-3.0018,-2.9955,-2.9648,-2.9451,-2.9451,-2.8855,-2.8223,-2.764,-2.76,-2.76,-2.76,-2.76,-2.76,-2.76,-2.76,-2.76,-2.76,-2.76,-2.76,-2.76,-2.76,-2.765,0.0,0.0,0.0,0.0,0.0,0.0,0.0,0.0,-3.3071,-3.2939,-3.3013,-3.3101,-3.3101,-3.363,-3.4071,-3.4071,-3.4497,-3.4835,-3.4868,-3.4971,-3.516,-3.552,-3.6201,-3.6683,-3.6817,-3.7878,-3.8586,-3.8586,-3.9059,-3.9337,-3.9337,-3.9337,-3.9301,-3.9265,-3.9301,-3.9265,-3.9031,-3.9031,-3.8677,-3.8015,-3.8159,-3.7857,-3.7184,-3.7382,-3.704,-3.6261,-3.6181,-3.5674,-3.4902,-3.4868,-3.4868,-3.4868,-3.4868,-3.4949,-3.5129,-3.5326,-3.5407,-3.5439,-3.5439,-3.5472,-3.5504,-3.5439,-3.5439,-3.5439,-3.5392,-3.5407,-3.5439,-3.5392,-3.5439,-3.5385,-3.4784,-3.4666,-3.4548,-3.3844,-3.3679,-3.3469,-3.2677,-3.2512,-3.2288,-3.163,-3.1467,-3.1467,-3.1467,-3.1453,-3.1453,-3.1511,-3.1511,-3.1301,-3.0748,-3.0702,-3.0507,-3.0013,-2.9849,-2.9741,-2.9621,-2.9086,-2.8547,-2.8019,-2.7869,-2.7794,-2.7794,-2.766,-2.76,-2.76,-2.76,-2.76,-2.76,-2.76,-2.76,-2.76,-2.7735,-2.772,-3.2254,-3.2321,-3.2278,-3.2448,-3.2958,-3.3274,0.0,0.0,-3.3274,-3.2661,-3.3027,-3.3452,-3.3452,-3.3943,-3.438,-3.438,-3.4404,-3.4515,-3.4698,-3.5185,-3.5605,-3.5824,-3.662,-3.7312,-3.7857,-3.8764,-3.9305,-3.9305,-3.9184,-3.9141,-3.9141,-3.9141,-3.9068,-3.887,-3.9031,-3.9031,-3.8819,-3.8819,-3.8789,-3.8679,-3.8715,-3.8686,-3.8546,-3.8007,-3.7697,-3.7544,-3.6429,-3.5524,-3.4902,-3.4783,-3.4731,-3.4731,-3.4731,-3.4731,-3.4765,-3.4902,-3.5082,-3.5213,-3.5213,-3.5359,-3.5472,-3.5294,-3.5213,-3.518,-3.5001,-3.5082,-3.518,-3.5001,-3.5213,-3.5457,-3.5204,-3.524,-3.522,-3.4563,-3.4399,-3.4054,-3.2781,-3.2512,-3.2288,-3.163,-3.1409,-3.1322,-3.1322,-3.122,-3.122,-3.1467,-3.1511,-3.1481,-3.1406,-3.1391,-3.1361,-3.1286,-3.0761,-3.0178,-2.9651,-2.9532,-2.9472,-2.9382,-2.8801,-2.8487,-2.8487,-2.7929,-2.76,-2.76,-2.76,-2.76,-2.76,-2.76,-2.76,-2.76,-2.8203,-2.8184,-3.1943,-3.2741,-3.3415,0.0,-3.3283,-3.3949,-3.3688,-3.3819,-3.3935,-3.3674,-3.3833,-3.4008,-3.4008,-3.424,-3.4414,0.0,-3.4414,-3.4414,-3.4515,-3.5088,-3.5662,-3.6076,-3.6902,-3.7544,-3.7881,-3.8595,-3.9068,-3.9068,-3.898,-3.8943,-3.8943,-3.8943,-3.8907,-3.8782,-3.887,-3.8833,-3.8612,-3.8612,-3.8575,-3.8464,-3.8575,-3.8575,-3.8449,-3.8392,-3.812,-3.7585,-3.6225,-3.5439,-3.5176,-3.4709,-3.4515,-3.4515,-3.4515,-3.4515,-3.4563,-3.4802,-3.4935,-3.5034,-3.5034,-3.5082,-3.5148,-3.5034,-3.5034,-3.5001,-3.4935,-3.4968,-3.5001,-3.4935,-3.5001,-3.5115,-3.5034,-3.5082,-3.5073,-3.4792,-3.4468,-3.3934,-3.2983,-3.2464,-3.2035,-3.1382,-3.122,-3.1176,-3.1176,-3.1132,-3.1146,-3.1249,-3.1278,-3.1278,-3.1278,-3.1278,-3.1278,-3.1278,-3.1026,-3.0596,-2.9958,-2.9898,-2.9735,-2.9334,-2.9121,-2.8973,-2.8904,-2.869,-2.8568,-2.8474,-2.8474,-2.8474,-2.8474,-2.8568,-2.8595,-2.861,-2.8999,-2.9037,-3.2102,-3.2854,0.0,-3.2817,-3.3331,-3.4113,-3.4346,-3.4414,-3.4414,-3.4414,-3.4414,-3.4414,-3.4414,-3.4414,-3.4414,-3.4414,-3.4414,-3.4472,-3.4646,-3.5227,-3.5901,-3.6504,-3.7288,-3.7813,-3.7908,-3.8443,-3.8782,-3.8782,-3.876,-3.8723,-3.8723,-3.8723,-3.8686,-3.8634,-3.8686,-3.8612,-3.8404,-3.8404,-3.8329,-3.8202,-3.8366,-3.8329,-3.8202,-3.8501,-3.8238,-3.7448,-3.6372,-3.5726,-3.5363,-3.4864,-3.4574,-3.4414,-3.4414,-3.4414,-3.4448,-3.4668,-3.4802,-3.4835,-3.4835,-3.4868,-3.4902,-3.4868,-3.4835,-3.4835,-3.4769,-3.4802,-3.4835,-3.4769,-3.4835,-3.4902,-3.4835,-3.4868,-3.4857,-3.4681,-3.4316,-3.3773,-3.2901,-3.234,-3.181,-3.1235,-3.1043,-3.1014,-3.1014,-3.0984,-3.0955,-3.0955,-3.0955,-3.0984,-3.1087,-3.1117,-3.1117,-3.1117,-3.1117,-3.0896,-3.0424,-3.038,-3.0174,-2.9672,-2.9579,-2.9476,-2.9378,-2.9298,-2.9195,-2.9098,-2.9098,-2.9098,-2.9098,-2.9195,-2.925,-2.9319,-2.965,-2.9806,-3.3157,0.0,-3.2326,-3.3024,-3.3213,-3.3451,-3.423,-3.4414,-3.4414,-3.4414,-3.4414,-3.4414,-3.4414,-3.4414,-3.4414,-3.4414,-3.4414,-3.4632,-3.5276,-3.588,-3.6533,-3.7201,-3.781,-3.8173,0.0,-3.856,-3.8782,-3.8782,-3.8612,-3.8516,-3.8516,-3.8516,-3.8404,-3.824,-3.8404,-3.8404,-3.8202,-3.8202,-3.8202,-3.8202,-3.8202,-3.8202,-3.8202,-3.8202,-3.7883,-3.7302,-3.7259,-3.6533,-3.5392,-3.5378,-3.5,-3.4414,-3.4414,-3.4414,-3.4414,-3.4414,-3.4549,-3.4698,-3.4698,-3.4783,-3.4868,-3.4765,-3.4698,-3.4664,-3.4481,-3.4563,-3.4664,-3.4481,-3.4635,-3.4868,-3.4731,-3.4817,-3.474,-3.4186,-3.4009,-3.364,-3.2311,-3.2001,-3.181,-3.1235,-3.0955,-3.0791,-3.0791,-3.0702,-3.0612,-3.0612,-3.0612,-3.0732,-3.1043,-3.1117,-3.1117,-3.1117,-3.1117,-3.1102,-3.1058,-3.1058,-3.1073,-3.1058,-3.0439,-3.0057,-3.0057,-2.9451,-2.9098,-2.9098,-2.9098,-2.9098,-2.9098,-2.9098,-2.9167,-2.9319,-2.9958,-3.0352,-3.3707,0.0,-3.3017,-3.3811,-3.3589,-3.3402,-3.423,-3.4011,-3.3742,-3.4298,-3.4414,-3.4414,-3.4414,-3.4414,-3.4414,-3.4414,-3.4414,-3.4412,-3.4505,-3.5066,-3.5455,-3.5572,-3.6117,0.0,0.0,0.0,0.0,-3.8412,-3.8352,-3.8277,-3.8277,-3.8277,-3.8277,-3.8202,-3.8277,-3.8277,-3.8202,-3.8202,-3.8202,-3.8202,-3.8202,-3.8202,-3.8202,-3.8202,-3.8086,-3.7883,-3.7476,-3.7056,-3.6591,-3.5755,-3.5276,-3.5009,-3.4574,-3.4414,-3.4414,-3.4414,-3.4448,-3.4481,-3.4481,-3.4549,-3.4582,-3.4515,-3.4481,-3.4481,-3.4414,-3.4448,-3.4481,-3.4414,-3.4481,-3.4582,-3.4515,-3.4549,-3.4422,-3.3813,-3.3331,-3.2745,-3.1855,-3.136,-3.101,-3.0805,-3.0702,-3.0672,-3.0672,-3.0642,-3.0598,-3.0598,-3.0598,-3.0642,-3.0762,-3.0762,-3.0762,-3.0762,-3.0762,-3.0762,-3.0762,-3.0762,-3.0762,-3.0762,-3.0631,-3.0529,-3.044,-3.028,-3.0192,-3.0105,-3.0105,-3.0105,-3.0105,-3.0192,-3.025,-3.0294,-3.0674,-3.0908,-3.2875,-3.2591,-3.2232,-3.3311,-3.3206,-3.3087,-3.4162,-3.4011,-3.3776,-3.4298,-3.4414,-3.4414,-3.4414,-3.4162,-3.4079,-3.4332,-3.4147,-3.4005,-3.4134,-3.4652,-3.4942,-3.477,-3.5262,-3.5615,0.0,0.0,0.0,-3.7271,-3.7271,-3.74,-3.772,-3.7438,-3.7553,-3.8165,-3.7886,-3.7886,-3.8202,-3.8202,-3.8202,-3.8202,-3.8202,-3.8202,-3.8202,-3.8202,-3.8202,-3.8188,-3.7796,-3.7506,-3.723,-3.6141,-3.5595,-3.5334,-3.4661,-3.4414,-3.4414,-3.4414,-3.4414,-3.4414,-3.4414,-3.4414,-3.4414,-3.4414,-3.4414,-3.4414,-3.4414,-3.4414,-3.4414,-3.4414,-3.4414,-3.4414,-3.4414,-3.424,-3.392,-3.3282,-3.2629,-3.1975,-3.1322,-3.0858,-3.0598,-3.0598,-3.0598,-3.0598,-3.0598,-3.0598,-3.0598,-3.0598,-3.0598,-3.0598,-3.0598,-3.0598,-3.0598,-3.0598,-3.0598,-3.0598,-3.0598,-3.0598,-3.0598,-3.0598,-3.0672,-3.0702,-3.0598,-3.0672,-3.0702,-3.0598,-3.0598,-3.0598,-3.0598,-3.0702,-3.0762,-3.0791,-3.0925,-3.1087,-3.0932,-3.0419,-3.0228,-3.1759,-3.211,-3.2448,-3.4045,-3.4346,-3.4298,-3.438,-3.4414,-3.4414,0.0,0.0,-3.3451,-3.423,-3.3673,-3.3367,-3.3976,-3.4542,-3.4816,0.0,0.0,0.0,0.0,0.0,0.0,-3.5453,0.0,-3.5949,-3.6805,-3.6029,-3.6346,-3.8,-3.7246,-3.7246,-3.8037,-3.8089,-3.8089,-3.8127,-3.8127,-3.8127,-3.8127,-3.8165,-3.8202,-3.8202,-3.8202,-3.7883,-3.7302,-3.6591,-3.5952,-3.5378,-3.4675,-3.4414,-3.4414,-3.4414,-3.4414,-3.4414,-3.4414,-3.4414,-3.4414,-3.4414,-3.4414,-3.4414,-3.4414,-3.4414,-3.4414,-3.4414,-3.4414,-3.4414,-3.4414,-3.3935,-3.3344,-3.2672,-3.1973,-3.1337,-3.0743,-3.0598,-3.0598,-3.0598,-3.0598,-3.0598,-3.0598,-3.0598,-3.0598,-3.0598,-3.0598,-3.0598,-3.0598,-3.0598,-3.0598,-3.0598,-3.0598,-3.0598,-3.0598,-3.0598,-3.0598,-3.0598,-3.0598,-3.0598,-3.0598,-3.0598,-3.0598,-3.0598,-3.0598,-3.0598,-3.0598,-3.0598,-3.0672,-3.0791,-3.0821,-3.1014,-3.1502,-3.123,-3.0983,-3.2528,-3.206,-3.1769,-3.3894,-3.35,-3.303,-3.4162,-3.4414,-3.4414,0.0,0.0,0.0,-3.3485,-3.2875,0.0,-3.235,-3.2836,0.0,-3.29,0.0,-3.3755,-3.3755,-3.3755,0.0,0.0,-3.491,-3.5695,-3.5909,-3.5695,-3.5815,-3.6267,-3.6068,-3.6029,-3.6267,-3.6267,-3.6596,-3.7208,-3.7208,-3.7208,-3.7246,-3.7886,-3.8202,-3.8202,-3.8202,-3.8115,-3.7883,-3.6765,-3.6214,-3.5952,-3.4849,-3.4414,-3.4414,-3.4414,-3.4414,-3.4414,-3.4414,-3.4414,-3.4414,-3.4414,-3.4414,-3.4414,-3.4414,-3.4414,-3.4414,-3.4414,-3.4414,-3.4414,-3.4414,-3.3935,-3.3344,-3.2672,-3.1973,-3.1337,-3.0743,-3.0598,-3.0598,-3.0598,-3.0598,-3.0598,-3.0598,-3.0598,-3.0598,-3.0598,-3.0598,-3.0598,-3.0598,-3.0598,-3.0598,-3.0598,-3.0598,-3.0598,-3.0598,-3.0598,-3.0598,-3.0598,-3.0598,-3.0598,-3.0598,-3.0598,-3.0598,-3.0598,-3.0598,-3.0598,-3.0598,-3.0598,-3.0612,-3.0642,-3.1122,-3.1432,-3.0872,-3.0746,-3.0696,-3.1878,-3.1549,-3.1328,-3.3017,-3.2733,-3.2448,-3.3638,-3.3604,0.0,-3.4264,-3.3192,0.0,0.0,0.0,0.0,-3.1364,-3.2071,-3.2405,0.0,-3.2579,0.0,-3.3124,-3.3124,-3.3124,0.0,-3.3953,-3.4677,-3.5047,-3.4718,-3.4828,-3.5574,-3.5278,-3.5237,-3.5615,-3.5615,-3.5869,-3.632,-3.632,-3.632,-3.636,-3.683,-3.7271,-3.7644,-3.7644,-3.7848,-3.813,-3.7143,-3.6577,-3.6214,-3.5212,-3.4661,-3.4414,-3.4414,-3.4414,-3.4414,-3.4414,-3.4414,-3.4414,-3.4414,-3.4414,-3.4414,-3.4414,-3.4414,-3.4414,-3.4414,-3.4414,-3.4414,-3.4414,-3.3732,-3.2962,-3.26,-3.1801,-3.1003,-3.067,-3.0598,-3.0598,-3.0598,-3.0598,-3.0598,-3.0598,-3.0598,-3.0598,-3.0598,-3.0598,-3.0598,-3.0598,-3.0598,-3.0598,-3.0598,-3.0598,-3.0598,-3.0598,-3.0598,-3.0598,-3.0598,-3.0598,-3.0598,-3.0598,-3.0598,-3.0598,-3.0598,-3.0598,-3.0598,-3.0598,-3.0858,-3.0988,-3.1003,-3.1656,-3.2024,-2.9792,-2.9792,-2.9972,-3.072,-3.082,-3.0983,-3.1892,-3.2015,-3.2146,-3.2897,0.0,-3.2519,-3.3859,-3.2349,-3.1328,-3.267,0.0,-3.0707,-3.0707,-3.1669,-3.2142,-3.1427,-3.239,-3.3124,-3.3124,-3.3124,-3.3124,-3.3124,-3.3124,-3.3411,-3.4189,-3.3484,-3.3755,-3.5224,-3.4579,-3.462,-3.5427,-3.5346,-3.5346,-3.5427,-3.5427,-3.5427,-3.5427,-3.5534,-3.6029,-3.6727,-3.6727,-3.7169,-3.7829,-3.7313,-3.6714,-3.6086,-3.5604,-3.5,-3.4414,-3.4414,-3.4414,-3.4414,-3.4414,-3.4414,-3.4414,-3.4414,-3.4414,-3.4414,-3.4414,-3.4414,-3.4414,-3.4414,-3.4414,-3.4414,-3.4414,-3.347,-3.2481,-3.2481,-3.1526,-3.0598,-3.0598,-3.0598,-3.0598,-3.0598,-3.0598,-3.0598,-3.0598,-3.0598,-3.0598,-3.0598,-3.0598,-3.0598,-3.0598,-3.0598,-3.0598,-3.0598,-3.0598,-3.0598,-3.0598,-3.0598,-3.0598,-3.0598,-3.0598,-3.0598,-3.0598,-3.0598,-3.0598,-3.0598,-3.0598,-3.0598,-3.0598,-3.1221,-3.1495,-3.1509,-3.2295,-3.2693,-2.9792,-2.9792,-2.9972,-3.072,-3.0444,-3.0355,-3.1796,-3.1599,0.0,0.0,-3.2182,-3.2182,-3.2448,-3.1623,-3.1007,-3.1254,0.0,0.0,0.0,0.0,-3.1317,0.0,0.0,0.0,0.0,-3.3124,0.0,0.0,-3.3124,-3.3167,-3.3326,-3.3197,-3.324,-3.3513,-3.3398,-3.3738,-3.4592,-3.3882,-3.3882,-3.462,-3.462,-3.462,-3.462,-3.5318,-3.5695,-3.5829,-3.5829,0.0,-3.6053,-3.6185,-3.5831,-3.5232,-3.5344,-3.5,-3.4414,-3.4414,-3.4414,-3.4414,-3.4414,-3.4414,-3.4414,-3.4414,-3.4414,-3.4414,-3.4414,-3.4414,-3.4414,-3.4414,-3.4414,-3.4414,-3.4414,-3.347,-3.2481,-3.2481,-3.1526,-3.0598,-3.0598,-3.0598,-3.0598,-3.0598,-3.0598,-3.0598,-3.0598,-3.0598,-3.0598,-3.0598,-3.0598,-3.0598,-3.0598,-3.0598,-3.0598,-3.0598,-3.0598,-3.0598,-3.0598,-3.0598,-3.0598,-3.0598,-3.0598,-3.0598,-3.0598,-3.0598,-3.0598,-3.0598,-3.0598,-3.0598,-3.0598,-3.1221,-3.1495,-3.1524,-3.2745,-3.3329,-2.9792,-2.9792,-2.9895,-3.0241,-3.0062,-2.9972,-3.0722,0.0,0.0,0.0,-3.1108,-3.1121,-3.1833,-3.0932,0.0,0.0,0.0,0.0,0.0,0.0,0.0,0.0,0.0,0.0,0.0,-3.2736,-3.2779,-3.2896,-3.2766,-3.2822,-3.3081,-3.2982,-3.2853,-3.2736,-3.2853,-3.3099,-3.3513,-3.324,-3.3326,-3.3738,-3.3738,-3.3738,-3.3738,-3.4121,-3.4553,-3.4978,-3.4978,-3.5196,-3.5601,-3.5753,-3.5261,-3.4444,-3.4589,-3.4048,-3.3241,-3.3638,-3.3776,-3.3859,-3.4264,-3.4414,-3.4414,-3.4414,-3.4414,-3.4414,-3.4414,-3.4414,-3.4414,-3.4414,-3.4414,-3.4414,-3.4414,-3.347,-3.2481,-3.2481,-3.1526,-3.0598,-3.0598,-3.0598,-3.0598,-3.0598,-3.0598,-3.0598,-3.0598,-3.0598,-3.0598,-3.0598,-3.0598,-3.0598,-3.0598,-3.0598,-3.0598,-3.0598,-3.0598,-3.0598,-3.0598,-3.0598,-3.0598,-3.0598,-3.0598,-3.0598,-3.0598,-3.0598,-3.0598,-3.0598,-3.0598,-3.0598,-3.0598,-3.1555,-3.2002,-3.2046,-3.3354,-3.3964,-2.9792,-2.9792,-2.9792,-2.9792,-2.9792,-2.9792,-2.9792,-2.9792,0.0,0.0,-3.005,-3.0075,-3.1071,0.0,-2.96,0.0,0.0,0.0,0.0,0.0,0.0,0.0,0.0,0.0,0.0,-3.2326,0.0,-3.2636,-3.2475,-3.2562,-3.2952,-3.2766,-3.255,-3.24,-3.255,-3.2636,-3.2636,-3.2853,-3.2952,-3.2952,-3.2952,-3.2952,-3.2952,-3.2952,-3.3368,-3.4021,-3.4021,-3.4454,-3.5061,-3.5264,-3.4673,-3.3623,-3.3829,-3.3145,-3.2182,-3.2755,-3.2967,-3.3038,-3.3673,-3.3908,-3.3908,-3.3908,-3.4128,-3.4414,-3.4414,-3.4414,-3.4414,-3.4414,-3.4414,-3.4414,-3.4414,-3.3572,-3.2643,-3.2336,-3.1409,-3.0598,-3.0598,-3.0598,-3.0598,-3.0598,-3.0598,-3.0598,-3.0598,-3.0598,-3.0598,-3.0598,-3.0598,-3.0598,-3.0598,-3.0598,-3.0598,-3.0598,-3.0598,-3.0598,-3.0598,-3.0598,-3.0598,-3.0598,-3.0598,-3.0598,-3.0598,-3.0598,-3.0598,-3.0598,-3.0598,-3.0598,-3.0598,-3.1888,-3.2481,-3.2524,-3.3819,-3.4414,-2.9792,-2.9792,-2.9792,-2.9792,-2.9792,-2.9792,-2.9792,0.0,0.0,-2.9535,-2.9638,-2.9702,-2.9392,-2.938,0.0,0.0,0.0,-2.8843,0.0,0.0,0.0,0.0,0.0,0.0,0.0,-3.2105,-3.2388,-3.2431,-3.2388,-3.2431,-3.2487,-3.2431,-3.2431,-3.24,-3.2431,-3.2431,-3.2431,-3.2431,-3.2475,-3.2475,-3.2475,-3.2475,-3.2475,-3.2475,-3.2593,-3.284,-3.284,-3.3056,0.0,-3.4176,-3.3814,-3.2804,-3.3584,-3.3145,-3.211,-3.2182,-3.2182,-3.2218,-3.2304,-3.2304,-3.2304,-3.2304,-3.3241,-3.4414,-3.4414,-3.4414,-3.4414,-3.4414,-3.4414,-3.4414,-3.4414,-3.3906,-3.3111,-3.1888,-3.1076,-3.0598,-3.0598,-3.0598,-3.0598,-3.0598,-3.0598,-3.0598,-3.0598,-3.0598,-3.0598,-3.0598,-3.0598,-3.0598,-3.0598,-3.0598,-3.0598,-3.0598,-3.0598,-3.0598,-3.0598,-3.0598,-3.0598,-3.0598,-3.0598,-3.0598,-3.0598,-3.0598,-3.0598,-3.0598,-3.0598,-3.0598,-3.0598,-3.1888,-3.2481,-3.2524,-3.3819,-3.4414,-2.9792,-2.9792,-2.9792,-2.9792,-2.9792,-2.9792,-2.9792,0.0,-2.9702,-2.9287,-2.9392,-2.9443,-2.9,-2.8988,-2.8988,0.0,0.0,0.0,0.0,0.0,0.0,0.0,0.0,0.0,0.0,0.0,-3.1981,-3.1981,-3.2081,-3.2125,-3.1981,-3.2069,-3.2081,-3.1981,-3.2081,-3.2169,-3.2169,-3.23,-3.24,-3.24,-3.24,-3.24,-3.24,-3.24,-3.2431,-3.2519,-3.2636,-3.2754,0.0,-3.303,-3.2615,-3.1862,-3.19,-3.1435,-3.0759,-3.1206,-3.1378,-3.1452,-3.1928,-3.211,-3.211,-3.211,-3.2519,-3.303,-3.303,-3.303,-3.303,-3.303,-3.3346,-3.3589,-3.3136,-3.2535,-3.187,-3.1059,-3.0671,-3.0387,-3.0078,-3.0312,-3.0598,-3.0598,-3.0251,-3.0007,-3.0007,-3.0007,-3.0007,-3.0007,-3.0357,-3.0598,-3.0598,-3.0598,-3.0598,-3.0598,-3.0598,-3.0598,-3.0598,-3.0598,-3.0598,-3.0598,-3.0598,-3.0598,-3.0598,-3.0598,-3.0598,-3.0598,-3.0598,-3.0786,-3.1134,-3.2077,-3.2716,-3.3108,-3.3993,-3.4414,-2.9792,-2.9792,-2.9792,-2.9792,-2.9792,-2.9792,0.0,0.0,-2.9534,-2.9091,-2.9157,-2.9197,-2.8803,-2.8764,-2.8803,0.0,0.0,-2.851,-2.851,0.0,0.0,0.0,0.0,-3.0062,0.0,-3.1308,-3.1705,-3.1705,-3.1849,-3.1849,-3.1705,-3.1849,-3.1849,-3.1705,-3.1849,-3.1893,-3.1893,-3.2081,-3.2213,-3.2213,-3.2213,-3.2213,-3.2213,-3.2213,-3.2213,-3.2288,-3.2333,-3.2389,0.0,-3.2118,-3.165,-3.1122,-3.0758,-3.0281,-2.9856,-3.0381,-3.0532,-3.0519,-3.1119,-3.1267,-3.123,-3.1267,-3.1304,-3.1304,-3.1392,-3.1723,-3.211,-3.211,-3.247,-3.2755,-3.2218,-3.1604,-3.1023,-3.074,-3.0521,-3.0224,-2.9873,-3.0172,-3.0486,-3.0486,-3.0094,-2.972,-2.9525,-2.9529,-2.9537,-2.9588,-3.0007,-3.0282,-3.0282,-3.0282,-3.0282,-3.0282,-3.0282,-3.0387,-3.0568,-3.0598,-3.0598,-3.0598,-3.0598,-3.0598,-3.0598,-3.0598,-3.0685,-3.0843,-3.0858,-3.1163,-3.1785,-3.2483,-3.3035,-3.3518,-3.4124,-3.4414,-2.9792,-2.9792,-2.9792,-2.9792,-2.9792,-2.974,0.0,-2.9419,-2.9302,-2.8882,-2.8961,-2.8973,-2.859,-2.8657,-2.8724,-2.855,0.0,0.0,-2.851,-2.851,0.0,0.0,0.0,-2.9508,-3.005,-3.1091,-3.1705,-3.1705,-3.1705,0.0,-3.1705,-3.1705,-3.1705,-3.1705,-3.1705,-3.1705,-3.1705,-3.1717,-3.1705,-3.1705,-3.1705,-3.1705,-3.1705,-3.1705,-3.1805,-3.2001,-3.1669,-3.1649,0.0,-3.1555,-3.1085,-3.062,-3.062,-3.0281,-2.9792,-2.9792,-2.965,-2.9419,-2.9419,-2.9314,-2.917,-2.9341,-2.9419,-2.947,-2.974,-3.091,-3.211,-3.211,-3.211,-3.211,-3.211,-3.1604,-3.1086,-3.1108,-3.0626,-3.0207,-3.0193,-3.0193,-3.0193,-3.0193,-3.0193,-2.9991,-2.9416,-2.9307,-2.9381,-2.9582,-2.9623,-2.9623,-2.9623,-2.9623,-2.9623,-2.9623,-2.9623,-2.987,-3.0538,-3.0598,-3.0598,-3.0598,-3.0598,-3.0598,-3.0598,-3.0598,-3.0872,-3.1466,-3.148,-3.1814,-3.2481,-3.3151,-3.3489,-3.3518,-3.4124,-3.4414,-2.9792,-2.9792,-2.9753,-2.956,-2.9521,-2.947,-2.9236,-2.9197,-2.9118,-2.8831,-2.8843,-2.8803,-2.855,-2.855,-2.8578,-2.851,-2.851,0.0,0.0,0.0,0.0,-2.851,-2.9304,-3.005,0.0,0.0,-3.1705,-3.1705,-3.1705,-3.1705,-3.1705,-3.1705,-3.1705,-3.1705,-3.1705,-3.1705,-3.1705,-3.1705,-3.1705,-3.1705,-3.1705,-3.1524,-3.1163,-3.1163,-3.097,-3.0707,-3.0724,-3.0777,-3.0866,-3.0556,-3.0357,-3.0143,-2.9747,-2.9448,-2.9339,-2.9482,-2.9404,-2.9197,-2.9341,-2.9275,-2.9091,-2.917,-2.9275,-2.9419,-2.9509,-3.0011,-3.0608,-3.1132,-3.0921,-3.0759,-3.1833,-3.1162,-3.0259,-3.0382,-3.023,-2.9944,-2.9522,-2.9848,-3.0207,-3.0207,-2.9792,-2.9377,-2.9214,-2.9153,-2.9191,-2.9245,-2.9706,-3.0021,-3.0021,-3.0021,-3.0021,-3.0021,-3.0451,-3.0729,-3.061,-3.0598,-3.0598,-3.0598,-3.0598,-3.0786,-3.1206,-3.1221,-3.1526,-3.2162,-3.2176,-3.2513,-3.3166,-3.3402,-3.3721,-3.4124,-3.4312,-3.4414,0.0,-2.9792,-2.974,-2.947,-2.9419,0.0,-2.904,-2.9013,-2.8922,-2.8724,-2.8685,-2.8657,-2.851,-2.851,-2.851,-2.851,-2.851,0.0,0.0,0.0,0.0,-2.851,0.0,0.0,0.0,-3.1103,-3.1488,-3.1693,-3.1705,-3.1705,-3.1705,-3.1705,-3.1705,-3.1705,-3.1705,-3.1705,-3.1705,-3.1705,-3.1705,-3.1705,-3.15,-3.1235,-3.091,-3.0675,-3.0441,-3.0116,-3.0107,-3.0092,0.0,-2.9788,-2.9659,-2.9622,-2.9266,-2.9091,-2.9131,-2.9236,-2.9157,-2.9,-2.9145,-2.904,-2.8907,-2.8973,-2.9157,-2.9419,-2.9419,-2.9611,-2.9895,-3.0343,-3.0126,-3.0011,-3.0972,-3.0508,-2.9807,-2.997,-2.9942,-2.9815,-2.9442,-2.9718,-3.0056,-3.0056,-2.9694,-2.9288,-2.907,-2.9031,-2.9027,-2.908,-2.95,-2.9792,-2.9792,-2.9792,-2.9792,-2.9792,-3.0193,-3.0569,-3.0825,-3.1139,-3.1308,-3.1308,-3.1308,-3.1482,-3.1843,-3.1872,-3.2208,-3.2861,-3.2875,-3.3195,-3.3819,-3.3819,-3.4022,-3.4414,-3.4414,-3.4414,0.0,-2.9792,-2.9702,0.0,0.0,0.0,-2.8882,-2.8803,0.0,-2.855,-2.851,-2.851,-2.851,-2.851,-2.851,-2.851,-2.851,-2.8471,0.0,-2.8431,0.0,0.0,-2.8979,0.0,-2.9977,-3.0506,-3.1091,-3.1609,-3.1657,-3.1669,-3.1705,-3.1705,-3.1705,-3.1705,-3.1705,-3.1705,-3.1705,-3.1705,-3.1693,-3.1645,-3.1151,-3.0874,-3.0747,-3.0254,-3.0013,0.0,-2.9641,-2.9533,-2.9496,-2.9181,-2.9052,-2.9052,-2.9052,-2.9052,-2.9052,-2.9052,-2.8961,-2.8803,-2.8791,-2.8657,-2.855,-2.8724,-2.9067,-2.938,-2.938,-2.9611,-2.9792,-2.9792,-2.9792,-2.9792,-2.9792,-2.9792,-2.9792,-2.9792,-2.9792,-2.9792,-2.9792,-2.9792,-2.9792,-2.9792,-2.9792,-2.9616,-2.9051,-2.895,-2.9024,-2.9119,-2.9136,-2.9136,-2.9136,-2.9136,-2.9136,-2.9136,-2.9207,-2.9794,-3.1246,-3.2011,-3.2449,-3.2481,-3.2481,-3.251,-3.2553,-3.2553,-3.2875,-3.3547,-3.3561,-3.3819,-3.4414,-3.4414,-3.4414,-3.4414,-3.4414,-3.4414,-2.9792,0.0,-2.9431,-2.9236,-2.904,-2.8882,0.0,-2.8578,-2.8538,-2.851,-2.851,-2.851,-2.851,-2.851,-2.851,-2.851,-2.851,-2.8259,-2.7592,0.0,0.0,-2.8431,-2.8979,-2.9352,-2.9472,-2.9965,-3.0494,-3.1067,-3.1103,-3.1284,-3.1681,-3.1705,-3.1705,-3.1705,-3.1705,-3.1705,-3.1705,-3.1705,-3.15,-3.1103,-3.0983,-3.0446,-2.9665,-2.9544,-2.9268,-2.8871,-2.8779,-2.8771,-2.8759,-2.8678,-2.863,-2.863,-2.863,-2.863,-2.8657,-2.8803,-2.8724,-2.8578,-2.8764,-2.8657,-2.855,-2.8724,-2.887,-2.8988,-2.9302,-2.9611,-2.9792,-2.9792,-2.9792,-2.9792,-2.9792,-2.9792,-2.9792,-2.9792,-2.9792,-2.9792,-2.9792,-2.9792,-2.9792,-2.9792,-2.9792,-2.9741,-2.9616,-2.9591,-2.9579,-2.9631,-2.9644,-2.9644,-2.9644,-2.9644,-2.9644,-2.9644,-3.0157,-3.0857,-3.1845,-3.1698,-3.1842,-3.2449,-3.2481,-3.273,-3.3224,-3.3271,-3.3543,-3.4182,-3.4196,-3.4269,-3.4414,-3.4414,-3.4414,-3.4414,-3.4414,-3.4414,-2.9145,-2.9223,-2.9341,-2.917,-2.8961,-2.8764,-2.855,0.0,0.0,0.0,0.0,0.0,-2.7966,-2.7886,-2.7886,-2.7886,-2.7551,0.0,0.0,0.0,-2.6753,-2.7203,-2.7538,-2.7792,0.0,-2.8731,-2.9329,-2.9836,-3.0281,-3.0639,-3.097,-3.1211,-3.1344,-3.1344,-3.1585,-3.1705,-3.1705,-3.1464,-3.1199,-3.091,-3.0386,-2.9845,-2.9292,-2.9051,-2.8775,-2.851,-2.851,-2.851,-2.851,-2.851,-2.851,-2.851,-2.851,-2.851,-2.851,-2.8618,-2.8578,-2.851,-2.8618,-2.8578,-2.851,-2.8618,-2.8724,-2.8843,-2.9067,-2.9353,-2.965,-2.9753,-2.9792,-2.9792,-2.9792,-2.9792,-2.9792,-2.9792,-2.9792,-2.9792,-2.9792,-2.9792,-2.9792,-2.9792,-2.9792,-2.9792,-2.9792,-2.9792,-2.9792,-2.9792,-2.9792,-2.9792,-2.9792,-2.9792,-2.9792,-2.9792,-3.0177,-3.0696,-3.1489,-3.1285,-3.1751,-3.3285,-3.3025,-3.3135,-3.3877,-3.3891,-3.4066,-3.4399,-3.4414,-3.4414,-3.4414,-3.4414,-3.4414,-3.4414,-3.4414,-3.4414,-2.8187,-2.8386,-2.8846,-2.8661,-2.8502,-2.8315,-2.8127,0.0,0.0,0.0,0.0,0.0,0.0,-2.6969,0.0,0.0,0.0,0.0,-2.5777,-2.5704,-2.5652,-2.5777,-2.5777,0.0,-2.643,-2.7206,-2.7843,-2.8322,-2.9117,-2.9599,-2.9682,-3.011,-3.0434,-3.0575,-3.0874,-3.1189,-3.1464,-3.1103,-3.0838,-3.0627,-2.9725,-2.9256,-2.916,-2.8715,-2.851,-2.851,0.0,0.0,-2.851,-2.851,-2.851,-2.851,-2.851,-2.851,-2.851,-2.851,-2.851,-2.851,-2.851,-2.851,-2.851,-2.851,-2.8618,-2.8764,-2.8803,-2.9028,-2.9353,-2.9624,-2.9753,-2.9792,-2.9792,-2.9792,-2.9792,-2.9792,-2.9792,-2.9792,-2.9792,-2.9792,-2.9792,-2.9792,-2.9792,-2.9792,-2.9792,-2.9792,-2.9792,-2.9792,-2.9792,-2.9792,-2.9792,-2.9792,-2.9792,-2.9792,-2.9792,-3.0101,-3.082,-3.0782,-3.1673,-3.3908,-3.3416,-3.3381,-3.4182,-3.423,-3.4264,-3.4414,-3.4414,-3.4414,-3.4414,-3.4414,-3.4414,-3.4414,-3.4414,-3.4414,-2.725,-2.683,-2.6603,-2.6573,-2.6431,-2.6235,-2.6205,0.0,0.0,0.0,0.0,0.0,0.0,-2.5986,-2.5986,0.0,0.0,-2.4956,0.0,0.0,-2.4946,-2.5694,0.0,-2.581,-2.5917,-2.6065,-2.6347,-2.6863,-2.7078,-2.7342,-2.7798,-2.7898,-2.8292,-2.8985,-2.8403,-2.8809,-3.0326,-3.0687,-3.0422,-2.9532,-2.9376,-2.9063,-2.8631,-2.8546,-2.851,-2.851,0.0,-2.851,-2.851,-2.851,-2.851,-2.851,-2.851,-2.851,-2.851,-2.851,-2.851,-2.851,-2.851,-2.851,-2.851,-2.851,-2.851,-2.8578,-2.8764,-2.8831,-2.8922,-2.9131,-2.9507,-2.9792,-2.9792,-2.9792,-2.9792,-2.9792,-2.9792,-2.9792,-2.9792,-2.9792,-2.9792,-2.9792,-2.9792,-2.9792,-2.9792,-2.9792,-2.9792,-2.9792,-2.9792,-2.9792,-2.9792,-2.9792,-2.9792,-2.9792,-2.9792,-3.0101,-3.082,-3.0343,-3.0684,-3.234,-3.234,-3.2613,-3.3367,-3.3367,-3.3707,-3.438,-3.4414,-3.4414,-3.4414,-3.4414,-3.4414,-3.4414,-3.4414,-3.4414,-2.6005,-2.5535,-2.5241,-2.4628,-2.5136,-2.5777,0.0,0.0,0.0,0.0,0.0,0.0,0.0,0.0,-2.4946,-2.4435,0.0,-2.4456,-2.436,-2.3983,-2.3897,0.0,0.0,-2.436,-2.436,-2.4776,-2.5211,-2.5466,-2.5892,-2.6287,-2.6506,-2.6812,-2.7171,-2.7547,-2.7468,-2.7654,-2.8222,-2.8451,-2.8815,-2.9304,-2.9015,-2.8751,-2.851,-2.851,-2.851,-2.851,0.0,-2.851,-2.851,-2.851,-2.851,-2.851,-2.851,-2.851,-2.851,-2.851,-2.851,-2.851,-2.851,-2.851,-2.851,-2.851,-2.851,-2.851,-2.8618,-2.8724,-2.8843,-2.8922,-2.9248,-2.956,-2.956,-2.9689,-2.9792,-2.9792,-2.9792,-2.9792,-2.9792,-2.9792,-2.9792,-2.9792,-2.9792,-2.9792,-2.9792,-2.9792,-2.9792,-2.9792,-2.9792,-2.9792,-2.9792,-2.9792,-2.9792,-2.9792,-2.9792,-2.9934,-3.0279,-2.9998,-3.0292,-3.1378,-3.1856,-3.2434,-3.3178,-3.3178,-3.3589,-3.438,-3.4414,-3.4414,-3.4414,-3.4414,-3.4414,-3.4414,-3.4414,-3.4414,-2.484,-2.4467,-2.4168,-2.3299,0.0,0.0,0.0,0.0,0.0,0.0,0.0,0.0,0.0,-2.4155,0.0,-2.3222,-2.3691,-2.3897,-2.3222,-2.3091,-2.3091,-2.3091,-2.3091,-2.3091,-2.3091,-2.3734,-2.4155,-2.4155,-2.4776,-2.5158,-2.5158,-2.5573,-2.5894,-2.6119,-2.6292,-2.6389,-2.6419,-2.6205,-2.6928,-2.8463,-2.8062,-2.7874,-2.7874,-2.7874,-2.7874,-2.7874,-2.8087,-2.8179,-2.8219,-2.8431,-2.851,-2.851,-2.851,-2.851,-2.851,-2.851,-2.851,-2.851,-2.851,-2.851,-2.851,-2.851,-2.851,-2.851,-2.851,-2.8618,-2.8724,-2.8724,-2.9,-2.9263,-2.938,-2.956,-2.9702,-2.9792,-2.9792,-2.9792,-2.9792,-2.9792,-2.9792,-2.9792,-2.9792,-2.9792,-2.9792,-2.9792,-2.9792,-2.9792,-2.9792,-2.9792,-2.9792,-2.9792,-2.9792,-2.9792,-2.9792,-2.9792,-2.9792,-2.9792,-3.0037,-3.062,-3.1206,-3.1892,-3.2635,-3.2826,-3.3297,-3.4113,-3.4298,-3.4414,-3.4414,-3.4414,-3.4414,-3.4414,-3.4414,-3.4414,-2.382,-2.3396,-2.3222,-2.3135,-2.3222,0.0,-2.3309,-2.3309,0.0,-2.3309,0.0,0.0,0.0,-2.3178,-2.3178,-2.3091,-2.3178,-2.3178,-2.3091,0.0,-2.3091,-2.3091,-2.3091,-2.3091,-2.3091,-2.3178,-2.3178,-2.3178,-2.3266,-2.3309,-2.3309,-2.3339,-2.3741,-2.4625,-2.3847,-2.4184,-2.5832,-2.5041,-2.5126,-2.6041,-2.6008,-2.5986,-2.5986,-2.5986,-2.5986,-2.6027,-2.6928,-2.7307,-2.7348,-2.8179,-2.851,-2.851,-2.851,-2.851,-2.851,-2.851,-2.851,-2.851,-2.851,-2.851,-2.851,-2.851,-2.851,-2.851,-2.851,-2.851,-2.851,-2.851,-2.8697,-2.891,-2.9302,-2.9419,-2.9509,-2.974,-2.9792,-2.9792,-2.9792,-2.9792,-2.9792,-2.9792,-2.9792,-2.9792,-2.9792,-2.9792,-2.9792,-2.9792,-2.9792,-2.9792,-2.9792,-2.9792,-2.9792,-2.9792,-2.9792,-2.9792,-2.9792,-2.9792,-2.983,-2.9869,-2.9934,-3.0279,-3.1044,-3.1769,-3.2541,-3.3262,-3.4011,-3.4414,-3.4414,-3.4414,-3.4414,-3.4414,-3.4414,-3.4414,-2.3396,-2.3188,-2.3091,-2.3091,-2.3091,0.0,0.0,-2.3091,-2.3091,-2.3091,-2.3091,0.0,0.0,0.0,-2.3091,-2.3091,-2.3091,-2.3091,-2.3091,-2.3091,-2.3091,-2.3091,-2.3091,-2.3091,-2.3091,-2.3091,-2.3091,-2.3091,-2.3091,-2.3091,-2.3091,-2.3091,-2.3266,-2.3604,-2.3309,-2.343,-2.4102,-2.3767,-2.3767,-2.4145,-2.5274,-2.5777,-2.5777,-2.5777,-2.5777,-2.583,-2.6163,-2.6329,-2.6329,-2.67,-2.6835,-2.6835,-2.6835,-2.7174,-2.7644,-2.704,-2.6835,-2.6835,-2.6835,-2.6835,-2.6835,-2.6835,-2.6835,-2.6917,-2.751,-2.7684,-2.7805,-2.8351,-2.855,-2.8697,-2.8949,-2.9223,-2.9419,-2.9521,-2.9702,-2.9792,-2.9792,-2.9792,-2.9792,-2.9792,-2.9792,-2.9792,-2.9792,-2.9792,-2.9792,-2.9792,-2.9792,-2.9792,-2.9792,-2.9792,-2.9792,-2.9792,-2.9792,-2.9792,-2.9792,-2.9792,-2.9792,-2.9792,-2.9792,-3.0139,-3.0857,-3.118,-3.1709,-3.2506,-3.3276,-3.3659,-3.3659,-3.4147,-3.4414,-3.4414,-3.4414,-3.4414,-2.3144,-2.3091,-2.3091,-2.3091,0.0,0.0,-2.3091,-2.3091,-2.3091,-2.3091,-2.3091,0.0,-2.3091,0.0,0.0,0.0,-2.3091,-2.3091,-2.3091,-2.3091,-2.3091,-2.3091,-2.3091,-2.3091,-2.3091,-2.3091,-2.3091,-2.3091,-2.3091,-2.3091,-2.3091,-2.3091,-2.3091,-2.3091,-2.3091,-2.3091,-2.3091,-2.3091,-2.3091,-2.3091,-2.436,-2.4946,-2.4946,-2.4946,-2.4946,-2.4946,-2.5242,-2.5411,-2.5411,-2.5704,-2.5777,-2.5777,-2.5777,-2.6205,-2.667,-2.6038,-2.5777,-2.5777,-2.5777,-2.5777,-2.5777,-2.5777,-2.5777,-2.5902,-2.6547,-2.6969,-2.7307,-2.7926,-2.8299,-2.855,-2.8657,-2.8961,-2.9223,-2.938,-2.956,-2.9702,-2.9792,-2.9792,-2.9792,-2.9792,-2.9792,-2.9792,-2.9792,-2.9792,-2.9792,-2.9792,-2.9792,-2.9792,-2.9792,-2.9792,-2.9792,-2.9792,-2.9792,-2.9792,-2.9792,-2.9792,-2.9792,-2.9792,-2.9792,-3.0037,-3.0507,-3.0796,-3.1156,-3.1709,-3.267,-3.3178,-3.3178,-3.4011,-3.4414,-3.4414,-3.4414,-3.4414,-2.3091,-2.3091,-2.3091,-2.3091,0.0,0.0,-2.3091,-2.3091,-2.3091,-2.3091,-2.3091,-2.3091,-2.3091,-2.3091,0.0,-2.3091,-2.3091,-2.3091,-2.3091,-2.3091,-2.3091,-2.3091,-2.3091,-2.3091,-2.3091,-2.3091,-2.3091,-2.3091,-2.3091,-2.3091,-2.3091,-2.3091,-2.3091,-2.3091,-2.3091,-2.3091,-2.3091,-2.3091,-2.3091,-2.3091,-2.3091,-2.3091,-2.3091,-2.3091,-2.3091,-2.3135,-2.4069,-2.4498,-2.4531,-2.5411,-2.5777,-2.5788,-2.5777,-2.5777,-2.5788,-2.5788,-2.5777,-2.5777,-2.5777,-2.5777,-2.5777,-2.5777,-2.5777,-2.5788,-2.5777,-2.6464,-2.7185,-2.7185,-2.7805,-2.8471,-2.8471,-2.8657,-2.891,-2.9302,-2.9419,-2.947,-2.974,-2.9792,-2.9792,-2.9792,-2.9792,-2.9792,-2.9792,-2.9792,-2.9792,-2.9792,-2.9792,-2.9792,-2.9792,-2.9792,-2.9792,-2.9792,-2.9792,-2.9792,-2.9792,-2.9792,-2.9792,-2.9792,-2.9792,-2.9792,-2.9792,-3.052,-3.0895,-3.0895,-3.2384,-3.3178,-3.3178,-3.4011,-3.438,-3.438,-3.438,-3.438,-2.3091,-2.3091,0.0,-2.3091,0.0,0.0,0.0,-2.3091,0.0,0.0,-2.3091,-2.3091,-2.3091,0.0,0.0,-2.3091,-2.2969,-2.2925,-2.3091,-2.2969,-2.2925,-2.3091,-2.3091,-2.3091,-2.3091,-2.3091,-2.3091,-2.3091,-2.3091,-2.3091,-2.3091,-2.3091,-2.3091,-2.3091,-2.3091,-2.3091,-2.3091,-2.3091,-2.3091,-2.3091,-2.3091,-2.3091,-2.3091,-2.3091,-2.3091,-2.3135,-2.3387,-2.3517,-2.3517,-2.381,-2.4274,-2.4829,-2.4145,-2.4317,-2.4829,-2.4145,-2.3897,-2.3897,-2.3897,-2.3897,-2.3897,-2.3897,-2.3897,-2.4026,-2.4701,-2.5084,-2.5421,-2.6038,-2.6876,-2.7592,-2.7592,-2.8087,-2.8657,-2.8922,-2.9184,-2.9419,-2.9509,-2.9663,-2.9792,-2.9792,-2.9792,-2.9792,-2.9792,-2.9792,-2.9792,-2.9792,-2.9792,-2.9792,-2.9792,-2.9792,-2.9792,-2.9792,-2.9792,-2.9792,-2.9792,-2.9792,-2.9792,-2.9792,-2.9792,-2.9792,-2.9792,-2.9998,-3.0139,-3.0139,-3.1095,-3.1586,-3.1586,-3.2398,-3.3052,-3.3555,-3.3555,-3.3859,-2.3091,-2.3091,0.0,-2.3091,-2.3091,-2.3091,-2.3091,0.0,0.0,0.0,-2.3091,-2.3101,-2.3013,-2.2969,0.0,-2.2828,-2.2706,-2.2662,-2.2784,-2.2706,-2.2706,-2.2969,-2.2969,-2.3013,-2.3101,-2.3091,-2.3091,-2.3091,-2.3091,-2.3091,-2.3091,-2.3091,-2.3091,-2.3091,-2.3091,-2.3091,-2.3091,-2.3091,-2.3091,-2.3091,-2.3091,-2.3091,-2.3091,-2.3091,-2.3091,-2.3091,-2.3091,-2.3091,-2.3091,-2.3091,-2.344,-2.3897,-2.3309,-2.344,-2.3864,-2.3309,-2.3091,-2.3091,-2.3091,-2.3091,-2.3091,-2.3091,-2.3091,-2.3222,-2.3777,-2.4198,-2.4616,-2.5115,-2.5955,-2.6712,-2.7092,-2.7592,-2.8127,-2.8673,-2.9,-2.9184,-2.9263,-2.9482,-2.965,-2.965,-2.974,-2.9792,-2.9792,-2.9792,-2.9792,-2.9792,-2.9792,-2.9792,-2.9792,-2.9792,-2.9792,-2.9792,-2.9792,-2.9792,-2.9792,-2.9792,-2.9792,-2.9792,-2.9792,-2.9792,-2.9792,-2.9792,-2.9792,-2.9792,-3.0507,-3.0895,-3.0895,-3.1709,-3.2326,-3.2755,-3.2755,-3.3031,-2.3091,-2.3091,-2.3091,-2.3091,-2.3101,0.0,-2.3057,-2.3047,-2.3047,-2.3057,0.0,-2.3013,-2.2794,-2.2759,-2.2662,-2.2441,-2.2397,-2.2397,-2.2397,-2.2397,-2.2485,-2.2706,-2.2803,-2.2882,-2.3047,-2.3101,-2.3091,-2.3091,-2.3091,-2.3091,-2.3091,-2.3091,-2.3091,-2.3091,-2.3091,-2.3091,-2.3091,-2.3091,-2.3091,-2.3091,-2.3091,-2.3091,-2.3091,-2.3091,-2.3091,-2.3091,-2.3091,-2.3091,-2.3091,-2.3091,-2.3091,-2.3091,-2.3091,-2.3091,-2.3091,-2.3091,-2.3091,-2.3091,-2.3091,-2.3091,-2.3091,-2.3091,-2.3091,-2.3091,-2.3091,-2.3691,-2.437,-2.437,-2.4988,-2.5872,-2.6723,-2.7092,-2.7418,-2.8303,-2.8673,-2.8843,-2.904,-2.9236,-2.938,-2.938,-2.9573,-2.9753,-2.9753,-2.9753,-2.9792,-2.9792,-2.9792,-2.9792,-2.9792,-2.9792,-2.9792,-2.9792,-2.9792,-2.9792,-2.9792,-2.9792,-2.9792,-2.9792,-2.9792,-2.9792,-2.9792,-2.9792,-2.9792,-2.9792,-3.0444,-3.0782,-3.0782,-3.1526,-3.1942,-3.2001,-3.1988,-3.2024,-2.3091,-2.3091,0.0,0.0,-2.2969,-2.2838,-2.2838,-2.2706,-2.2608,-2.2838,-2.2838,-2.2794,-2.253,-2.2485,-2.2485,-2.2397,-2.2264,-2.223,-2.2397,-2.2264,-2.223,-2.2441,-2.2662,-2.2803,-2.2838,-2.3013,-2.3091,-2.3091,-2.3091,-2.3091,-2.3091,-2.3091,-2.3091,-2.3091,-2.3091,-2.3091,-2.3091,-2.3091,-2.3091,-2.3091,-2.3091,-2.3091,-2.3091,-2.3091,-2.3091,-2.3091,-2.3091,-2.3091,-2.3091,-2.3091,-2.3091,-2.3091,-2.3091,-2.3091,-2.3091,-2.3091,-2.3091,-2.3091,-2.3091,-2.3091,-2.3091,-2.3091,-2.3091,-2.3091,-2.3091,-2.3222,-2.3396,-2.3396,-2.4069,-2.4829,-2.5041,-2.6133,-2.7051,-2.6577,-2.7637,-2.8791,-2.8882,-2.9,-2.917,-2.917,-2.9209,-2.9287,-2.947,-2.947,-2.956,-2.9753,-2.9792,-2.9792,-2.9792,-2.9792,-2.9792,-2.9792,-2.9792,-2.9792,-2.9792,-2.9792,-2.9792,-2.9792,-2.9792,-2.9792,-2.9792,-2.9792,-2.9792,-2.9792,-2.9972,-3.0037,-3.0037,-3.0216,-3.0608,-3.1156,-3.1151,-3.1508,-2.3091,0.0,0.0,-2.2969,0.0,-2.2618,-2.2618,-2.2485,-2.2397,-2.2451,-2.253,-2.253,-2.2309,-2.2274,-2.222,-2.2087,-2.1963,-2.1963,-2.2043,-2.1954,-2.2008,-2.222,-2.2397,-2.2539,-2.2803,-2.2882,-2.3013,-2.3091,-2.3091,-2.3091,-2.3091,-2.3091,-2.3091,-2.3091,-2.3091,-2.3091,-2.3091,-2.3091,-2.3091,-2.3091,-2.3091,-2.3091,-2.3091,-2.3091,-2.3091,-2.3091,-2.3091,-2.3091,-2.3091,-2.3091,-2.3091,-2.3091,-2.3091,-2.3091,-2.3091,-2.3091,-2.3091,-2.3091,-2.3091,-2.3091,-2.3091,-2.3091,-2.3091,-2.3091,-2.3091,-2.3091,-2.3091,-2.3091,-2.343,-2.394,-2.437,-2.521,-2.5883,-2.583,-2.7273,-2.8526,-2.8115,-2.8514,-2.8973,-2.8973,-2.904,-2.917,-2.938,-2.9509,-2.965,-2.9792,-2.9792,-2.9792,-2.9792,-2.9792,-2.9792,-2.9792,-2.9792,-2.9792,-2.9792,-2.9792,-2.9792,-2.9792,-2.9792,-2.9792,-2.9792,-2.9792,-2.9792,-2.9792,-2.9792,-2.9792,-2.9792,-2.9792,-2.9998,-3.0381,-3.0367,-3.0605,-2.3091,0.0,-2.3013,-2.2794,-2.253,0.0,-2.2353,-2.2309,-2.222,-2.2052,-2.2185,-2.2264,-2.2052,-2.2052,-2.1963,-2.1741,-2.1696,-2.1696,-2.1696,-2.1696,-2.1785,-2.2008,-2.2052,-2.223,-2.2627,-2.2759,-2.2882,-2.3057,-2.3091,-2.3091,-2.3091,-2.3091,-2.3091,-2.3091,-2.3091,-2.3091,-2.3091,-2.3091,-2.3091,-2.3091,-2.3091,-2.3091,-2.3091,-2.3091,-2.3091,-2.3091,-2.3091,-2.3091,-2.3091,-2.3091,-2.3091,-2.3091,-2.3091,-2.3091,-2.3091,-2.3091,-2.3091,-2.3091,-2.3091,-2.3091,-2.3091,-2.3091,-2.3091,-2.3091,-2.3091,-2.3091,-2.3091,-2.3091,-2.3091,-2.3266,-2.4069,-2.437,-2.4616,-2.5189,-2.67,-2.7886,-2.7307,-2.8035,-2.8764,-2.8764,-2.8922,-2.9118,-2.9302,-2.956,-2.9753,-2.9792,-2.9792,-2.9792,-2.9792,-2.9792,-2.9792,-2.9792,-2.9792,-2.9792,-2.9792,-2.9753,-2.974,-2.9792,-2.9753,-2.974,-2.9792,-2.9792,-2.9792,-2.9792,-2.9792,-2.9792,-2.9792,-2.9792,-2.9792,-2.9792,-2.9792,-2.9792,-2.3091,0.0,-2.2803,0.0,-2.2309,-2.2141,0.0,0.0,-2.1776,0.0,-2.1963,-2.2052,-2.1785,-2.1731,-2.1741,-2.1696,-2.1696,-2.1696,-2.1696,-2.1696,-2.1687,-2.1741,-2.1963,-2.2097,-2.2185,-2.2539,-2.2794,-2.2838,-2.3013,-2.3091,-2.3091,-2.3091,-2.3091,-2.3091,-2.3091,-2.3091,-2.3091,-2.3091,-2.3091,-2.3091,-2.3091,-2.3091,-2.3091,-2.3091,-2.3091,-2.3091,-2.3091,-2.3091,-2.3091,-2.3091,-2.3091,-2.3091,-2.3091,-2.3091,-2.3091,-2.3091,-2.3091,-2.3091,-2.3091,-2.3091,-2.3091,-2.3091,-2.3091,-2.3091,-2.3091,-2.3091,-2.3091,-2.3091,-2.3091,-2.3135,-2.3266,-2.3897,-2.4327,-2.3647,-2.4861,-2.6329,-2.7051,-2.7926,-2.855,-2.855,-2.8685,-2.8882,-2.9131,-2.9314,-2.9509,-2.9753,-2.9792,-2.9792,-2.9792,-2.9792,-2.9792,-2.9792,-2.9792,-2.9792,-2.9792,-2.9611,-2.956,-2.9792,-2.956,-2.956,-2.9792,-2.9792,-2.9792,-2.9792,-2.9792,-2.9792,-2.9792,-2.9792,-2.9792,-2.9792,-2.9792,-2.9792,-2.3091,-2.2828,-2.253,0.0,-2.1758,-2.1078,-2.1078,0.0,-2.0212,-2.0808,-2.0988,-2.1221,-2.1642,-2.1696,-2.1696,-2.1696,-2.1696,-2.1696,-2.1696,-2.1696,-2.1696,-2.1696,-2.1785,-2.1919,-2.2097,-2.2407,-2.2618,-2.2803,-2.2969,-2.3091,-2.3091,-2.3091,-2.3091,-2.3091,-2.3091,-2.3091,-2.3091,-2.3091,-2.3091,-2.3091,-2.3091,-2.3091,-2.3091,-2.3091,-2.3091,-2.3091,-2.3091,-2.3091,-2.3091,-2.3091,-2.3091,-2.3091,-2.3091,-2.3091,-2.3091,-2.3091,-2.3091,-2.3091,-2.3091,-2.3091,-2.3091,-2.3091,-2.3091,-2.3091,-2.3091,-2.3091,-2.3091,-2.3091,-2.3091,-2.3091,-2.3091,-2.3396,-2.3734,-2.3864,-2.4861,-2.608,-2.701,-2.751,-2.7926,-2.8391,-2.8657,-2.8882,-2.9052,-2.9275,-2.9509,-2.9753,-2.9792,-2.9792,-2.9792,-2.9792,-2.9792,-2.9792,-2.9792,-2.9792,-2.9792,-2.956,-2.9457,-2.956,-2.947,-2.9457,-2.956,-2.9702,-2.9792,-2.9792,-2.9792,-2.9792,-2.9792,-2.9792,-2.9792,-2.9792,-2.9792,-2.9792,0.0,0.0,-2.2353,-2.2264,-2.1257,-2.0294,0.0,0.0,-1.9018,0.0,-1.9931,-2.0121,-2.0817,-2.1374,-2.1696,-2.1696,-2.1696,-2.1696,-2.1696,-2.1696,-2.1696,-2.1696,-2.1696,-2.1785,-2.1963,-2.2185,-2.2397,-2.2627,-2.2882,-2.3013,-2.3013,-2.3057,-2.3091,-2.3091,-2.3091,-2.3091,-2.3091,-2.3091,-2.3091,-2.3091,-2.3091,-2.3091,-2.3091,-2.3091,-2.3091,-2.3091,-2.3091,-2.3091,-2.3091,-2.3091,-2.3091,-2.3091,-2.3091,-2.3091,-2.3091,-2.3091,-2.3091,-2.3091,-2.3091,-2.3091,-2.3091,-2.3091,-2.3091,-2.3091,-2.3091,-2.3091,-2.3091,-2.3091,-2.3091,-2.3091,-2.3091,-2.3091,-2.3266,-2.3993,-2.4648,-2.5579,-2.7174,-2.751,-2.7725,-2.8391,-2.8618,-2.8803,-2.9013,-2.9157,-2.9314,-2.9585,-2.9663,-2.9663,-2.9624,-2.9663,-2.9663,-2.9624,-2.9624,-2.9624,-2.9702,-2.9431,-2.9302,-2.947,-2.9341,-2.9302,-2.9509,-2.9573,-2.9675,-2.9792,-2.974,-2.974,-2.9792,-2.9792,-2.9792,-2.9792,-2.9792,-2.9753,0.0,-2.2441,0.0,-2.1874,-2.0988,0.0,0.0,0.0,-1.8788,-1.888,-1.888,-1.888,-1.8926,-2.0447,-2.1696,-2.1696,-2.1696,-2.1696,-2.1696,-2.1696,-2.1696,-2.1696,-2.1696,-2.1696,-2.1741,-2.1963,-2.2097,-2.2141,-2.2539,-2.2803,-2.2803,-2.3013,-2.3091,-2.3091,-2.3091,-2.3091,-2.3091,-2.3091,-2.3091,-2.3091,-2.3091,-2.3091,-2.3091,-2.3091,-2.3091,-2.3091,-2.3091,-2.3091,-2.3091,-2.3091,-2.3091,-2.3091,-2.3091,-2.3091,-2.3091,-2.3091,-2.3091,-2.3091,-2.3091,-2.3091,-2.3091,-2.3091,-2.3091,-2.3091,-2.3091,-2.3091,-2.3091,-2.3091,-2.3091,-2.3091,-2.3091,-2.3091,-2.3091,-2.3178,-2.3222,-2.4188,-2.7672,-2.8431,-2.8431,-2.8471,-2.851,-2.8578,-2.8803,-2.8831,-2.8882,-2.9091,-2.9314,-2.9353,-2.917,-2.9314,-2.9353,-2.917,-2.9131,-2.9209,-2.938,-2.9067,-2.9079,-2.9753,-2.917,-2.9131,-2.9753,-2.9378,-2.9339,-2.9792,-2.956,-2.956,-2.9792,-2.9792,-2.9792,-2.9792,-2.9792,-2.965,0.0,0.0,0.0,-2.1248,-2.0016,-1.8917,-1.8464,-1.7474,-1.6839,-1.7647,-1.7831,-1.8017,-1.8703,-1.9384,-1.9849,-1.9849,-1.9849,-2.0076,-2.0718,-2.0808,-2.1042,-2.1642,-2.1696,-2.1696,-2.1696,-2.1919,-2.2097,-2.2097,-2.2539,-2.2803,-2.2803,-2.3013,-2.3091,-2.3091,-2.3091,-2.3091,-2.3091,-2.3091,-2.3091,-2.3091,-2.3091,-2.3091,-2.3091,-2.3091,-2.3091,-2.3091,-2.3091,-2.3091,-2.3091,-2.3091,-2.3091,-2.3091,-2.3091,-2.3091,-2.3091,-2.3091,-2.3091,-2.3091,-2.3091,-2.3091,-2.3091,-2.3091,-2.3091,-2.3091,-2.3091,-2.3091,-2.3091,-2.3091,-2.3091,-2.3091,-2.3091,-2.3091,-2.3266,-2.3864,-2.4445,-2.5358,-2.7255,-2.7684,-2.7846,-2.8391,-2.851,-2.8538,-2.8764,-2.8791,-2.8882,-2.9052,-2.917,-2.9157,-2.9091,-2.917,-2.9157,-2.9091,-2.9091,-2.9131,-2.9197,-2.8961,-2.8961,-2.9339,-2.9,-2.8961,-2.9339,-2.9182,-2.9248,-2.956,-2.9314,-2.9404,-2.9792,-2.9792,-2.9792,-2.9792,-2.9611,-2.9482,-2.2838,0.0,0.0,0.0,-1.969,-1.8192,-1.7751,0.0,-1.5514,-1.6457,-1.6661,-1.6876,-1.7662,-1.7777,-1.8002,-1.8696,-1.8788,-1.9018,-1.9704,-1.9795,-2.0031,-2.0628,-2.0727,-2.0727,-2.0727,-2.1177,-2.1356,-2.1042,-2.1945,0.0,-2.2201,-2.2696,-2.3013,-2.3091,-2.3091,-2.3091,-2.3091,-2.3091,-2.3091,-2.3091,-2.3091,-2.3091,-2.3091,-2.3091,-2.3091,-2.3091,-2.3091,-2.3091,-2.3091,-2.3091,-2.3091,-2.3091,-2.3091,-2.3091,-2.3091,-2.3091,-2.3091,-2.3091,-2.3091,-2.3091,-2.3091,-2.3091,-2.3091,-2.3091,-2.3091,-2.3091,-2.3091,-2.3091,-2.3091,-2.3091,-2.3091,-2.3353,-2.3734,-2.437,-2.5158,-2.608,-2.701,-2.7185,-2.747,-2.8351,-2.851,-2.855,-2.8685,-2.8685,-2.8724,-2.8895,-2.8973,-2.8961,-2.8895,-2.8973,-2.8961,-2.8895,-2.8895,-2.8934,-2.9,-2.8803,-2.8803,-2.9091,-2.8855,-2.8803,-2.9091,-2.8973,-2.9052,-2.938,-2.9157,-2.9209,-2.9663,-2.96,-2.96,-2.965,-2.9392,-2.9275,0.0,0.0,0.0,0.0,0.0,0.0,-1.824,0.0,-1.5075,-1.5324,-1.5391,-1.5484,-1.5718,-1.5771,-1.6433,-1.8373,-1.8696,-1.8742,-1.8742,-1.8742,-1.8796,-1.8788,-1.8788,-1.8788,-1.8788,-1.9704,-1.9886,-1.888,-2.0853,-2.1767,-2.1042,-2.2148,-2.2882,-2.3057,-2.3101,-2.3101,-2.3091,-2.3091,-2.3091,-2.3101,-2.3091,-2.3091,-2.3101,-2.3091,-2.3091,-2.3091,-2.3091,-2.3091,-2.3091,-2.3091,-2.3091,-2.3091,-2.3091,-2.3091,-2.3091,-2.3091,-2.3091,-2.3091,-2.3091,-2.3091,-2.3091,-2.3091,-2.3091,-2.3091,-2.3091,-2.3091,-2.3091,-2.3091,-2.3091,-2.3091,-2.3091,-2.382,-2.4498,-2.4498,-2.5158,-2.608,-2.701,-2.7185,-2.747,-2.8351,-2.851,-2.851,-2.851,-2.851,-2.851,-2.851,-2.8657,-2.8724,-2.855,-2.8657,-2.8724,-2.851,-2.851,-2.8578,-2.8764,-2.8618,-2.8669,-2.9052,-2.8709,-2.8669,-2.9052,-2.8697,-2.8776,-2.938,-2.8988,-2.8988,-2.938,-2.9204,-2.9204,-2.938,-2.9197,-2.8961,-2.2761,0.0,0.0,0.0,0.0,0.0,-1.7089,-1.6192,-1.5493,-1.5203,-1.5251,-1.5424,-1.5504,-1.5691,-1.5967,-1.652,-1.6615,-1.6897,-1.7598,-1.7692,-1.7963,-1.8696,-1.8788,-1.8788,-1.8788,-1.9704,-1.9886,0.0,-2.0853,-2.1678,-2.0773,-2.2059,-2.2759,-2.2618,-2.2794,-2.2794,-2.2618,-2.2564,-2.2706,-2.2882,-2.2706,-2.2706,-2.2882,-2.2662,-2.2564,-2.2564,-2.2564,-2.2564,-2.2608,-2.296,-2.3091,-2.3091,-2.3091,-2.3091,-2.3091,-2.3091,-2.3091,-2.3091,-2.3091,-2.3091,-2.3091,-2.3091,-2.3091,-2.3091,-2.3091,-2.3091,-2.3091,-2.3091,-2.3091,-2.3091,-2.3091,-2.382,-2.4498,-2.4498,-2.5158,-2.608,-2.701,-2.7185,-2.747,-2.8351,-2.851,-2.851,-2.851,-2.851,-2.851,-2.851,-2.855,-2.8538,-2.851,-2.855,-2.8538,-2.851,-2.851,-2.851,-2.8578,-2.855,-2.8618,-2.8882,-2.8657,-2.8618,-2.8882,-2.8657,-2.8657,-2.8949,-2.8697,-2.8776,-2.9157,-2.9121,-2.9121,-2.9157,-2.8961,-2.8764,0.0,0.0,0.0,0.0,0.0,0.0,-1.6494,-1.5605,-1.5048,-1.4848,-1.491,-1.507,-1.5197,-1.5351,-1.5504,-1.5625,-1.5651,-1.5873,-1.656,-1.6669,-1.6904,-1.7498,-1.7544,-1.7544,-1.7544,-1.8465,-1.8796,-1.8241,-2.0167,-2.1311,-2.1248,-2.2122,-2.2574,-2.2397,-2.2574,-2.2574,-2.2397,-2.2397,-2.2485,-2.2618,-2.2485,-2.2485,-2.2618,-2.2485,-2.2397,-2.2397,-2.2397,-2.2397,-2.2441,-2.2706,-2.2794,-2.2794,-2.2794,-2.2882,-2.2969,-2.2838,-2.2925,-2.3101,-2.3013,-2.3013,-2.3091,-2.3091,-2.3091,-2.3091,-2.3091,-2.3091,-2.3178,-2.356,-2.3691,-2.3777,-2.4145,-2.4616,-2.5115,-2.5547,-2.6287,-2.708,-2.7632,-2.7765,-2.7886,-2.8391,-2.851,-2.851,-2.851,-2.851,-2.851,-2.851,-2.851,-2.851,-2.851,-2.851,-2.851,-2.851,-2.851,-2.851,-2.851,-2.851,-2.855,-2.8657,-2.8538,-2.855,-2.8657,-2.8538,-2.8578,-2.8791,-2.8618,-2.863,-2.8855,-2.8855,-2.8855,-2.8855,-2.8736,-2.8618,0.0,0.0,0.0,0.0,-1.8067,0.0,-1.6194,-1.5057,-1.4282,-1.4416,-1.4496,-1.4603,-1.4908,-1.4988,-1.5095,-1.5304,-1.5351,-1.5464,-1.5785,-1.5784,-1.5784,-1.5784,-1.5784,-1.5784,-1.5784,-1.6723,-1.7232,-1.7138,-1.9018,-2.0664,-2.182,-2.222,-2.2309,-2.2167,-2.2299,-2.2353,-2.2299,-2.2299,-2.2353,-2.2353,-2.2353,-2.2353,-2.2353,-2.2353,-2.2299,-2.2299,-2.2299,-2.2299,-2.2299,-2.2299,-2.2353,-2.2397,-2.2397,-2.253,-2.2715,-2.2485,-2.2652,-2.3013,-2.2838,-2.2882,-2.3057,-2.3057,-2.3091,-2.3091,-2.3091,-2.3091,-2.3309,-2.4241,-2.4498,-2.4701,-2.5579,-2.5872,-2.6163,-2.701,-2.7886,-2.851,-2.851,-2.851,-2.851,-2.851,-2.851,-2.851,-2.851,-2.851,-2.851,-2.851,-2.851,-2.851,-2.851,-2.851,-2.851,-2.851,-2.851,-2.851,-2.851,-2.851,-2.851,-2.851,-2.851,-2.851,-2.851,-2.851,-2.8578,-2.8764,-2.8578,-2.851,-2.851,-2.851,-2.851,-2.851,-2.851,-2.851,0.0,0.0,0.0,0.0,-1.773,0.0,-1.599,-1.5445,-1.4964,-1.4325,-1.4355,-1.4536,-1.4596,-1.4803,-1.5028,-1.5082,-1.5095,-1.5231,-1.5711,-1.5784,-1.5784,-1.5784,-1.5784,-1.5784,-1.5784,-1.6723,-1.6951,-1.6157,-1.7956,-1.9567,-2.0619,-2.1633,-2.1722,-2.0754,-2.1633,-2.2043,-2.182,-2.182,-2.1954,-2.2141,-2.1954,-2.1963,-2.2141,-2.1954,-2.182,-2.182,-2.182,-2.182,-2.182,-2.182,-2.2043,-2.2397,-2.2397,-2.2432,-2.2485,-2.2441,-2.2441,-2.253,-2.2485,-2.2662,-2.2838,-2.2838,-2.2969,-2.3091,-2.3091,-2.3091,-2.3309,-2.4241,-2.4498,-2.4701,-2.5579,-2.637,-2.6969,-2.7144,-2.7886,-2.851,-2.851,-2.851,-2.851,-2.851,-2.851,-2.851,-2.851,-2.851,-2.851,-2.851,-2.851,-2.851,-2.851,-2.851,-2.851,-2.851,-2.851,-2.851,-2.851,-2.851,-2.851,-2.851,-2.851,-2.851,-2.851,-2.851,-2.851,-2.8538,-2.851,-2.851,-2.851,-2.851,-2.851,-2.851,-2.851,-2.851,0.0,0.0,0.0,-1.7176,0.0,0.0,0.0,-1.5068,-1.4776,-1.4321,-1.428,-1.4302,-1.4302,-1.4429,-1.4569,-1.4723,-1.4743,-1.4897,-1.5337,-1.5398,-1.5398,-1.5398,-1.5524,-1.5611,-1.5611,-1.6162,-1.6534,-1.6534,-1.7963,-1.9018,-1.9521,-2.0619,-2.0943,-2.0294,-2.1356,-2.183,-2.1696,-2.1696,-2.1785,-2.1919,-2.1785,-2.1776,-2.1919,-2.1785,-2.1696,-2.1696,-2.1696,-2.1696,-2.1696,-2.1696,-2.182,-2.2043,-2.2043,-2.2132,-2.222,-2.2087,-2.222,-2.2397,-2.2264,-2.2397,-2.2618,-2.2618,-2.2662,-2.2794,-2.2925,-2.3637,-2.4648,-2.5579,-2.5841,-2.6049,-2.6917,-2.7174,-2.7307,-2.7765,-2.8179,-2.851,-2.851,-2.851,-2.851,-2.851,-2.851,-2.851,-2.851,-2.851,-2.851,-2.851,-2.851,-2.851,-2.851,-2.851,-2.851,-2.851,-2.851,-2.851,-2.851,-2.851,-2.851,-2.851,-2.851,-2.851,-2.851,-2.851,-2.851,-2.851,-2.851,-2.851,-2.851,-2.851,-2.851,-2.851,-2.851,-2.851,0.0,0.0,0.0,0.0,0.0,-1.5899,0.0,0.0,0.0,-1.4482,-1.4286,-1.4166,0.0,0.0,0.0,0.0,0.0,0.0,0.0,-1.4841,0.0,-1.4995,-1.517,-1.5311,-1.5311,-1.5578,-1.6115,-1.7137,-1.8203,-1.8703,-1.8519,-1.9658,-2.0204,-2.0022,-2.0943,-2.1508,-2.1696,-2.1696,-2.1696,-2.1696,-2.1696,-2.1696,-2.1696,-2.1696,-2.1696,-2.1696,-2.1696,-2.1696,-2.1696,-2.1696,-2.1696,-2.1696,-2.1696,-2.183,-2.2008,-2.1785,-2.1954,-2.2264,-2.2097,-2.2176,-2.2353,-2.2353,-2.252,-2.2784,-2.296,-2.436,-2.5997,-2.6928,-2.7185,-2.7389,-2.8259,-2.7966,-2.7632,-2.8351,-2.851,-2.851,-2.851,-2.851,-2.851,-2.851,-2.851,-2.851,-2.851,-2.851,-2.851,-2.851,-2.851,-2.851,-2.851,-2.851,-2.851,-2.851,-2.851,-2.851,-2.851,-2.851,-2.851,-2.851,-2.851,-2.851,-2.851,-2.851,-2.851,-2.851,-2.851,-2.851,-2.851,-2.851,-2.851,-2.851,-2.851,-2.851,0.0,0.0,0.0,0.0,-1.5298,0.0,-1.5082,0.0,-1.465,-1.465,0.0,-1.4356,0.0,0.0,0.0,0.0,0.0,0.0,-1.4182,-1.4188,-1.4382,-1.4948,-1.5035,-1.5062,-1.5062,-1.5277,-1.5846,-1.6879,-1.811,-1.8427,-1.7512,-1.9293,-1.9886,-1.9018,-1.9931,-2.0853,-2.1687,-2.1696,-2.1696,-2.1696,-2.1696,-2.1696,-2.1696,-2.1696,-2.1696,-2.1696,-2.1696,-2.1696,-2.1696,-2.1696,-2.1696,-2.1696,-2.1696,-2.1741,-2.1741,-2.1687,-2.1731,-2.1785,-2.1731,-2.1919,-2.2141,-2.2141,-2.295,-2.392,-2.392,-2.4808,-2.5997,-2.6928,-2.7185,-2.7389,-2.8259,-2.8431,-2.8379,-2.8471,-2.851,-2.851,-2.851,-2.851,-2.851,-2.851,-2.851,-2.851,-2.851,-2.851,-2.851,-2.851,-2.851,-2.851,-2.851,-2.851,-2.851,-2.851,-2.851,-2.851,-2.851,-2.851,-2.851,-2.851,-2.851,-2.851,-2.851,-2.851,-2.851,-2.851,-2.851,-2.851,-2.851,-2.851,-2.851,-2.851,-2.851,-2.851,0.0,0.0,0.0,0.0,0.0,0.0,-1.5257,0.0,-1.4915,0.0,0.0,0.0,0.0,0.0,0.0,0.0,-1.4088,0.0,0.0,0.0,-1.4175,0.0,0.0,0.0,-1.4988,-1.5122,-1.5393,-1.6007,-1.6501,-1.6989,-1.7271,-1.8657,-1.9521,-1.9658,-2.0628,-2.132,-2.1696,-2.1696,-2.1696,-2.1696,-2.1696,-2.1696,-2.1696,-2.1696,-2.1696,-2.1696,-2.1696,-2.1696,-2.1696,-2.1696,-2.1696,-2.1696,-2.1696,-2.1696,-2.1696,-2.1696,-2.1696,-2.1696,-2.1696,-2.1776,-2.1963,-2.2511,-2.3149,-2.3963,-2.5136,-2.5891,-2.6607,-2.7672,-2.7966,-2.8059,-2.8391,-2.851,-2.851,-2.851,-2.851,-2.851,-2.851,-2.851,-2.851,-2.851,-2.851,-2.851,-2.851,-2.851,-2.851,-2.851,-2.851,-2.851,-2.851,-2.851,-2.851,-2.851,-2.851,-2.851,-2.851,-2.851,-2.851,-2.851,-2.851,-2.851,-2.851,-2.851,-2.851,-2.851,-2.851,-2.851,-2.851,-2.851,-2.851,-2.851,-2.851,-2.851,-1.6583,0.0,0.0,0.0,0.0,0.0,0.0,0.0,0.0,0.0,0.0,0.0,0.0,0.0,0.0,0.0,0.0,-1.4088,0.0,-1.4088,0.0,0.0,0.0,0.0,0.0,-1.4841,-1.493,-1.5144,-1.5572,-1.6211,-1.7133,-1.8187,-1.9247,-2.0249,-2.0952,-2.1454,-2.1696,-2.1696,-2.1696,-2.1696,-2.1696,-2.1696,-2.1696,-2.1696,-2.1696,-2.1696,-2.1696,-2.1696,-2.1696,-2.1696,-2.1696,-2.1696,-2.1696,-2.1696,-2.1696,-2.1696,-2.1696,-2.1696,-2.1696,-2.1696,-2.1865,-2.2799,-2.3444,-2.4168,-2.5902,-2.6782,-2.7366,-2.8167,-2.8471,-2.851,-2.851,-2.851,-2.851,-2.851,-2.851,-2.851,-2.851,-2.851,-2.851,-2.851,-2.851,-2.851,-2.851,-2.851,-2.851,-2.851,-2.851,-2.851,-2.851,-2.851,-2.851,-2.851,-2.851,-2.851,-2.851,-2.851,-2.851,-2.851,-2.851,-2.851,-2.851,-2.851,-2.851,-2.851,-2.851,-2.851,-2.851,-2.851,-2.851,-2.851,-2.851,-2.851,0.0,0.0,0.0,-1.5431,0.0,0.0,0.0,0.0,-1.5389,0.0,0.0,0.0,0.0,0.0,0.0,0.0,0.0,0.0,0.0,0.0,0.0,0.0,0.0,0.0,0.0,-1.4369,-1.4536,-1.4549,-1.5993,-1.6873,-1.6926,-1.8102,-1.9247,-2.0249,-2.0348,-2.0763,-2.1687,-2.1696,-2.1696,-2.1696,-2.1696,-2.1696,-2.1696,-2.1696,-2.1696,-2.1696,-2.1696,-2.1696,-2.1696,-2.1696,-2.1696,-2.1696,-2.1696,-2.1696,-2.1696,-2.1696,-2.1696,-2.1696,-2.1696,-2.1696,-2.1865,-2.2799,-2.3856,-2.4957,-2.5924,-2.7133,-2.8167,-2.8219,-2.8339,-2.851,-2.851,-2.851,-2.851,-2.851,-2.851,-2.851,-2.851,-2.851,-2.851,-2.851,-2.851,-2.851,-2.851,-2.851,-2.851,-2.851,-2.851,-2.851,-2.851,-2.851,-2.851,-2.851,-2.851,-2.851,-2.851,-2.851,-2.851,-2.851,-2.851,-2.851,-2.851,-2.851,-2.851,-2.851,-2.851,-2.851,-2.851,-2.851,-2.851,-2.851,-2.851,-2.851,0.0,0.0,-1.5389,-1.5389,0.0,0.0,0.0,0.0,0.0,0.0,0.0,0.0,0.0,0.0,0.0,0.0,0.0,0.0,0.0,0.0,0.0,0.0,0.0,0.0,0.0,0.0,-1.4396,-1.4783,-1.5349,-1.6387,-1.8087,-1.8586,-1.9567,-2.1186,-2.1221,-2.1365,-2.1696,-2.1696,-2.1696,-2.1696,-2.1696,-2.1696,-2.1696,-2.1696,-2.1696,-2.1696,-2.1696,-2.1696,-2.1696,-2.1696,-2.1696,-2.1696,-2.1696,-2.1696,-2.1696,-2.1696,-2.1696,-2.1696,-2.1696,-2.1696,-2.1865,-2.2799,-2.3347,-2.3856,-2.4967,-2.6038,-2.6887,-2.704,-2.7661,-2.8299,-2.8299,-2.8391,-2.851,-2.851,-2.851,-2.851,-2.851,-2.851,-2.851,-2.851,-2.851,-2.851,-2.851,-2.851,-2.851,-2.851,-2.851,-2.851,-2.851,-2.851,-2.851,-2.851,-2.851,-2.851,-2.851,-2.851,-2.851,-2.851,-2.851,-2.851,-2.851,-2.851,-2.851,-2.851,-2.851,-2.851,-2.851,-2.851,-2.851,-2.851,-2.851,-2.851,-1.5389,-1.5389,0.0,-1.5389,-1.5389,0.0,-1.5389,0.0,-1.5389,0.0,0.0,0.0,0.0,0.0,0.0,0.0,0.0,0.0,0.0,-1.4088,0.0,0.0,0.0,0.0,0.0,-1.4182,-1.4396,-1.4776,-1.4997,-1.6175,-1.849,-1.8724,-1.9712,-2.1642,-2.1696,-2.1696,-2.1696,-2.1696,-2.1696,-2.1696,-2.1696,-2.1696,-2.1696,-2.1696,-2.1696,-2.1696,-2.1696,-2.1696,-2.1696,-2.1696,-2.1696,-2.1696,-2.1696,-2.1696,-2.1696,-2.1696,-2.1696,-2.1696,-2.1696,-2.1696,-2.1865,-2.2799,-2.3096,-2.3357,-2.4755,-2.5652,-2.6268,-2.6741,-2.7458,-2.8111,-2.8179,-2.8299,-2.8431,-2.8471,-2.851,-2.851,-2.851,-2.851,-2.851,-2.851,-2.851,-2.851,-2.851,-2.851,-2.851,-2.851,-2.851,-2.851,-2.851,-2.851,-2.851,-2.851,-2.851,-2.851,-2.851,-2.851,-2.851,-2.851,-2.851,-2.851,-2.851,-2.851,-2.8691,-2.9063,-2.8703,-2.8691,-2.9076,-2.8691,-2.851,-2.851,-2.851,-2.851]},{"header":{"parameterUnit":"m.s-1","parameterCategory":1,"la1":30.6,"la2":29.2853,"lo1":-89.7004,"lo2":-87.6739,"dy":0.0162,"dx":0.0183,"nx":112,"ny":82,"refTime":"2023-11-06T06:00:00:Z","depth":0,"parameterNumber":3,"parameterNumberName":"V-component_of_WINDS"},"data":[0.0,0.0,0.0,0.0,0.0,0.0,0.0,0.0,0.0,0.0,0.0,0.0,0.0,0.0,0.0,0.0,0.0,0.0,0.0,0.0,0.0,0.0,0.0,0.0,0.0,0.0,0.0,0.0,0.0,0.0,0.0,0.0,0.0,0.0,0.0,0.0,0.0,0.0,0.0,0.0,0.0,0.0,0.0,0.0,0.0,0.0,0.0,0.0,0.0,0.0,0.0,0.0,0.0,0.0,0.0,0.0,0.0,0.0,0.0,0.0,0.0,0.0,0.0,0.0,0.0,0.0,0.0,0.0,0.0,0.0,0.0,0.0,0.0,0.0,0.0,0.0,0.0,0.0,0.0,0.0,0.0,0.0,0.0,0.0,0.0,0.0,0.0,0.0,0.0,0.0,1.2436,1.278,1.2684,1.249,1.2252,1.1593,1.1012,1.0602,0.0,0.0,0.0,0.0,0.0,0.0,0.0,0.0,0.0,0.0,0.0,0.0,0.0,0.0,0.0,0.0,0.0,0.0,0.0,0.0,0.0,0.0,0.0,0.0,0.0,0.0,0.0,0.0,0.0,0.0,0.0,0.0,0.0,0.0,0.0,0.0,0.0,0.0,0.0,0.0,0.0,0.0,0.0,0.0,0.0,0.0,0.0,0.0,0.0,0.0,0.0,0.0,0.0,0.0,0.0,0.0,0.0,0.0,0.0,0.0,0.0,0.0,0.0,0.0,0.0,0.0,0.0,0.0,0.0,0.0,0.0,0.0,0.0,0.0,0.0,0.0,0.0,0.0,0.0,0.0,0.0,0.0,0.0,0.0,0.0,0.0,0.0,0.0,0.0,0.0,0.0,0.0,0.0,0.0,0.0,0.0,0.0,0.0,0.0,0.0,0.0,0.0,0.0,0.0,1.3298,1.338,1.3769,1.3811,1.3292,1.2785,1.2318,1.186,0.0,0.0,0.0,0.0,0.0,0.0,0.0,0.0,0.0,0.0,0.0,0.0,0.0,0.0,0.0,0.0,0.0,0.0,0.0,0.0,0.0,0.0,0.0,0.0,0.0,0.0,0.0,0.0,0.0,0.0,0.0,0.0,0.0,0.0,0.0,0.0,0.0,0.0,0.0,0.0,0.0,0.0,0.0,0.0,0.0,0.0,0.0,0.0,0.0,0.0,0.0,0.0,0.0,0.0,0.0,0.0,0.0,0.0,0.0,0.0,0.0,0.0,0.0,0.0,0.0,0.0,0.0,0.0,0.0,0.0,0.0,0.0,0.0,0.0,0.0,0.0,0.0,0.0,0.0,0.0,0.0,0.0,0.0,0.0,0.0,0.0,0.0,0.0,0.0,0.0,0.0,0.0,0.0,0.0,0.0,0.0,0.0,0.0,0.0,0.0,0.0,0.0,0.0,1.3078,1.3782,1.3926,1.4154,1.4202,1.3968,1.349,1.2871,1.214,1.11,0.0,0.0,0.0,0.0,0.0,0.0,0.0,0.0,0.0,0.0,0.0,0.0,0.0,0.0,0.0,0.0,0.0,0.0,0.0,0.0,0.0,0.0,0.0,0.0,0.0,0.0,0.0,0.0,0.0,0.0,0.0,0.0,0.0,0.0,0.0,0.0,0.0,0.0,0.0,0.0,0.0,0.0,0.0,0.0,0.0,0.0,0.0,0.0,0.0,0.0,0.0,0.0,0.0,0.0,0.0,0.0,0.0,0.0,0.0,0.0,0.0,0.0,0.0,0.0,0.0,0.0,0.0,0.0,0.0,0.0,0.0,0.0,0.0,0.0,0.0,0.0,0.0,0.0,0.0,0.0,0.0,0.0,0.0,0.0,0.0,0.0,0.0,0.0,0.0,0.0,0.0,0.0,0.0,0.0,0.0,0.0,0.0,0.0,0.0,0.0,0.0,0.0,1.3789,1.4055,1.4268,1.4298,1.4298,1.4298,1.3815,1.315,1.2323,1.163,0.0,0.0,0.0,0.0,0.0,0.0,0.0,0.0,0.0,0.0,0.0,0.0,0.0,0.0,0.0,0.0,0.0,0.0,0.0,0.0,0.0,0.0,0.0,0.0,0.0,0.0,0.0,0.0,0.0,0.0,0.0,0.0,0.0,0.0,0.0,0.0,0.0,0.0,0.0,0.0,0.0,0.0,0.0,0.0,0.0,0.0,0.0,0.0,0.0,0.0,0.0,0.0,0.0,0.0,0.0,0.0,0.0,0.0,0.0,0.0,0.0,0.0,0.0,0.0,0.0,0.0,0.0,0.0,0.0,0.0,0.0,0.0,0.0,0.0,0.0,0.0,0.0,0.0,0.0,0.0,0.0,0.0,0.0,0.0,0.0,0.0,0.0,0.0,0.0,0.0,0.0,0.0,0.0,0.0,0.0,0.0,0.0,0.0,0.0,0.0,0.0,0.0,1.3881,1.4196,1.4268,1.4298,1.4298,1.4298,1.3815,1.3286,1.278,1.1657,0.0,0.0,0.0,0.0,0.0,0.0,0.0,0.0,0.0,0.0,0.0,0.0,0.0,0.0,0.0,0.0,0.0,0.0,0.0,0.0,0.0,0.0,0.0,0.0,0.0,0.0,0.0,0.0,0.0,0.0,0.0,0.0,0.0,0.0,0.0,0.0,0.0,0.0,0.0,0.0,0.0,0.0,0.0,0.0,0.0,0.0,0.0,0.0,0.0,0.0,0.0,0.0,0.0,0.0,0.0,0.0,0.0,0.0,0.0,0.0,0.0,0.0,0.0,0.0,0.0,0.0,0.0,0.0,0.0,0.0,0.0,0.0,0.0,0.0,0.0,0.0,0.0,0.0,0.0,0.0,0.0,0.0,0.0,0.0,0.0,0.0,0.0,0.0,0.0,0.0,0.0,0.0,0.0,0.0,0.0,0.0,0.0,0.0,0.0,0.0,0.0,0.0,1.4268,1.4687,0.0,1.4298,1.4232,1.4063,1.408,1.366,1.2602,0.0,0.0,0.0,0.0,0.0,0.0,0.0,0.0,0.0,0.0,0.0,0.0,0.0,0.0,0.0,0.0,0.0,0.0,0.0,0.0,0.0,0.0,0.0,0.0,0.0,0.0,0.0,0.0,0.0,0.0,0.0,0.0,0.0,0.0,0.0,0.0,0.0,0.0,0.0,0.0,0.0,0.0,0.0,0.0,0.0,0.0,0.0,0.0,0.0,0.0,0.0,0.0,0.0,0.0,0.0,0.0,0.0,0.0,0.0,0.0,0.0,0.0,0.0,0.0,0.0,0.0,0.0,0.0,0.0,0.0,0.0,0.0,0.0,0.0,0.0,0.0,0.0,0.0,0.0,0.0,0.0,0.0,0.0,0.0,0.0,0.0,0.0,0.0,0.0,0.0,0.0,0.0,0.0,0.0,0.0,0.0,0.0,0.0,0.0,0.0,0.0,0.0,1.4065,1.513,1.5607,0.0,1.5089,1.5079,1.457,1.4618,1.4229,1.3119,0.0,0.0,0.0,0.0,0.0,0.0,0.0,0.0,0.0,0.0,0.0,0.0,0.0,0.0,0.0,0.0,0.0,0.0,0.0,0.0,0.0,0.0,0.0,0.0,0.0,0.0,0.0,0.0,0.0,0.0,0.0,0.0,0.0,0.0,0.0,0.0,0.0,0.0,0.0,0.0,0.0,0.0,0.0,0.0,0.0,0.0,0.0,0.0,0.0,0.0,0.0,0.0,0.0,0.0,0.0,0.0,0.0,0.0,0.0,0.0,0.0,0.0,0.0,0.0,0.0,0.0,0.0,0.0,0.0,0.0,0.0,0.0,0.0,0.0,0.0,0.0,0.0,0.0,0.0,0.0,0.0,0.0,0.0,0.0,0.0,0.0,0.0,0.0,0.0,0.0,0.0,0.0,0.0,0.0,0.0,0.0,0.0,0.0,0.0,0.0,0.0,0.0,1.5076,1.643,1.7031,1.6011,1.6729,1.6918,1.5968,1.5443,1.4913,0.0,0.0,0.0,0.0,0.0,0.0,0.0,0.0,0.0,0.0,0.0,0.0,0.0,0.0,0.0,0.0,0.0,0.0,0.0,0.0,0.0,0.0,0.0,0.0,0.0,0.0,0.0,0.0,0.0,0.0,0.0,0.0,0.0,0.0,0.0,0.0,0.0,0.0,0.0,0.0,0.0,0.0,0.0,0.0,0.0,0.0,0.0,0.0,0.0,0.0,0.0,0.0,0.0,0.0,0.0,0.0,0.0,0.0,0.0,0.0,0.0,0.0,0.0,0.0,0.0,0.0,0.0,0.0,0.0,0.0,0.0,0.0,0.0,0.0,0.0,0.0,0.0,0.0,0.0,0.0,0.0,0.0,0.0,0.0,0.0,0.0,0.0,0.0,0.0,0.0,0.0,0.0,0.0,0.0,0.0,0.0,0.0,0.0,0.0,0.0,0.0,0.0,0.0,1.5133,1.6742,1.7639,1.7011,1.6952,1.6743,1.6293,1.6296,1.5722,1.4355,0.0,0.0,0.0,0.0,0.0,0.0,0.0,0.0,0.0,0.0,0.0,0.0,0.0,0.0,0.0,0.0,0.0,0.0,0.0,0.0,0.0,0.0,0.0,0.0,0.0,0.0,0.0,0.0,0.0,0.0,0.0,0.0,0.0,0.0,0.0,0.0,0.0,0.0,0.0,0.0,0.0,0.0,0.0,0.0,0.0,0.0,0.0,0.0,0.0,0.0,0.0,0.0,0.0,0.0,0.0,0.0,0.0,0.0,0.0,0.0,0.0,0.0,0.0,0.0,0.0,0.0,0.0,0.0,0.0,0.0,0.0,0.0,0.0,0.0,0.0,0.0,0.0,0.0,0.0,0.0,0.0,0.0,0.0,0.0,0.0,0.0,0.0,0.0,0.0,0.0,0.0,0.0,0.0,0.0,0.0,0.0,0.0,0.0,0.0,0.0,0.0,0.0,1.5665,1.7326,1.8304,1.7615,1.7523,1.7301,1.6743,1.6758,1.6266,1.5034,0.0,0.0,0.0,0.0,0.0,0.0,0.0,0.0,0.0,0.0,0.0,0.0,0.0,0.0,0.0,0.0,0.0,0.0,0.0,0.0,0.0,0.0,0.0,0.0,0.0,0.0,0.0,0.0,0.0,0.0,0.0,0.0,0.0,0.0,0.0,0.0,0.0,0.0,0.0,0.0,0.0,0.0,0.0,0.0,0.0,0.0,0.0,0.0,0.0,0.0,0.0,0.0,0.0,0.0,0.0,0.0,0.0,0.0,0.0,0.0,0.0,0.0,0.0,0.0,0.0,0.0,0.0,0.0,0.0,0.0,0.0,0.0,0.0,0.0,0.0,0.0,0.0,0.0,0.0,0.0,0.0,0.0,0.0,0.0,0.0,0.0,0.0,0.0,0.0,0.0,0.0,0.0,0.0,0.0,0.0,0.0,0.0,0.0,0.0,0.0,0.0,0.0,1.6442,1.8044,1.8885,1.7986,1.8297,1.8219,1.7354,1.7026,1.6641,1.6158,0.0,0.0,0.0,0.0,0.0,0.0,0.0,0.0,0.0,0.0,0.0,0.0,0.0,0.0,0.0,0.0,0.0,0.0,0.0,0.0,0.0,0.0,0.0,0.0,0.0,0.0,0.0,0.0,0.0,0.0,0.0,0.0,0.0,0.0,0.0,0.0,0.0,0.0,0.0,0.0,0.0,0.0,0.0,0.0,0.0,0.0,0.0,0.0,0.0,0.0,0.0,0.0,0.0,0.0,0.0,0.0,0.0,0.0,0.0,0.0,2.1876,0.0,0.0,0.0,0.0,0.0,0.0,0.0,0.0,0.0,0.0,0.0,0.0,0.0,0.0,0.0,0.0,0.0,0.0,0.0,0.0,0.0,0.0,0.0,0.0,0.0,0.0,0.0,0.0,0.0,0.0,0.0,0.0,0.0,0.0,0.0,0.0,0.0,0.0,0.0,0.0,0.0,1.6923,1.7916,1.8637,1.8738,1.8415,1.8113,1.7909,1.7568,1.7054,1.6307,1.5691,0.0,0.0,0.0,0.0,0.0,0.0,0.0,0.0,0.0,0.0,0.0,0.0,0.0,0.0,0.0,0.0,0.0,0.0,0.0,0.0,0.0,0.0,0.0,0.0,0.0,0.0,0.0,0.0,0.0,0.0,0.0,0.0,0.0,0.0,0.0,0.0,0.0,0.0,0.0,0.0,0.0,0.0,0.0,0.0,0.0,0.0,0.0,0.0,0.0,0.0,0.0,0.0,0.0,0.0,0.0,0.0,0.0,0.0,0.0,0.0,2.1952,0.0,0.0,0.0,0.0,0.0,0.0,0.0,0.0,0.0,0.0,0.0,0.0,0.0,0.0,0.0,0.0,0.0,0.0,0.0,0.0,0.0,0.0,0.0,0.0,0.0,0.0,0.0,0.0,0.0,0.0,0.0,0.0,0.0,0.0,0.0,0.0,0.0,0.0,0.0,0.0,1.6881,1.7688,1.8347,1.8563,1.8107,1.7792,1.7792,1.7517,1.7189,1.6769,1.6359,0.0,0.0,0.0,0.0,0.0,0.0,0.0,0.0,0.0,0.0,0.0,0.0,0.0,0.0,0.0,0.0,0.0,0.0,0.0,0.0,0.0,0.0,0.0,0.0,0.0,0.0,0.0,0.0,0.0,0.0,0.0,0.0,0.0,0.0,0.0,0.0,0.0,0.0,0.0,0.0,0.0,0.0,0.0,0.0,0.0,0.0,0.0,0.0,0.0,0.0,0.0,0.0,0.0,2.3497,2.3739,2.3817,2.3728,2.4073,2.4657,2.3494,2.3298,2.3734,2.2215,0.0,0.0,0.0,0.0,0.0,0.0,0.0,0.0,0.0,0.0,0.0,0.0,0.0,0.0,0.0,0.0,0.0,0.0,0.0,0.0,0.0,0.0,2.0949,2.0792,2.1006,2.1128,2.0719,0.0,0.0,0.0,0.0,0.0,0.0,0.0,0.0,0.0,0.0,0.0,1.6866,1.7518,1.8033,1.8033,1.7704,1.7505,1.7505,1.7358,1.7235,1.7235,1.7116,1.6934,0.0,0.0,0.0,0.0,0.0,0.0,0.0,0.0,0.0,0.0,0.0,0.0,0.0,0.0,0.0,0.0,0.0,0.0,0.0,0.0,0.0,0.0,0.0,0.0,0.0,0.0,0.0,0.0,0.0,0.0,0.0,0.0,2.4228,2.412,0.0,0.0,0.0,0.0,0.0,0.0,0.0,0.0,0.0,0.0,0.0,0.0,0.0,2.3476,2.3498,2.4689,2.5298,2.5298,2.6056,2.6645,2.7061,2.6621,2.6695,2.7153,2.6049,0.0,2.4036,2.3624,0.0,0.0,0.0,0.0,0.0,0.0,0.0,0.0,0.0,0.0,0.0,0.0,0.0,0.0,0.0,0.0,0.0,0.0,0.0,0.0,0.0,0.0,2.3342,2.3309,2.3016,2.2691,2.2621,2.0512,1.8767,1.9278,1.889,0.0,0.0,0.0,0.0,0.0,0.0,0.0,1.7577,1.769,1.7758,1.7758,1.7592,1.7505,1.7505,1.747,1.7461,1.7461,1.7436,1.7401,1.7392,1.7401,0.0,0.0,0.0,0.0,0.0,0.0,0.0,0.0,0.0,0.0,0.0,0.0,0.0,0.0,0.0,0.0,0.0,0.0,0.0,0.0,0.0,0.0,0.0,0.0,0.0,0.0,0.0,0.0,0.0,2.5158,2.5052,2.4933,2.46,2.4384,0.0,0.0,0.0,0.0,0.0,0.0,0.0,0.0,0.0,2.5081,2.5185,2.5428,2.5845,2.6443,2.6713,2.6725,2.7074,2.7358,2.7577,2.7345,2.737,2.7564,2.7127,2.659,2.5886,2.452,2.3891,2.3672,0.0,0.0,0.0,0.0,2.2664,2.3036,2.3368,2.3551,2.3624,2.3514,0.0,0.0,0.0,0.0,0.0,0.0,0.0,2.1938,0.0,0.0,2.3303,2.3694,2.3625,2.3372,2.3083,2.1644,2.0402,0.0,1.977,1.9123,1.8734,0.0,0.0,0.0,0.0,1.7706,1.7706,1.7784,1.7862,1.7862,1.7803,1.7769,1.7769,1.7666,1.7623,1.7623,1.7529,1.7529,1.7623,1.7529,1.7495,0.0,0.0,0.0,0.0,0.0,0.0,0.0,0.0,0.0,0.0,0.0,0.0,0.0,0.0,0.0,0.0,0.0,0.0,0.0,0.0,0.0,0.0,0.0,0.0,0.0,0.0,0.0,0.0,2.5535,2.5606,2.5382,2.5606,2.5641,0.0,0.0,0.0,0.0,0.0,0.0,2.6072,2.6046,2.6286,2.6906,2.6902,2.7129,2.7692,2.7828,2.7901,2.7901,2.7901,2.7963,2.8098,2.7963,2.7963,2.8086,2.7865,2.7779,2.7631,2.5586,2.4943,2.5087,2.4009,2.3818,2.4084,2.3891,2.3927,2.4192,2.4636,2.4898,2.4969,2.4826,2.4755,2.46,2.4,0.0,0.0,0.0,0.0,2.2625,2.3339,2.3511,2.3647,2.4191,2.4132,2.3829,2.343,2.2545,2.1744,0.0,2.0698,1.9966,1.9486,0.0,0.0,0.0,0.0,1.7784,1.7784,1.7896,1.8008,1.8008,1.8008,1.8008,1.8008,1.7862,1.7842,1.8003,1.7794,1.7828,1.8307,1.8022,1.7988,1.823,0.0,0.0,0.0,0.0,0.0,0.0,0.0,0.0,0.0,0.0,0.0,0.0,0.0,0.0,0.0,0.0,0.0,0.0,0.0,0.0,0.0,0.0,0.0,0.0,0.0,0.0,0.0,0.0,0.0,2.5606,2.5945,0.0,0.0,0.0,0.0,2.5875,2.6342,2.6636,2.6672,2.7115,2.7434,2.7471,2.795,2.8206,2.8244,2.876,2.9005,2.9005,2.9005,2.9275,2.9754,2.9239,2.9288,2.9717,2.8699,2.8346,2.8437,2.7115,2.66,2.6467,2.5135,2.5087,2.5688,2.4933,2.5123,2.5793,2.5793,2.584,2.5828,2.584,2.5312,2.4671,2.4636,2.4097,0.0,0.0,2.4565,2.4744,2.5533,2.5755,2.5755,2.5789,2.5016,2.4255,2.423,2.2863,2.1726,0.0,2.1526,2.1028,2.0996,0.0,1.977,1.9044,1.8395,1.7974,1.7974,1.7974,1.8008,1.8008,1.8008,1.8008,1.8008,1.7974,1.8269,1.8877,1.8327,1.8563,1.9933,1.9309,1.9166,1.9694,1.9727,0.0,0.0,0.0,0.0,0.0,0.0,0.0,0.0,0.0,0.0,0.0,0.0,0.0,0.0,0.0,0.0,0.0,0.0,0.0,0.0,0.0,0.0,0.0,0.0,0.0,0.0,0.0,0.0,2.584,2.6346,0.0,2.6343,2.6793,2.7111,2.7111,2.7406,2.7591,2.7591,2.8101,2.84,2.84,2.8948,2.926,2.926,2.9447,2.9546,2.9546,2.9546,2.9646,2.9833,2.9633,2.9646,2.9808,2.9422,2.9324,2.93,2.8463,2.7914,2.7542,2.6943,2.6954,2.7268,2.6991,2.7063,2.7254,2.6787,2.6698,2.6754,2.6405,2.6094,2.5873,2.5873,2.5558,2.5312,2.5571,2.5571,2.5535,2.584,2.591,2.591,2.591,2.5615,2.5247,2.489,2.403,2.328,2.3079,2.2158,2.1408,2.1325,2.1092,2.0645,1.9835,1.9507,1.9353,1.9353,1.9353,1.9187,1.8687,1.9088,1.8988,1.8076,1.8395,1.8754,1.8977,1.8787,1.9077,2.0074,1.9835,1.9802,1.9987,2.0409,2.0171,0.0,0.0,0.0,0.0,0.0,0.0,0.0,0.0,0.0,0.0,0.0,0.0,0.0,0.0,0.0,0.0,0.0,0.0,0.0,0.0,0.0,0.0,0.0,0.0,0.0,0.0,2.6392,2.6181,2.6898,2.7293,2.7088,2.7592,2.7901,2.7901,2.8199,2.8386,2.8386,2.8913,2.9176,2.9176,2.9591,2.9792,2.9792,2.9792,2.9792,2.9792,2.9792,2.9792,2.9792,2.9792,2.9792,2.9792,2.9792,2.9792,2.9767,2.9377,2.9001,2.8637,2.8088,2.7987,2.8109,2.8109,2.8109,2.801,2.7526,2.7449,2.7494,2.7165,2.6927,2.6776,2.6776,2.6546,2.6305,2.6305,2.6188,2.6119,2.6119,2.6119,2.6119,2.6119,2.5936,2.5688,2.5342,2.4835,2.4352,2.3993,2.2863,2.1951,2.1839,2.1639,2.1155,2.0312,2.0215,2.0161,1.9868,2.0096,2.0085,1.9595,1.9987,1.9901,1.8944,1.9011,1.9332,1.9846,1.9398,1.9661,2.0944,2.0452,2.0291,2.0516,2.0965,2.0762,1.9879,0.0,0.0,0.0,0.0,0.0,0.0,0.0,0.0,0.0,0.0,0.0,0.0,0.0,0.0,0.0,0.0,0.0,0.0,0.0,0.0,0.0,0.0,0.0,2.6005,2.6542,2.6948,2.677,2.7578,2.8049,2.7853,2.8037,2.816,2.816,2.8612,2.8913,2.8913,2.949,2.9792,2.9792,2.9792,2.9792,2.9792,2.9792,2.9792,2.9792,2.9792,2.9792,2.9792,2.9792,2.9792,2.9792,2.9792,2.9792,2.9792,2.9792,2.9792,2.9679,2.8586,2.816,2.816,2.816,2.8147,2.8134,2.8134,2.8122,2.8109,2.8109,2.7745,2.7306,2.7306,2.6964,2.6549,2.6524,2.6512,2.6512,2.6499,2.6499,2.6499,2.6499,2.6059,2.5624,2.5624,2.5222,2.4813,2.4813,2.3716,2.2757,2.277,2.2154,2.1388,2.0549,2.057,0.0,1.9529,2.0139,2.0655,2.059,2.0623,2.0623,2.0558,1.9814,1.9977,2.1491,2.0204,2.0365,2.2616,2.1207,2.0698,2.142,2.142,2.1471,2.1585,0.0,0.0,0.0,0.0,0.0,0.0,0.0,0.0,0.0,0.0,0.0,0.0,0.0,0.0,0.0,0.0,0.0,0.0,0.0,0.0,0.0,0.0,2.7055,2.6914,2.7074,2.736,2.7688,2.8287,2.8662,2.8587,2.9038,2.9327,2.9327,2.9465,2.9553,2.9553,2.9704,2.9792,2.9792,2.9792,2.9792,2.9792,2.9792,2.9792,2.9792,2.9792,2.9792,2.9792,2.9792,2.9792,2.9792,2.9792,2.9792,2.9792,2.9792,2.9792,2.9767,2.9453,2.9327,2.9327,2.9327,2.9063,2.8662,2.8662,2.8448,2.8109,2.8109,2.8009,2.7883,2.7883,2.777,2.757,2.7203,2.709,2.7002,2.66,2.6499,2.6499,2.6499,2.6373,2.626,2.626,2.5774,2.5385,2.5385,2.4736,2.4178,2.4094,2.3545,2.3011,2.2663,2.2339,0.0,2.1808,2.1963,2.1733,2.0719,2.1037,2.0942,1.9955,2.0107,2.0623,2.1553,2.1195,2.1502,2.2647,2.2285,2.213,2.2328,2.1827,2.1565,0.0,0.0,0.0,0.0,0.0,0.0,0.0,0.0,0.0,0.0,0.0,0.0,0.0,0.0,0.0,0.0,0.0,0.0,0.0,0.0,0.0,0.0,2.7482,2.7708,2.7946,2.7971,2.8097,2.8411,2.895,2.9289,2.9289,2.9804,3.0143,3.0143,3.0331,3.047,3.047,3.047,3.047,3.047,3.047,3.047,3.047,3.047,3.0357,3.0143,3.0143,3.0018,2.9792,2.9792,2.9792,2.9792,2.9792,2.9792,2.9792,2.9792,2.9792,0.0,0.0,0.0,0.0,0.0,2.9578,2.9289,2.9289,2.9076,2.8812,2.8812,2.8649,2.8448,2.8448,2.8285,2.8047,2.772,2.7632,2.7494,2.6977,2.6839,2.6788,2.6549,2.6499,2.6499,2.6499,2.6223,2.5996,2.5996,2.5724,0.0,2.5423,2.4696,2.4013,2.3571,2.355,2.3361,2.2773,2.3009,2.2849,2.1765,2.199,2.1896,2.1132,2.1101,0.0,0.0,0.0,2.1908,2.2347,2.2347,0.0,0.0,0.0,2.1908,2.2218,2.1834,0.0,0.0,2.1322,2.1069,0.0,0.0,0.0,0.0,0.0,0.0,0.0,0.0,0.0,0.0,0.0,0.0,0.0,0.0,0.0,0.0,2.7956,2.8435,2.8938,2.9026,2.9026,2.8988,2.9528,2.988,2.988,3.0382,3.0708,3.0708,3.1135,3.1386,3.1386,0.0,0.0,0.0,0.0,3.1386,3.1386,3.1386,3.116,3.0708,3.0708,3.0444,2.9967,2.9917,2.988,2.988,2.9817,2.9792,2.9792,2.9792,2.9792,2.983,2.9792,2.9792,2.9792,2.9792,2.9792,2.9792,2.9792,0.0,0.0,2.9792,2.9453,2.8988,2.8988,2.8687,2.8285,2.821,2.8197,2.8072,2.7519,2.7369,2.7231,2.6713,2.6587,2.6562,2.6512,2.6499,2.6499,2.6499,2.6499,2.6499,2.6499,2.5598,2.4636,2.3863,2.4345,2.4342,2.3107,2.3614,2.386,2.3242,0.0,0.0,2.3105,2.2377,2.2261,2.3047,2.2445,2.2044,2.2044,2.2044,2.2044,2.2044,2.2044,2.2384,2.3108,2.3108,2.3108,2.3078,2.1573,2.1195,0.0,0.0,0.0,0.0,0.0,0.0,0.0,0.0,0.0,0.0,0.0,0.0,0.0,0.0,0.0,2.8979,2.9145,2.9388,2.9796,2.9872,2.9808,2.9667,3.0118,3.0457,3.0457,3.0934,3.1248,3.1248,3.1336,3.1386,3.1386,3.1386,3.1386,3.1386,3.1386,3.1386,3.1386,3.1386,3.1336,3.1248,0.0,0.0,3.1072,3.0645,3.0457,3.0432,2.998,2.9792,2.9792,2.9792,2.9895,3.0049,2.9869,2.9792,2.9792,2.9792,2.9792,2.9792,2.9792,2.9792,2.9792,2.9792,2.9716,2.9628,2.9628,2.9553,0.0,2.8863,2.8737,2.8599,2.8084,2.7946,2.7808,2.7256,2.7165,2.704,2.6587,2.6499,2.6499,2.6499,2.6499,2.6499,2.6499,2.59,2.5382,2.5236,2.4953,2.4686,2.4432,2.4528,2.4382,2.3717,2.3296,2.304,2.304,2.2428,2.2372,2.3078,2.2944,2.2884,2.2884,2.2884,2.2884,2.2884,2.2884,2.2944,2.3108,2.3108,2.3108,2.3078,2.275,2.2641,0.0,0.0,0.0,0.0,0.0,0.0,0.0,0.0,0.0,0.0,0.0,2.8302,0.0,0.0,2.9202,2.9447,2.9766,3.001,3.0216,3.0254,3.0152,2.983,3.0281,3.062,3.062,3.1336,3.18,3.18,3.2064,3.2227,3.2227,3.2227,3.2227,3.2227,3.2227,3.2311,3.2394,3.2394,3.2326,3.2171,3.2048,3.1909,3.1739,3.1244,3.0979,3.0899,3.0503,3.0264,3.0113,3.0113,3.0152,3.0228,3.0152,3.0049,2.9934,2.983,2.9792,2.9792,2.9792,2.9792,2.9792,2.9792,2.9792,2.9792,2.9792,2.9792,2.9729,2.944,2.9365,2.9239,2.8662,2.8511,2.8386,2.7821,2.7695,2.7544,2.7027,2.6901,2.6826,2.6549,2.6499,2.6499,2.6499,2.6248,2.6059,2.6059,2.5799,2.5536,2.5247,2.5209,2.4966,2.4365,2.4062,2.3902,2.3902,2.3366,2.3059,2.309,2.3108,2.3108,2.3108,2.3108,2.3108,2.3108,2.3108,2.3108,2.3108,2.3108,2.3108,2.3108,2.3108,2.3047,0.0,0.0,0.0,0.0,0.0,0.0,0.0,0.0,2.8939,2.8823,2.8888,2.8965,2.8965,2.9428,2.9814,2.9814,3.0187,3.0482,3.0444,3.0534,3.0497,3.0136,3.0511,3.0849,3.0962,3.1854,3.2378,3.2378,3.2847,3.3154,3.3154,3.3154,3.3197,3.324,3.3197,3.324,3.3484,3.3484,3.3326,3.3046,3.288,3.2692,3.2395,3.1927,3.1635,3.1522,3.1107,3.0738,3.0406,3.0444,3.0444,3.0444,3.0444,3.0381,3.0203,2.9972,2.9908,2.9869,2.9869,2.983,2.9792,2.9869,2.9869,2.9869,2.9895,2.9908,2.9869,2.9895,2.9869,2.9691,2.9252,2.9089,2.8925,2.8398,2.826,2.8084,2.7419,2.7281,2.7153,2.66,2.6521,2.6521,2.6521,2.6568,2.6568,2.6499,2.6499,2.6323,2.5858,2.5762,2.5598,2.5184,2.5046,2.4901,2.48,2.4406,2.3954,2.3459,2.3333,2.3271,2.3271,2.3158,2.3108,2.3108,2.3108,2.3108,2.3108,2.3108,2.3108,2.3108,2.3221,2.3208,2.8978,2.9166,2.9127,2.9025,2.948,2.9829,0.0,0.0,2.9829,2.9343,2.9608,2.9923,2.9923,3.0429,3.082,3.082,3.091,3.0874,3.0698,3.1061,3.1293,3.1072,3.1345,3.1797,3.2333,3.2743,3.298,3.298,3.3245,3.3356,3.3356,3.3356,3.3441,3.3641,3.3484,3.3484,3.367,3.367,3.3645,3.3623,3.3581,3.3555,3.3508,3.2966,3.2698,3.2636,3.1597,3.0881,3.0406,3.0571,3.066,3.066,3.066,3.066,3.0622,3.0406,3.0228,3.0075,3.0075,2.9934,2.983,3.0011,3.0075,3.0113,3.0292,3.0228,3.0113,3.0292,3.0075,2.9818,2.9935,2.9833,2.9553,2.8938,2.88,2.8512,2.7507,2.7281,2.7153,2.66,2.6589,2.6692,2.6692,2.6841,2.6841,2.6521,2.6499,2.6474,2.6411,2.6399,2.6373,2.6311,2.5812,2.5322,2.4825,2.4725,2.4675,2.46,2.4167,2.3904,2.3904,2.3384,2.3108,2.3108,2.3108,2.3108,2.3108,2.3108,2.3108,2.3108,2.3665,2.3597,2.9723,3.0068,3.0286,0.0,3.0431,3.0568,3.0333,3.0451,3.0555,3.032,3.0464,3.062,3.062,3.083,3.0986,0.0,3.0986,3.0986,3.0874,3.1317,3.1759,3.2058,3.2362,3.2636,3.2784,3.3182,3.3441,3.3441,3.3513,3.3556,3.3556,3.3556,3.3598,3.3713,3.3641,3.3683,3.3937,3.3937,3.3979,3.4105,3.3979,3.3979,3.4092,3.3595,3.3283,3.3034,3.1978,3.1422,3.1189,3.0979,3.0874,3.0874,3.0874,3.0874,3.0849,3.052,3.0368,3.0254,3.0254,3.0228,3.0152,3.0254,3.0254,3.0292,3.0368,3.033,3.0292,3.0368,3.0292,3.019,3.0254,3.0228,3.0088,2.9847,2.9504,2.9046,2.8295,2.785,2.7421,2.6922,2.6841,2.6863,2.6863,2.6943,2.6956,2.6807,2.6773,2.6773,2.6773,2.6773,2.6773,2.6773,2.6557,2.6189,2.5643,2.5592,2.5452,2.5109,2.4817,2.4691,2.4741,2.445,2.4292,2.4373,2.4373,2.4373,2.4373,2.4292,2.4261,2.4273,2.4387,2.4311,3.0664,3.1178,0.0,3.1415,3.1355,3.1259,3.1061,3.0986,3.0986,3.0986,3.0986,3.0986,3.0986,3.0986,3.0986,3.0986,3.0986,3.1039,3.1196,3.1718,3.2254,3.2868,3.3281,3.3454,3.3318,3.3566,3.3713,3.3713,3.3768,3.381,3.381,3.381,3.3852,3.3882,3.3852,3.3937,3.4202,3.4202,3.4285,3.4397,3.4243,3.4285,3.4397,3.4063,3.3682,3.3277,3.2606,3.2098,3.1771,3.1392,3.113,3.0986,3.0986,3.0986,3.0949,3.0672,3.052,3.0482,3.0482,3.0444,3.0406,3.0444,3.0482,3.0482,3.0558,3.052,3.0482,3.0558,3.0482,3.0406,3.0482,3.0444,3.0368,3.0214,2.983,2.9294,2.86,2.8113,2.7652,2.7092,2.7045,2.7079,2.7079,2.7113,2.7146,2.7146,2.7146,2.7113,2.7024,2.699,2.699,2.699,2.699,2.6857,2.6447,2.6409,2.6229,2.5794,2.5543,2.5454,2.5538,2.5301,2.5211,2.5294,2.5294,2.5294,2.5294,2.5211,2.5148,2.5097,2.51,2.5066,3.2019,0.0,3.2967,3.2241,3.2074,3.1882,3.1161,3.0986,3.0986,3.0986,3.0986,3.0986,3.0986,3.0986,3.0986,3.0986,3.0986,3.1182,3.1693,3.2306,3.2894,3.3496,3.4045,3.4371,0.0,3.3966,3.3713,3.3713,3.3937,3.4076,3.4076,3.4076,3.4202,3.4356,3.4202,3.4202,3.4397,3.4397,3.4397,3.4397,3.4397,3.4397,3.4397,3.4397,3.411,3.3587,3.3548,3.2894,3.1797,3.1784,3.1445,3.0986,3.0986,3.0986,3.0986,3.0986,3.0836,3.0698,3.0698,3.0571,3.0444,3.0622,3.0698,3.0736,3.0911,3.0849,3.0736,3.0911,3.071,3.0444,3.066,3.0533,3.0265,2.9652,2.9498,2.9178,2.8087,2.7818,2.7652,2.7092,2.7146,2.7302,2.7302,2.7403,2.7503,2.7503,2.7503,2.7369,2.7045,2.699,2.699,2.699,2.699,2.6977,2.6998,2.6998,2.6952,2.6939,2.646,2.6185,2.6185,2.5602,2.5294,2.5294,2.5294,2.5294,2.5294,2.5294,2.5243,2.5097,2.5643,2.5752,3.164,0.0,3.2304,3.1529,3.1736,3.1905,3.1161,3.1371,3.1603,3.1086,3.0986,3.0986,3.0986,3.0986,3.0986,3.0986,3.0986,3.1395,3.253,3.3131,3.3941,3.5109,3.5725,0.0,0.0,0.0,0.0,3.4134,3.423,3.4314,3.4314,3.4314,3.4314,3.4397,3.4314,3.4314,3.4397,3.4397,3.4397,3.4397,3.4397,3.4397,3.4397,3.4397,3.4293,3.411,3.3744,3.3365,3.2947,3.2124,3.1693,3.1522,3.113,3.0986,3.0986,3.0986,3.0949,3.0911,3.0911,3.0836,3.0798,3.0874,3.0911,3.0911,3.0986,3.0949,3.0911,3.0986,3.0911,3.0798,3.0874,3.0836,3.0655,3.0047,2.9619,2.9162,2.8369,2.7867,2.7556,2.7374,2.7403,2.7436,2.7436,2.7469,2.749,2.749,2.749,2.7469,2.7335,2.7335,2.7335,2.7335,2.7335,2.7335,2.7335,2.7335,2.7335,2.7335,2.71,2.695,2.705,2.6789,2.6653,2.6752,2.6752,2.6752,2.6752,2.6653,2.6587,2.6567,2.6606,2.6515,3.2448,3.2733,3.3087,3.2028,3.2137,3.2232,3.1235,3.1371,3.1566,3.1086,3.0986,3.0986,3.0986,3.1235,3.1296,3.1048,3.1222,3.1779,3.2891,3.3536,3.4413,3.5849,3.6515,3.688,0.0,0.0,0.0,3.5291,3.5291,3.5182,3.4868,3.5142,3.5019,3.4439,3.4716,3.4716,3.4397,3.4397,3.4397,3.4397,3.4397,3.4397,3.4397,3.4397,3.4397,3.4384,3.4031,3.377,3.3522,3.2542,3.198,3.1745,3.1209,3.0986,3.0986,3.0986,3.0986,3.0986,3.0986,3.0986,3.0986,3.0986,3.0986,3.0986,3.0986,3.0986,3.0986,3.0986,3.0986,3.0986,3.0986,3.083,3.0542,2.9967,2.9379,2.8791,2.8203,2.7785,2.749,2.749,2.749,2.749,2.749,2.749,2.749,2.749,2.749,2.749,2.749,2.749,2.749,2.749,2.749,2.749,2.749,2.749,2.749,2.749,2.7436,2.7403,2.749,2.7436,2.7403,2.749,2.749,2.749,2.749,2.7403,2.7335,2.7302,2.718,2.6964,3.4279,3.4839,3.5082,3.3541,3.3178,3.2875,3.1334,3.1061,3.1086,3.1024,3.0986,3.0986,0.0,0.0,3.1882,3.1161,3.1676,3.2364,3.3026,3.3649,3.4513,0.0,0.0,0.0,0.0,0.0,0.0,3.7035,0.0,3.6582,3.5776,3.6503,3.6188,3.4592,3.5345,3.5345,3.4551,3.4522,3.4522,3.4481,3.4481,3.4481,3.4481,3.4439,3.4397,3.4397,3.4397,3.411,3.3587,3.2947,3.2372,3.1784,3.1222,3.0986,3.0986,3.0986,3.0986,3.0986,3.0986,3.0986,3.0986,3.0986,3.0986,3.0986,3.0986,3.0986,3.0986,3.0986,3.0986,3.0986,3.0986,3.0555,2.9957,2.9418,2.8852,2.8216,2.762,2.749,2.749,2.749,2.749,2.749,2.749,2.749,2.749,2.749,2.749,2.749,2.749,2.749,2.749,2.749,2.749,2.749,2.749,2.749,2.749,2.749,2.749,2.749,2.749,2.749,2.749,2.749,2.749,2.749,2.749,2.749,2.7436,2.7302,2.7328,2.7138,3.3782,3.4007,3.4259,3.2741,3.3199,3.3478,3.1468,3.1859,3.2318,3.1235,3.0986,3.0986,0.0,0.0,0.0,3.1846,3.2448,0.0,3.454,3.5289,0.0,3.7598,0.0,3.8745,3.8745,3.8745,0.0,0.0,3.7601,3.6802,3.6621,3.6802,3.6685,3.6267,3.6464,3.6503,3.6267,3.6267,3.5963,3.5386,3.5386,3.5386,3.5345,3.4716,3.4397,3.4397,3.4397,3.4319,3.411,3.3104,3.2607,3.2372,3.1378,3.0986,3.0986,3.0986,3.0986,3.0986,3.0986,3.0986,3.0986,3.0986,3.0986,3.0986,3.0986,3.0986,3.0986,3.0986,3.0986,3.0986,3.0986,3.0555,2.9957,2.9418,2.8852,2.8216,2.762,2.749,2.749,2.749,2.749,2.749,2.749,2.749,2.749,2.749,2.749,2.749,2.749,2.749,2.749,2.749,2.749,2.749,2.749,2.749,2.749,2.749,2.749,2.749,2.749,2.749,2.749,2.749,2.749,2.749,2.749,2.749,2.7503,2.7469,2.79,2.7993,3.4438,3.4524,3.4543,3.3374,3.3685,3.3891,3.2304,3.2591,3.2875,3.1713,3.175,0.0,3.1123,3.2123,0.0,0.0,0.0,0.0,3.4757,3.5697,3.6708,0.0,3.8826,0.0,3.9388,3.9388,3.9388,0.0,3.8546,3.7843,3.7501,3.7805,3.7677,3.6919,3.7256,3.7295,3.688,3.688,3.666,3.6241,3.6241,3.6241,3.6201,3.5722,3.5291,3.495,3.495,3.4758,3.4332,3.3443,3.2934,3.2607,3.1705,3.1209,3.0986,3.0986,3.0986,3.0986,3.0986,3.0986,3.0986,3.0986,3.0986,3.0986,3.0986,3.0986,3.0986,3.0986,3.0986,3.0986,3.0986,3.0372,2.968,2.9353,2.8634,2.7915,2.7555,2.749,2.749,2.749,2.749,2.749,2.749,2.749,2.749,2.749,2.749,2.749,2.749,2.749,2.749,2.749,2.749,2.749,2.749,2.749,2.749,2.749,2.749,2.749,2.749,2.749,2.749,2.749,2.749,2.749,2.749,2.7785,2.7902,2.7915,2.8503,2.8708,3.5504,3.5504,3.5326,3.4495,3.438,3.4259,3.3388,3.3297,3.3143,3.2398,0.0,3.2804,3.1505,3.2918,3.3891,3.2599,0.0,3.448,3.448,3.5638,3.6731,3.737,3.8601,3.9388,3.9388,3.9388,3.9388,3.9388,3.9388,3.9119,3.8389,3.9031,3.8745,3.7281,3.7985,3.7947,3.7088,3.7165,3.7165,3.7088,3.7088,3.7088,3.7088,3.6958,3.6503,3.5856,3.5856,3.5426,3.4664,3.4041,3.3422,3.2778,3.2058,3.1445,3.0986,3.0986,3.0986,3.0986,3.0986,3.0986,3.0986,3.0986,3.0986,3.0986,3.0986,3.0986,3.0986,3.0986,3.0986,3.0986,3.0986,3.0137,2.931,2.931,2.8386,2.749,2.749,2.749,2.749,2.749,2.749,2.749,2.749,2.749,2.749,2.749,2.749,2.749,2.749,2.749,2.749,2.749,2.749,2.749,2.749,2.749,2.749,2.749,2.749,2.749,2.749,2.749,2.749,2.749,2.749,2.749,2.749,2.8111,2.842,2.8433,2.9078,2.9308,3.5504,3.5504,3.5326,3.4495,3.4791,3.492,3.3506,3.3665,0.0,0.0,3.3108,3.3108,3.2875,3.3616,3.4211,3.3959,0.0,0.0,0.0,0.0,3.7488,0.0,0.0,0.0,0.0,3.9388,0.0,0.0,3.9388,3.9352,3.9192,3.9301,3.9265,3.898,3.9104,3.8811,3.8,3.8634,3.8634,3.7947,3.7947,3.7947,3.7947,3.7218,3.6802,3.6699,3.6699,0.0,3.6369,3.5097,3.4226,3.358,3.2316,3.1445,3.0986,3.0986,3.0986,3.0986,3.0986,3.0986,3.0986,3.0986,3.0986,3.0986,3.0986,3.0986,3.0986,3.0986,3.0986,3.0986,3.0986,3.0137,2.931,2.931,2.8386,2.749,2.749,2.749,2.749,2.749,2.749,2.749,2.749,2.749,2.749,2.749,2.749,2.749,2.749,2.749,2.749,2.749,2.749,2.749,2.749,2.749,2.749,2.749,2.749,2.749,2.749,2.749,2.749,2.749,2.749,2.749,2.749,2.8111,2.842,2.8446,2.9483,2.9944,3.5504,3.5504,3.5392,3.5019,3.5198,3.5326,3.4572,0.0,0.0,0.0,3.4172,3.4187,3.3471,3.4279,0.0,0.0,0.0,0.0,0.0,0.0,0.0,0.0,0.0,0.0,0.0,3.9711,3.9676,3.9553,3.9661,3.964,3.9424,3.9481,3.9589,3.9711,3.9589,3.9358,3.898,3.9265,3.9192,3.8811,3.8811,3.8811,3.8811,3.8397,3.7956,3.7591,3.7591,3.7333,3.6866,3.6145,3.5339,3.4444,3.3769,3.2952,3.2101,3.1713,3.1566,3.1505,3.1123,3.0986,3.0986,3.0986,3.0986,3.0986,3.0986,3.0986,3.0986,3.0986,3.0986,3.0986,3.0986,3.0137,2.931,2.931,2.8386,2.749,2.749,2.749,2.749,2.749,2.749,2.749,2.749,2.749,2.749,2.749,2.749,2.749,2.749,2.749,2.749,2.749,2.749,2.749,2.749,2.749,2.749,2.749,2.749,2.749,2.749,2.749,2.749,2.749,2.749,2.749,2.749,2.8412,2.8878,2.8917,3.0032,3.0581,3.5504,3.5504,3.5504,3.5504,3.5504,3.5504,3.5504,3.5504,0.0,0.0,3.5184,3.5213,3.4206,0.0,3.5512,0.0,0.0,0.0,0.0,0.0,0.0,0.0,0.0,0.0,0.0,3.992,0.0,3.9768,3.9925,3.9854,3.9532,3.9661,3.9839,4.0011,3.9839,3.9768,3.9768,3.9589,3.9532,3.9532,3.9532,3.9532,3.9532,3.9532,3.9156,3.8538,3.8538,3.8098,3.7434,3.7242,3.6458,3.5354,3.5184,3.4323,3.3108,3.2541,3.2326,3.2254,3.1676,3.1482,3.1482,3.1482,3.1272,3.0986,3.0986,3.0986,3.0986,3.0986,3.0986,3.0986,3.0986,3.0228,2.9392,2.9179,2.8281,2.749,2.749,2.749,2.749,2.749,2.749,2.749,2.749,2.749,2.749,2.749,2.749,2.749,2.749,2.749,2.749,2.749,2.749,2.749,2.749,2.749,2.749,2.749,2.749,2.749,2.749,2.749,2.749,2.749,2.749,2.749,2.749,2.8712,2.931,2.9349,3.0451,3.0986,3.5504,3.5504,3.5504,3.5504,3.5504,3.5504,3.5504,0.0,0.0,3.5591,3.5557,3.5554,3.5735,3.572,0.0,0.0,0.0,3.6179,0.0,0.0,0.0,0.0,0.0,0.0,0.0,3.9646,3.9996,3.996,3.9996,3.996,3.994,3.996,3.996,4.0011,3.996,3.996,3.996,3.996,3.9925,3.9925,3.9925,3.9925,3.9925,3.9925,3.9803,3.9574,3.9574,3.9394,0.0,3.8375,3.7308,3.6114,3.539,3.4323,3.3178,3.3108,3.3108,3.3073,3.3017,3.3017,3.3017,3.3017,3.2101,3.0986,3.0986,3.0986,3.0986,3.0986,3.0986,3.0986,3.0986,3.0529,2.9748,2.8712,2.7981,2.749,2.749,2.749,2.749,2.749,2.749,2.749,2.749,2.749,2.749,2.749,2.749,2.749,2.749,2.749,2.749,2.749,2.749,2.749,2.749,2.749,2.749,2.749,2.749,2.749,2.749,2.749,2.749,2.749,2.749,2.749,2.749,2.8712,2.931,2.9349,3.0451,3.0986,3.5504,3.5504,3.5504,3.5504,3.5504,3.5504,3.5504,0.0,3.5554,3.5846,3.5735,3.5718,3.6053,3.6038,3.6038,0.0,0.0,0.0,0.0,0.0,0.0,0.0,0.0,0.0,0.0,0.0,4.0296,4.0296,4.0242,4.0207,4.0296,4.0226,4.0242,4.0296,4.0242,4.0172,4.0172,4.0066,4.0011,4.0011,4.0011,4.0011,4.0011,4.0011,3.996,3.9889,3.9768,3.9646,0.0,3.8674,3.7769,3.6896,3.6215,3.5375,3.4539,3.4056,3.3871,3.3802,3.3353,3.3178,3.3178,3.3178,3.2804,3.2318,3.2318,3.2318,3.2318,3.2318,3.1992,3.1736,3.2209,3.1902,3.1046,2.9409,2.8853,2.8585,2.8171,2.7776,2.749,2.749,2.7842,2.8105,2.8105,2.8105,2.8105,2.8105,2.7756,2.749,2.749,2.749,2.749,2.749,2.749,2.749,2.749,2.749,2.749,2.749,2.749,2.749,2.749,2.749,2.749,2.749,2.749,2.7659,2.8033,2.8882,2.9457,2.981,3.0607,3.0986,3.5504,3.5504,3.5504,3.5504,3.5504,3.5504,0.0,0.0,3.5668,3.6005,3.5926,3.5894,3.6211,3.6242,3.6211,0.0,0.0,3.6492,3.6492,0.0,0.0,0.0,0.0,3.8477,0.0,3.9982,4.0489,4.0489,4.0401,4.0401,4.0489,4.0401,4.0401,4.0489,4.0401,4.0366,4.0366,4.0242,4.0137,4.0137,4.0137,4.0137,4.0137,4.0137,4.0137,4.0051,3.9662,3.9466,0.0,3.8447,3.7719,3.709,3.6656,3.6088,3.5424,3.4872,3.4662,3.4647,3.4109,3.3973,3.4007,3.3973,3.3939,3.3939,3.3885,3.3575,3.3178,3.3178,3.2826,3.2541,3.3073,3.2798,3.2055,3.0606,3.019,2.9962,2.9484,2.9009,2.8679,2.8679,2.9062,2.9333,2.9141,2.9082,2.8962,2.8573,2.8105,2.7809,2.7809,2.7809,2.7809,2.7809,2.7809,2.7723,2.7523,2.749,2.749,2.749,2.749,2.749,2.749,2.749,2.7568,2.7771,2.7785,2.8059,2.8682,2.9248,2.9745,3.0113,3.0725,3.0986,3.5504,3.5504,3.5504,3.5504,3.5504,3.5522,0.0,3.5688,3.5784,3.6148,3.6085,3.61,3.6429,3.6352,3.6274,3.646,0.0,0.0,3.6492,3.6492,0.0,0.0,0.0,3.7769,3.8462,3.9705,4.0489,4.0489,4.0489,0.0,4.0489,4.0489,4.0489,4.0489,4.0489,4.0489,4.0489,4.0505,4.0489,4.0489,4.0489,4.0489,4.0489,4.0489,4.0436,4.0231,3.9371,3.891,0.0,3.7773,3.7045,3.6492,3.6492,3.6088,3.5504,3.5504,3.5572,3.5688,3.5688,3.5799,3.5941,3.5752,3.5688,3.5671,3.5522,3.4404,3.3178,3.3178,3.3178,3.3178,3.3178,3.2798,3.2402,3.2354,3.1923,3.1486,3.1472,3.1472,3.1472,3.1472,3.1472,3.126,3.0594,3.0481,3.0029,2.8692,2.8481,2.8481,2.8481,2.8481,2.8481,2.8481,2.8481,2.8222,2.7556,2.749,2.749,2.749,2.749,2.749,2.749,2.749,2.7798,2.8394,2.8407,2.8708,2.931,2.9849,3.0087,3.0113,3.0725,3.0986,3.5504,3.5504,3.5537,3.5621,3.5653,3.5671,3.5863,3.5894,3.5958,3.6164,3.6179,3.6211,3.646,3.646,3.6414,3.6492,3.6492,0.0,0.0,0.0,0.0,3.6492,3.7507,3.8462,0.0,0.0,4.0489,4.0489,4.0489,4.0489,4.0489,4.0489,4.0489,4.0489,4.0489,4.0489,4.0489,4.0489,4.0489,4.0489,4.0489,4.0259,3.9797,3.9797,3.9551,3.9039,3.8626,3.8434,3.8287,3.7482,3.699,3.6811,3.6328,3.6042,3.5829,3.5686,3.575,3.5894,3.5752,3.5831,3.6005,3.5941,3.5831,3.5688,3.5638,3.5216,3.4673,3.4124,3.4341,3.4539,3.3471,3.3858,3.4277,3.3301,3.299,3.2749,3.2288,3.1799,3.1486,3.1486,3.1878,3.2129,3.1881,3.1884,3.1717,3.1293,3.0829,3.055,3.055,3.055,3.055,3.055,3.0121,2.9161,2.7622,2.749,2.749,2.749,2.749,2.7659,2.8098,2.8111,2.8386,2.9022,2.9035,2.9274,2.9862,3.0009,3.0296,3.0725,3.0895,3.0986,0.0,3.5504,3.5522,3.5671,3.5688,0.0,3.6022,3.6068,3.6116,3.6274,3.6305,3.6352,3.6492,3.6492,3.6492,3.6492,3.6492,0.0,0.0,0.0,0.0,3.6492,0.0,0.0,0.0,3.9721,4.0213,4.0474,4.0489,4.0489,4.0489,4.0489,4.0489,4.0489,4.0489,4.0489,4.0489,4.0489,4.0489,4.0489,4.0228,3.989,3.9474,3.9262,3.8875,3.846,3.8019,3.7831,0.0,3.6949,3.6626,3.658,3.614,3.6005,3.5973,3.5863,3.5926,3.6053,3.5911,3.6022,3.6178,3.61,3.5926,3.5688,3.5688,3.5604,3.5392,3.4905,3.5118,3.5294,3.4322,3.4787,3.5287,3.4401,3.4218,3.4147,3.3721,3.3296,3.3017,3.3017,3.3343,3.3544,3.3294,3.325,3.3098,3.2582,3.2123,3.1878,3.1878,3.1878,3.1878,3.1878,3.1472,3.0502,2.8745,2.8347,2.819,2.819,2.819,2.8347,2.8734,2.876,2.9,2.9588,2.9601,2.9889,3.0451,3.0451,3.0634,3.0986,3.0986,3.0986,0.0,3.5504,3.5554,0.0,0.0,0.0,3.6148,3.6211,0.0,3.646,3.6492,3.6492,3.6492,3.6492,3.6492,3.6492,3.6492,3.6523,0.0,3.6554,0.0,0.0,3.7092,0.0,3.8369,3.9046,3.9705,4.0366,4.0428,4.0443,4.0489,4.0489,4.0489,4.0489,4.0489,4.0489,4.0489,4.0489,4.0474,4.0413,3.9782,3.9428,3.9354,3.8723,3.8415,0.0,3.7516,3.7128,3.7082,3.6359,3.6037,3.6037,3.6037,3.6037,3.6037,3.6037,3.6085,3.6211,3.6196,3.6352,3.646,3.6274,3.5975,3.572,3.572,3.5604,3.5504,3.5504,3.5504,3.5504,3.5504,3.5504,3.5504,3.5504,3.5504,3.5504,3.5504,3.5504,3.5504,3.5504,3.5504,3.5295,3.4698,3.4578,3.4133,3.2913,3.2715,3.2715,3.2715,3.2715,3.2715,3.2715,3.2652,3.209,3.0706,2.9851,2.9345,2.931,2.931,2.9336,2.9375,2.9375,2.9601,3.014,3.0153,3.0451,3.0986,3.0986,3.0986,3.0986,3.0986,3.0986,3.5504,0.0,3.5703,3.5863,3.6022,3.6148,0.0,3.6414,3.6445,3.6492,3.6492,3.6492,3.6492,3.6492,3.6492,3.6492,3.6492,3.6662,3.7118,0.0,0.0,3.6554,3.7092,3.7569,3.7723,3.8354,3.9031,3.9674,3.9721,3.9951,4.0459,4.0489,4.0489,4.0489,4.0489,4.0489,4.0489,4.0489,4.0228,3.9721,3.9567,3.897,3.7969,3.7815,3.7461,3.6953,3.6753,3.666,3.6644,3.6459,3.6398,3.6398,3.6398,3.6398,3.6352,3.6211,3.6274,3.6414,3.6242,3.6352,3.646,3.6274,3.6133,3.6038,3.5784,3.5604,3.5504,3.5504,3.5504,3.5504,3.5504,3.5504,3.5504,3.5504,3.5504,3.5504,3.5504,3.5504,3.5504,3.5504,3.5504,3.5444,3.5295,3.5265,3.5173,3.4847,3.4785,3.4785,3.4785,3.4785,3.4785,3.4785,3.4237,3.3528,3.2619,3.1082,2.9888,2.9345,2.931,2.947,2.9915,2.9892,3.0202,3.0777,3.079,3.0856,3.0986,3.0986,3.0986,3.0986,3.0986,3.0986,3.5911,3.5847,3.5752,3.5941,3.6085,3.6242,3.646,0.0,0.0,0.0,0.0,0.0,3.6861,3.6922,3.6922,3.6922,3.7148,0.0,0.0,0.0,3.7679,3.7356,3.7643,3.799,0.0,3.8388,3.8745,3.9414,3.9197,3.9216,3.9551,3.9859,4.0028,4.0028,4.0336,4.0489,4.0489,4.0182,3.9844,3.9474,3.8893,3.82,3.7492,3.7184,3.683,3.6492,3.6492,3.6492,3.6492,3.6492,3.6492,3.6492,3.6492,3.6492,3.6492,3.6383,3.6414,3.6492,3.6383,3.6414,3.6492,3.6383,3.6274,3.6179,3.5975,3.5767,3.5572,3.5537,3.5504,3.5504,3.5504,3.5504,3.5504,3.5504,3.5504,3.5504,3.5504,3.5504,3.5504,3.5504,3.5504,3.5504,3.5504,3.5504,3.5504,3.5504,3.5504,3.5504,3.5504,3.5504,3.5504,3.5504,3.51,3.4543,3.3768,3.2752,3.1612,3.0168,3.0394,3.0563,3.0503,3.0516,3.0673,3.0973,3.0986,3.0986,3.0986,3.0986,3.0986,3.0986,3.0986,3.0986,3.6569,3.6415,3.6102,3.6274,3.6399,3.6569,3.6739,0.0,0.0,0.0,0.0,0.0,0.0,3.7549,0.0,0.0,0.0,0.0,3.8306,3.8379,3.839,3.8306,3.8306,0.0,3.9091,3.8674,3.8676,3.9342,3.8904,3.8662,3.877,3.9329,3.9572,3.9488,4.0145,4.0371,4.0182,3.9721,3.9382,3.92,3.8046,3.7446,3.7323,3.6753,3.6492,3.6492,0.0,0.0,3.6492,3.6492,3.6492,3.6492,3.6492,3.6492,3.6492,3.6492,3.6492,3.6492,3.6492,3.6492,3.6492,3.6492,3.6383,3.6242,3.6211,3.6006,3.5767,3.5619,3.5537,3.5504,3.5504,3.5504,3.5504,3.5504,3.5504,3.5504,3.5504,3.5504,3.5504,3.5504,3.5504,3.5504,3.5504,3.5504,3.5504,3.5504,3.5504,3.5504,3.5504,3.5504,3.5504,3.5504,3.5504,3.5166,3.438,3.4413,3.3596,3.1482,3.1919,3.1955,3.1185,3.1161,3.1123,3.0986,3.0986,3.0986,3.0986,3.0986,3.0986,3.0986,3.0986,3.0986,3.7249,3.7528,3.7642,3.7687,3.7835,3.7994,3.8039,0.0,0.0,0.0,0.0,0.0,0.0,3.8165,3.8165,0.0,0.0,3.8892,0.0,0.0,3.8876,3.8362,0.0,3.8355,3.8424,3.8371,3.8605,3.9269,3.9216,3.9413,3.9977,4.0121,3.994,3.944,4.0005,3.9834,3.8816,3.9277,3.8939,3.78,3.76,3.72,3.6645,3.6538,3.6492,3.6492,0.0,3.6492,3.6492,3.6492,3.6492,3.6492,3.6492,3.6492,3.6492,3.6492,3.6492,3.6492,3.6492,3.6492,3.6492,3.6492,3.6492,3.6414,3.6242,3.6164,3.6116,3.5973,3.5716,3.5504,3.5504,3.5504,3.5504,3.5504,3.5504,3.5504,3.5504,3.5504,3.5504,3.5504,3.5504,3.5504,3.5504,3.5504,3.5504,3.5504,3.5504,3.5504,3.5504,3.5504,3.5504,3.5504,3.5504,3.5166,3.438,3.4905,3.4606,3.2981,3.2981,3.2684,3.1942,3.1942,3.164,3.1024,3.0986,3.0986,3.0986,3.0986,3.0986,3.0986,3.0986,3.0986,3.8104,3.8398,3.8591,3.9032,3.8707,3.8306,0.0,0.0,0.0,0.0,0.0,0.0,0.0,0.0,3.8876,3.9199,0.0,3.9232,3.9269,3.9523,3.9575,0.0,0.0,3.9269,3.9269,3.8984,3.8914,3.9214,3.8934,3.8881,3.9205,3.9564,3.9626,3.9342,3.9967,3.9863,3.8933,3.9249,3.8764,3.7507,3.7138,3.6799,3.6492,3.6492,3.6492,3.6492,0.0,3.6492,3.6492,3.6492,3.6492,3.6492,3.6492,3.6492,3.6492,3.6492,3.6492,3.6492,3.6492,3.6492,3.6492,3.6492,3.6492,3.6492,3.6383,3.6274,3.6179,3.6116,3.5878,3.5621,3.5621,3.5539,3.5504,3.5504,3.5504,3.5504,3.5504,3.5504,3.5504,3.5504,3.5504,3.5504,3.5504,3.5504,3.5504,3.5504,3.5504,3.5504,3.5504,3.5504,3.5504,3.5504,3.5504,3.5359,3.4986,3.5279,3.5001,3.3871,3.3422,3.2861,3.211,3.211,3.1736,3.1024,3.0986,3.0986,3.0986,3.0986,3.0986,3.0986,3.0986,3.0986,3.8897,3.9156,3.9342,3.9952,0.0,0.0,0.0,0.0,0.0,0.0,0.0,0.0,0.0,3.9418,0.0,4.002,3.9722,3.9575,4.002,4.0096,4.0096,4.0096,4.0096,4.0096,4.0096,3.9696,3.9418,3.9418,3.8984,3.8739,3.8739,3.9191,3.9401,3.9276,3.9911,3.987,3.9075,3.9219,3.8726,3.7686,3.7156,3.6906,3.6906,3.6906,3.6906,3.6906,3.6769,3.6723,3.6693,3.6554,3.6492,3.6492,3.6492,3.6492,3.6492,3.6492,3.6492,3.6492,3.6492,3.6492,3.6492,3.6492,3.6492,3.6492,3.6492,3.6383,3.6274,3.6274,3.6053,3.5816,3.572,3.5621,3.5554,3.5504,3.5504,3.5504,3.5504,3.5504,3.5504,3.5504,3.5504,3.5504,3.5504,3.5504,3.5504,3.5504,3.5504,3.5504,3.5504,3.5504,3.5504,3.5504,3.5504,3.5504,3.5504,3.5504,3.5246,3.461,3.4056,3.3388,3.2635,3.247,3.2015,3.1259,3.1086,3.0986,3.0986,3.0986,3.0986,3.0986,3.0986,3.0986,3.9644,3.9918,4.002,4.007,4.002,0.0,3.9969,3.9969,0.0,3.9969,0.0,0.0,0.0,4.0045,4.0045,4.0096,4.0045,4.0045,4.0096,0.0,4.0096,4.0096,4.0096,4.0096,4.0096,4.0045,4.0045,4.0045,3.9995,3.9969,3.9969,4.002,3.9806,3.9218,3.9787,3.9561,3.8387,3.8931,3.8876,3.8246,3.8197,3.8165,3.8165,3.8165,3.8165,3.8137,3.7578,3.7328,3.7298,3.6723,3.6492,3.6492,3.6492,3.6492,3.6492,3.6492,3.6492,3.6492,3.6492,3.6492,3.6492,3.6492,3.6492,3.6492,3.6492,3.6492,3.6492,3.6492,3.632,3.6101,3.5784,3.5688,3.5638,3.5522,3.5504,3.5504,3.5504,3.5504,3.5504,3.5504,3.5504,3.5504,3.5504,3.5504,3.5504,3.5504,3.5504,3.5504,3.5504,3.5504,3.5504,3.5504,3.5504,3.5504,3.5504,3.5504,3.5472,3.5439,3.5359,3.4986,3.4177,3.3478,3.2755,3.2051,3.1371,3.0986,3.0986,3.0986,3.0986,3.0986,3.0986,3.0986,3.9918,4.0062,4.0096,4.0096,4.0096,0.0,0.0,4.0096,4.0096,4.0096,4.0096,0.0,0.0,0.0,4.0096,4.0096,4.0096,4.0096,4.0096,4.0096,4.0096,4.0096,4.0096,4.0096,4.0096,4.0096,4.0096,4.0096,4.0096,4.0096,4.0096,4.0096,3.9995,3.9773,3.9969,3.9876,3.9428,3.9653,3.9653,3.9401,3.864,3.8306,3.8306,3.8306,3.8306,3.8294,3.8067,3.7953,3.7953,3.7693,3.7621,3.7621,3.7621,3.7401,3.7104,3.7474,3.7621,3.7621,3.7621,3.7621,3.7621,3.7621,3.7621,3.7562,3.7178,3.7074,3.6983,3.6616,3.646,3.632,3.607,3.5847,3.5688,3.5653,3.5554,3.5504,3.5504,3.5504,3.5504,3.5504,3.5504,3.5504,3.5504,3.5504,3.5504,3.5504,3.5504,3.5504,3.5504,3.5504,3.5504,3.5504,3.5504,3.5504,3.5504,3.5504,3.5504,3.5504,3.5504,3.5133,3.4346,3.4027,3.3561,3.2791,3.2064,3.1663,3.1663,3.1222,3.0986,3.0986,3.0986,3.0986,4.0087,4.0096,4.0096,4.0096,0.0,0.0,4.0096,4.0096,4.0096,4.0096,4.0096,0.0,4.0096,0.0,0.0,0.0,4.0096,4.0096,4.0096,4.0096,4.0096,4.0096,4.0096,4.0096,4.0096,4.0096,4.0096,4.0096,4.0096,4.0096,4.0096,4.0096,4.0096,4.0096,4.0096,4.0096,4.0096,4.0096,4.0096,4.0096,3.9269,3.8876,3.8876,3.8876,3.8876,3.8876,3.8684,3.8574,3.8574,3.8379,3.8306,3.8306,3.8306,3.8039,3.7738,3.8153,3.8306,3.8306,3.8306,3.8306,3.8306,3.8306,3.8306,3.8222,3.7825,3.7549,3.7328,3.6892,3.6631,3.646,3.6352,3.6085,3.5847,3.572,3.5621,3.5554,3.5504,3.5504,3.5504,3.5504,3.5504,3.5504,3.5504,3.5504,3.5504,3.5504,3.5504,3.5504,3.5504,3.5504,3.5504,3.5504,3.5504,3.5504,3.5504,3.5504,3.5504,3.5504,3.5504,3.5246,3.471,3.4428,3.4075,3.3561,3.2599,3.211,3.211,3.1371,3.0986,3.0986,3.0986,3.0986,4.0096,4.0096,4.0096,4.0096,0.0,0.0,4.0096,4.0096,4.0096,4.0096,4.0096,4.0096,4.0096,4.0096,0.0,4.0096,4.0096,4.0096,4.0096,4.0096,4.0096,4.0096,4.0096,4.0096,4.0096,4.0096,4.0096,4.0096,4.0096,4.0096,4.0096,4.0096,4.0096,4.0096,4.0096,4.0096,4.0096,4.0096,4.0096,4.0096,4.0096,4.0096,4.0096,4.0096,4.0096,4.007,3.947,3.9206,3.9162,3.8574,3.8306,3.8322,3.8306,3.8306,3.8322,3.8322,3.8306,3.8306,3.8306,3.8306,3.8306,3.8306,3.8306,3.8322,3.8306,3.7883,3.7417,3.7417,3.6983,3.6523,3.6523,3.6352,3.6101,3.5784,3.5688,3.5671,3.5522,3.5504,3.5504,3.5504,3.5504,3.5504,3.5504,3.5504,3.5504,3.5504,3.5504,3.5504,3.5504,3.5504,3.5504,3.5504,3.5504,3.5504,3.5504,3.5504,3.5504,3.5504,3.5504,3.5504,3.5504,3.4725,3.4312,3.4312,3.2883,3.211,3.211,3.1371,3.1024,3.1024,3.1024,3.1024,4.0096,4.0096,0.0,4.0096,0.0,0.0,0.0,4.0096,0.0,0.0,4.0096,4.0096,4.0096,0.0,0.0,4.0096,4.0188,4.0213,4.0096,4.0188,4.0213,4.0096,4.0096,4.0096,4.0096,4.0096,4.0096,4.0096,4.0096,4.0096,4.0096,4.0096,4.0096,4.0096,4.0096,4.0096,4.0096,4.0096,4.0096,4.0096,4.0096,4.0096,4.0096,4.0096,4.0096,4.007,3.9901,3.9825,3.9825,3.9627,3.9322,3.8974,3.9401,3.9295,3.8974,3.9401,3.9575,3.9575,3.9575,3.9575,3.9575,3.9575,3.9575,3.9497,3.9055,3.881,3.859,3.8153,3.7592,3.7118,3.7118,3.6769,3.6352,3.6116,3.5879,3.5688,3.5638,3.5587,3.5504,3.5504,3.5504,3.5504,3.5504,3.5504,3.5504,3.5504,3.5504,3.5504,3.5504,3.5504,3.5504,3.5504,3.5504,3.5504,3.5504,3.5504,3.5504,3.5504,3.5504,3.5504,3.5504,3.5279,3.5133,3.5133,3.4158,3.365,3.365,3.2897,3.2268,3.1773,3.1773,3.1505,4.0096,4.0096,0.0,4.0096,4.0096,4.0096,4.0096,0.0,0.0,0.0,4.0096,4.0113,4.0163,4.0188,0.0,4.0246,4.0337,4.0362,4.0271,4.0337,4.0337,4.0188,4.0188,4.0163,4.0113,4.0096,4.0096,4.0096,4.0096,4.0096,4.0096,4.0096,4.0096,4.0096,4.0096,4.0096,4.0096,4.0096,4.0096,4.0096,4.0096,4.0096,4.0096,4.0096,4.0096,4.0096,4.0096,4.0096,4.0096,4.0096,3.9893,3.9575,3.9969,3.9893,3.9618,3.9969,4.0096,4.0096,4.0096,4.0096,4.0096,4.0096,4.0096,4.002,3.967,3.9391,3.9109,3.8767,3.821,3.7709,3.746,3.7118,3.6739,3.629,3.6053,3.5879,3.5816,3.5686,3.5572,3.5572,3.5522,3.5504,3.5504,3.5504,3.5504,3.5504,3.5504,3.5504,3.5504,3.5504,3.5504,3.5504,3.5504,3.5504,3.5504,3.5504,3.5504,3.5504,3.5504,3.5504,3.5504,3.5504,3.5504,3.5504,3.471,3.4312,3.4312,3.3561,3.2967,3.2541,3.2541,3.2177,4.0096,4.0096,4.0096,4.0096,4.0113,0.0,4.0138,4.0121,4.0121,4.0138,0.0,4.0163,4.0288,4.033,4.0362,4.0485,4.051,4.051,4.051,4.051,4.0461,4.0337,4.0305,4.0238,4.0121,4.0113,4.0096,4.0096,4.0096,4.0096,4.0096,4.0096,4.0096,4.0096,4.0096,4.0096,4.0096,4.0096,4.0096,4.0096,4.0096,4.0096,4.0096,4.0096,4.0096,4.0096,4.0096,4.0096,4.0096,4.0096,4.0096,4.0096,4.0096,4.0096,4.0096,4.0096,4.0096,4.0096,4.0096,4.0096,4.0096,4.0096,4.0096,4.0096,4.0096,3.9722,3.9286,3.9286,3.8849,3.8266,3.7725,3.746,3.7222,3.6554,3.629,3.6179,3.6022,3.5863,3.572,3.572,3.5636,3.5537,3.5537,3.5537,3.5504,3.5504,3.5504,3.5504,3.5504,3.5504,3.5504,3.5504,3.5504,3.5504,3.5504,3.5504,3.5504,3.5504,3.5504,3.5504,3.5504,3.5504,3.5504,3.5504,3.4791,3.4413,3.4413,3.3734,3.3367,3.3283,3.3269,3.3017,4.0096,4.0096,0.0,0.0,4.0188,4.0263,4.0263,4.0337,4.037,4.0263,4.0263,4.0288,4.0436,4.0461,4.0461,4.051,4.0583,4.0624,4.051,4.0583,4.0624,4.0485,4.0362,4.0305,4.0263,4.0163,4.0096,4.0096,4.0096,4.0096,4.0096,4.0096,4.0096,4.0096,4.0096,4.0096,4.0096,4.0096,4.0096,4.0096,4.0096,4.0096,4.0096,4.0096,4.0096,4.0096,4.0096,4.0096,4.0096,4.0096,4.0096,4.0096,4.0096,4.0096,4.0096,4.0096,4.0096,4.0096,4.0096,4.0096,4.0096,4.0096,4.0096,4.0096,4.0096,4.002,3.9918,3.9918,3.947,3.8974,3.8838,3.8112,3.749,3.778,3.7011,3.6196,3.6148,3.6053,3.5941,3.5941,3.591,3.5846,3.5671,3.5671,3.5621,3.5537,3.5504,3.5504,3.5504,3.5504,3.5504,3.5504,3.5504,3.5504,3.5504,3.5504,3.5504,3.5504,3.5504,3.5504,3.5504,3.5504,3.5504,3.5504,3.5326,3.5246,3.5246,3.5067,3.4673,3.4075,3.3921,3.3348,4.0096,0.0,0.0,4.0188,0.0,4.0387,4.0387,4.0461,4.051,4.0502,4.0436,4.0436,4.0558,4.06,4.0607,4.068,4.0769,4.0769,4.0704,4.0752,4.0745,4.0607,4.051,4.0453,4.0305,4.0238,4.0163,4.0096,4.0096,4.0096,4.0096,4.0096,4.0096,4.0096,4.0096,4.0096,4.0096,4.0096,4.0096,4.0096,4.0096,4.0096,4.0096,4.0096,4.0096,4.0096,4.0096,4.0096,4.0096,4.0096,4.0096,4.0096,4.0096,4.0096,4.0096,4.0096,4.0096,4.0096,4.0096,4.0096,4.0096,4.0096,4.0096,4.0096,4.0096,4.0096,4.0096,4.0096,3.9876,3.9549,3.9286,3.8728,3.8282,3.8294,3.728,3.643,3.6723,3.6414,3.61,3.61,3.6022,3.5941,3.572,3.5638,3.5572,3.5504,3.5504,3.5504,3.5504,3.5504,3.5504,3.5504,3.5504,3.5504,3.5504,3.5504,3.5504,3.5504,3.5504,3.5504,3.5504,3.5504,3.5504,3.5504,3.5504,3.5504,3.5504,3.5504,3.5279,3.4872,3.478,3.4441,4.0096,0.0,4.0163,4.0288,4.0436,0.0,4.0534,4.0558,4.0607,4.0721,4.0648,4.0583,4.0721,4.0721,4.0769,4.0888,4.0912,4.0912,4.0912,4.0912,4.0864,4.0745,4.0721,4.0624,4.0404,4.033,4.0238,4.0138,4.0096,4.0096,4.0096,4.0096,4.0096,4.0096,4.0096,4.0096,4.0096,4.0096,4.0096,4.0096,4.0096,4.0096,4.0096,4.0096,4.0096,4.0096,4.0096,4.0096,4.0096,4.0096,4.0096,4.0096,4.0096,4.0096,4.0096,4.0096,4.0096,4.0096,4.0096,4.0096,4.0096,4.0096,4.0096,4.0096,4.0096,4.0096,4.0096,4.0096,4.0096,3.9995,3.947,3.9286,3.9109,3.8695,3.7693,3.6922,3.7328,3.6784,3.6242,3.6242,3.6116,3.5958,3.5784,3.5621,3.5537,3.5504,3.5504,3.5504,3.5504,3.5504,3.5504,3.5504,3.5504,3.5504,3.5504,3.5537,3.5522,3.5504,3.5537,3.5522,3.5504,3.5504,3.5504,3.5504,3.5504,3.5504,3.5504,3.5504,3.5504,3.5504,3.5504,3.5504,4.0096,0.0,4.0305,0.0,4.0558,4.0673,0.0,0.0,4.0847,0.0,4.0769,4.0721,4.0864,4.0871,4.0888,4.0912,4.0912,4.0912,4.0912,4.0912,4.0894,4.0888,4.0769,4.0697,4.0648,4.0453,4.0288,4.0263,4.0163,4.0096,4.0096,4.0096,4.0096,4.0096,4.0096,4.0096,4.0096,4.0096,4.0096,4.0096,4.0096,4.0096,4.0096,4.0096,4.0096,4.0096,4.0096,4.0096,4.0096,4.0096,4.0096,4.0096,4.0096,4.0096,4.0096,4.0096,4.0096,4.0096,4.0096,4.0096,4.0096,4.0096,4.0096,4.0096,4.0096,4.0096,4.0096,4.0096,4.0096,4.007,3.9995,3.9575,3.9312,3.9747,3.893,3.7953,3.749,3.6892,3.646,3.646,3.6305,3.6148,3.5973,3.5799,3.5638,3.5537,3.5504,3.5504,3.5504,3.5504,3.5504,3.5504,3.5504,3.5504,3.5504,3.5604,3.5621,3.5504,3.5621,3.5621,3.5504,3.5504,3.5504,3.5504,3.5504,3.5504,3.5504,3.5504,3.5504,3.5504,3.5504,3.5504,4.0096,4.0246,4.0436,0.0,4.0813,4.1146,4.1146,0.0,4.1556,4.1283,4.1192,4.1094,4.0918,4.0912,4.0912,4.0912,4.0912,4.0912,4.0912,4.0912,4.0912,4.0912,4.0864,4.0793,4.0697,4.0527,4.0387,4.0305,4.0188,4.0096,4.0096,4.0096,4.0096,4.0096,4.0096,4.0096,4.0096,4.0096,4.0096,4.0096,4.0096,4.0096,4.0096,4.0096,4.0096,4.0096,4.0096,4.0096,4.0096,4.0096,4.0096,4.0096,4.0096,4.0096,4.0096,4.0096,4.0096,4.0096,4.0096,4.0096,4.0096,4.0096,4.0096,4.0096,4.0096,4.0096,4.0096,4.0096,4.0096,4.0096,4.0096,3.9918,3.9696,3.9618,3.893,3.8124,3.7519,3.7178,3.6892,3.6585,3.6352,3.6148,3.6037,3.5831,3.5638,3.5537,3.5504,3.5504,3.5504,3.5504,3.5504,3.5504,3.5504,3.5504,3.5504,3.5621,3.5655,3.5621,3.5671,3.5655,3.5621,3.5554,3.5504,3.5504,3.5504,3.5504,3.5504,3.5504,3.5504,3.5504,3.5504,3.5504,0.0,0.0,4.0534,4.0583,4.1053,4.1494,0.0,0.0,4.2095,0.0,4.167,4.16,4.13,4.1059,4.0912,4.0912,4.0912,4.0912,4.0912,4.0912,4.0912,4.0912,4.0912,4.0864,4.0769,4.0648,4.051,4.0404,4.0238,4.0163,4.0163,4.0138,4.0096,4.0096,4.0096,4.0096,4.0096,4.0096,4.0096,4.0096,4.0096,4.0096,4.0096,4.0096,4.0096,4.0096,4.0096,4.0096,4.0096,4.0096,4.0096,4.0096,4.0096,4.0096,4.0096,4.0096,4.0096,4.0096,4.0096,4.0096,4.0096,4.0096,4.0096,4.0096,4.0096,4.0096,4.0096,4.0096,4.0096,4.0096,4.0096,4.0096,3.9995,3.954,3.9065,3.8463,3.7401,3.7178,3.7043,3.6585,3.6383,3.6211,3.6068,3.5926,3.5799,3.5651,3.5587,3.5587,3.5619,3.5587,3.5587,3.5619,3.5619,3.5619,3.5554,3.5703,3.5784,3.5671,3.5752,3.5784,3.5638,3.5636,3.5602,3.5504,3.5522,3.5522,3.5504,3.5504,3.5504,3.5504,3.5504,3.5537,0.0,4.0485,0.0,4.0817,4.1192,0.0,0.0,0.0,4.2198,4.2157,4.2157,4.2157,4.2136,4.1463,4.0912,4.0912,4.0912,4.0912,4.0912,4.0912,4.0912,4.0912,4.0912,4.0912,4.0888,4.0769,4.0697,4.0673,4.0453,4.0305,4.0305,4.0163,4.0096,4.0096,4.0096,4.0096,4.0096,4.0096,4.0096,4.0096,4.0096,4.0096,4.0096,4.0096,4.0096,4.0096,4.0096,4.0096,4.0096,4.0096,4.0096,4.0096,4.0096,4.0096,4.0096,4.0096,4.0096,4.0096,4.0096,4.0096,4.0096,4.0096,4.0096,4.0096,4.0096,4.0096,4.0096,4.0096,4.0096,4.0096,4.0096,4.0096,4.0096,4.0045,4.002,3.9375,3.7058,3.6554,3.6554,3.6523,3.6492,3.6414,3.6211,3.6164,3.6148,3.6005,3.5799,3.5767,3.5941,3.5799,3.5767,3.5941,3.5973,3.591,3.572,3.5975,3.599,3.5537,3.5941,3.5973,3.5537,3.5797,3.5829,3.5504,3.5621,3.5621,3.5504,3.5504,3.5504,3.5504,3.5504,3.5572,0.0,0.0,0.0,4.1036,4.1152,4.139,4.2213,4.2315,4.2341,4.2603,4.2653,4.2575,4.2257,4.1927,4.1731,4.1731,4.1731,4.1622,4.1328,4.1283,4.1186,4.0918,4.0912,4.0912,4.0912,4.0793,4.0697,4.0697,4.0453,4.0305,4.0305,4.0163,4.0096,4.0096,4.0096,4.0096,4.0096,4.0096,4.0096,4.0096,4.0096,4.0096,4.0096,4.0096,4.0096,4.0096,4.0096,4.0096,4.0096,4.0096,4.0096,4.0096,4.0096,4.0096,4.0096,4.0096,4.0096,4.0096,4.0096,4.0096,4.0096,4.0096,4.0096,4.0096,4.0096,4.0096,4.0096,4.0096,4.0096,4.0096,4.0096,4.0096,3.9995,3.9618,3.9216,3.8585,3.7342,3.7074,3.6952,3.6585,3.6492,3.6445,3.6242,3.6196,3.6148,3.6037,3.5941,3.5926,3.6005,3.5941,3.5926,3.6005,3.6005,3.5973,3.5894,3.6085,3.6085,3.5829,3.6053,3.6085,3.5829,3.5957,3.5878,3.5621,3.5799,3.575,3.5504,3.5504,3.5504,3.5504,3.5604,3.5686,4.0263,0.0,0.0,0.0,4.1049,4.1223,4.2073,0.0,4.2054,4.2595,4.2705,4.2704,4.2639,4.2655,4.2539,4.2239,4.2198,4.2095,4.1778,4.1735,4.1644,4.1373,4.1346,4.1346,4.1346,4.1117,4.1024,4.1186,4.0734,0.0,4.0573,4.032,4.0163,4.0096,4.0096,4.0096,4.0096,4.0096,4.0096,4.0096,4.0096,4.0096,4.0096,4.0096,4.0096,4.0096,4.0096,4.0096,4.0096,4.0096,4.0096,4.0096,4.0096,4.0096,4.0096,4.0096,4.0096,4.0096,4.0096,4.0096,4.0096,4.0096,4.0096,4.0096,4.0096,4.0096,4.0096,4.0096,4.0096,4.0096,4.0096,3.9944,3.9696,3.9286,3.8739,3.8124,3.7519,3.7417,3.7208,3.6616,3.6492,3.646,3.6305,3.6305,3.6274,3.6163,3.61,3.6085,3.6163,3.61,3.6085,3.6163,3.6163,3.6132,3.6053,3.6211,3.6211,3.6005,3.6195,3.6211,3.6005,3.61,3.6037,3.572,3.5926,3.591,3.5587,3.5512,3.5512,3.5572,3.5735,3.5831,0.0,0.0,0.0,0.0,0.0,0.0,4.0967,0.0,4.1279,4.2103,4.2286,4.2543,4.3331,4.3478,4.3232,4.238,4.2239,4.2218,4.2218,4.2218,4.2216,4.2198,4.2198,4.2198,4.2198,4.1778,4.1692,4.2157,4.126,4.083,4.1076,4.058,4.0238,4.0138,4.0113,4.0113,4.0096,4.0096,4.0096,4.0113,4.0096,4.0096,4.0113,4.0096,4.0096,4.0096,4.0096,4.0096,4.0096,4.0096,4.0096,4.0096,4.0096,4.0096,4.0096,4.0096,4.0096,4.0096,4.0096,4.0096,4.0096,4.0096,4.0096,4.0096,4.0096,4.0096,4.0096,4.0096,4.0096,4.0096,4.0096,3.9644,3.9206,3.9206,3.8739,3.8124,3.7519,3.7417,3.7208,3.6616,3.6492,3.6492,3.6492,3.6492,3.6492,3.6492,3.6352,3.6274,3.646,3.6352,3.6274,3.6492,3.6492,3.6414,3.6242,3.6383,3.6367,3.6037,3.6336,3.6367,3.6037,3.632,3.6258,3.572,3.6038,3.6038,3.572,3.5586,3.5586,3.572,3.5894,3.6085,4.0127,0.0,0.0,0.0,0.0,0.0,4.0381,4.0202,4.0099,4.1211,4.1901,4.2378,4.2598,4.3112,4.3427,4.3178,4.3142,4.3032,4.275,4.2711,4.2577,4.2239,4.2198,4.2198,4.2198,4.1778,4.1692,0.0,4.126,4.0877,4.1213,4.0628,4.033,4.0387,4.0288,4.0288,4.0387,4.0395,4.0337,4.0238,4.0337,4.0337,4.0238,4.0362,4.0395,4.0395,4.0395,4.0395,4.037,4.0171,4.0096,4.0096,4.0096,4.0096,4.0096,4.0096,4.0096,4.0096,4.0096,4.0096,4.0096,4.0096,4.0096,4.0096,4.0096,4.0096,4.0096,4.0096,4.0096,4.0096,4.0096,3.9644,3.9206,3.9206,3.8739,3.8124,3.7519,3.7417,3.7208,3.6616,3.6492,3.6492,3.6492,3.6492,3.6492,3.6492,3.646,3.6445,3.6492,3.646,3.6445,3.6492,3.6492,3.6492,3.6414,3.646,3.6383,3.6148,3.6352,3.6383,3.6148,3.6352,3.6352,3.607,3.632,3.6258,3.5926,3.5881,3.5881,3.5926,3.6085,3.6242,0.0,0.0,0.0,0.0,0.0,0.0,3.9698,3.9489,3.9329,4.0384,4.0965,4.1405,4.1754,4.2176,4.2598,4.2928,4.3002,4.3025,4.3142,4.3142,4.305,4.277,4.2751,4.2751,4.2751,4.234,4.2216,4.2458,4.1578,4.1047,4.1036,4.0638,4.0412,4.051,4.0412,4.0412,4.051,4.051,4.0461,4.0387,4.0461,4.0461,4.0387,4.0461,4.051,4.051,4.051,4.051,4.0485,4.0337,4.0288,4.0288,4.0288,4.0238,4.0188,4.0263,4.0213,4.0113,4.0163,4.0163,4.0096,4.0096,4.0096,4.0096,4.0096,4.0096,4.0045,3.9799,3.9722,3.967,3.9401,3.9109,3.8767,3.8507,3.7982,3.7445,3.7088,3.7013,3.6922,3.6585,3.6492,3.6492,3.6492,3.6492,3.6492,3.6492,3.6492,3.6492,3.6492,3.6492,3.6492,3.6492,3.6492,3.6492,3.6492,3.6492,3.646,3.6352,3.6445,3.646,3.6352,3.6445,3.6414,3.6196,3.6383,3.6398,3.6195,3.6195,3.6195,3.6195,3.6289,3.6383,0.0,0.0,0.0,0.0,3.8856,0.0,3.8976,3.8844,3.8844,3.9606,3.9827,4.012,4.082,4.104,4.1334,4.2047,4.2176,4.2488,4.3369,4.3515,4.3515,4.3515,4.3515,4.3515,4.3515,4.3142,4.292,4.2957,4.2095,4.1333,4.0823,4.0607,4.0558,4.0614,4.0541,4.0534,4.0541,4.0541,4.0534,4.0534,4.0534,4.0534,4.0534,4.0534,4.0541,4.0541,4.0541,4.0541,4.0541,4.0541,4.0534,4.051,4.051,4.0436,4.0355,4.0461,4.0345,4.0163,4.0263,4.0238,4.0138,4.0138,4.0096,4.0096,4.0096,4.0096,3.9969,3.9365,3.9206,3.9055,3.8463,3.8266,3.8067,3.7519,3.6922,3.6492,3.6492,3.6492,3.6492,3.6492,3.6492,3.6492,3.6492,3.6492,3.6492,3.6492,3.6492,3.6492,3.6492,3.6492,3.6492,3.6492,3.6492,3.6492,3.6492,3.6492,3.6492,3.6492,3.6492,3.6492,3.6492,3.6492,3.6414,3.6242,3.6414,3.6492,3.6492,3.6492,3.6492,3.6492,3.6492,3.6492,0.0,0.0,0.0,0.0,3.8022,0.0,3.8131,3.8228,3.8356,3.8829,3.9441,3.9937,4.0102,4.0671,4.115,4.1297,4.1334,4.1846,4.3313,4.3515,4.3515,4.3515,4.3515,4.3515,4.3515,4.3142,4.3032,4.3357,4.2559,4.1842,4.1356,4.0901,4.0853,4.1288,4.0901,4.0704,4.0823,4.0823,4.0752,4.0673,4.0752,4.0769,4.0673,4.0752,4.0823,4.0823,4.0823,4.0823,4.0823,4.0823,4.0704,4.051,4.051,4.0468,4.0461,4.0485,4.0485,4.0436,4.0461,4.0362,4.0263,4.0263,4.0188,4.0096,4.0096,4.0096,3.9969,3.9365,3.9206,3.9055,3.8463,3.7924,3.7549,3.7447,3.6922,3.6492,3.6492,3.6492,3.6492,3.6492,3.6492,3.6492,3.6492,3.6492,3.6492,3.6492,3.6492,3.6492,3.6492,3.6492,3.6492,3.6492,3.6492,3.6492,3.6492,3.6492,3.6492,3.6492,3.6492,3.6492,3.6492,3.6492,3.6492,3.6445,3.6492,3.6492,3.6492,3.6492,3.6492,3.6492,3.6492,3.6492,0.0,0.0,0.0,3.8019,0.0,0.0,0.0,3.8252,3.8366,3.8559,3.897,3.9294,3.9294,3.9643,4.0029,4.0451,4.0506,4.0928,4.2139,4.2304,4.2304,4.2304,4.2653,4.2892,4.2892,4.3084,4.3214,4.3214,4.2577,4.2095,4.1864,4.1356,4.1214,4.1494,4.1024,4.084,4.0912,4.0912,4.0864,4.0793,4.0864,4.0847,4.0793,4.0864,4.0912,4.0912,4.0912,4.0912,4.0912,4.0912,4.0823,4.0704,4.0704,4.0655,4.0607,4.068,4.0607,4.051,4.0583,4.051,4.0387,4.0387,4.0362,4.0288,4.0213,3.9731,3.9065,3.8463,3.8311,3.8169,3.7562,3.7401,3.7328,3.7013,3.6723,3.6492,3.6492,3.6492,3.6492,3.6492,3.6492,3.6492,3.6492,3.6492,3.6492,3.6492,3.6492,3.6492,3.6492,3.6492,3.6492,3.6492,3.6492,3.6492,3.6492,3.6492,3.6492,3.6492,3.6492,3.6492,3.6492,3.6492,3.6492,3.6492,3.6492,3.6492,3.6492,3.6492,3.6492,3.6492,3.6492,3.6492,0.0,0.0,0.0,0.0,0.0,3.7915,0.0,0.0,0.0,3.8478,3.8593,3.8658,0.0,0.0,0.0,0.0,0.0,0.0,0.0,4.0636,0.0,4.1058,4.168,4.2066,4.2066,4.28,4.3101,4.2684,4.2368,4.2257,4.2338,4.1799,4.1539,4.1626,4.1214,4.0989,4.0912,4.0912,4.0912,4.0912,4.0912,4.0912,4.0912,4.0912,4.0912,4.0912,4.0912,4.0912,4.0912,4.0912,4.0912,4.0912,4.0912,4.084,4.0745,4.0864,4.0752,4.0583,4.0697,4.0631,4.0534,4.0534,4.0419,4.0271,4.0171,3.9269,3.8181,3.7578,3.7417,3.7268,3.6662,3.6861,3.7088,3.6616,3.6492,3.6492,3.6492,3.6492,3.6492,3.6492,3.6492,3.6492,3.6492,3.6492,3.6492,3.6492,3.6492,3.6492,3.6492,3.6492,3.6492,3.6492,3.6492,3.6492,3.6492,3.6492,3.6492,3.6492,3.6492,3.6492,3.6492,3.6492,3.6492,3.6492,3.6492,3.6492,3.6492,3.6492,3.6492,3.6492,3.6492,3.6492,0.0,0.0,0.0,0.0,3.8224,0.0,3.8289,0.0,3.8415,3.8415,0.0,3.8525,0.0,0.0,0.0,0.0,0.0,0.0,3.8964,3.8982,3.9515,4.093,4.1168,4.1242,4.1242,4.1974,4.2243,4.1778,4.2026,4.2378,4.2806,4.1969,4.1692,4.2095,4.167,4.126,4.0894,4.0912,4.0912,4.0912,4.0912,4.0912,4.0912,4.0912,4.0912,4.0912,4.0912,4.0912,4.0912,4.0912,4.0912,4.0912,4.0912,4.0888,4.0888,4.0894,4.0871,4.0864,4.0871,4.0793,4.0673,4.0673,4.0154,3.9516,3.9516,3.8941,3.8181,3.7578,3.7417,3.7268,3.6662,3.6554,3.6569,3.6523,3.6492,3.6492,3.6492,3.6492,3.6492,3.6492,3.6492,3.6492,3.6492,3.6492,3.6492,3.6492,3.6492,3.6492,3.6492,3.6492,3.6492,3.6492,3.6492,3.6492,3.6492,3.6492,3.6492,3.6492,3.6492,3.6492,3.6492,3.6492,3.6492,3.6492,3.6492,3.6492,3.6492,3.6492,3.6492,3.6492,3.6492,3.6492,0.0,0.0,0.0,0.0,0.0,0.0,3.8241,0.0,3.8354,0.0,0.0,0.0,0.0,0.0,0.0,0.0,3.8707,0.0,0.0,0.0,3.8946,0.0,0.0,0.0,4.104,4.1407,4.1724,4.1973,4.2159,4.2449,4.2883,4.2277,4.1864,4.1799,4.1373,4.1065,4.0912,4.0912,4.0912,4.0912,4.0912,4.0912,4.0912,4.0912,4.0912,4.0912,4.0912,4.0912,4.0912,4.0912,4.0912,4.0912,4.0912,4.0912,4.0912,4.0912,4.0912,4.0912,4.0912,4.0847,4.0769,4.0402,3.9995,3.9489,3.8707,3.8206,3.7735,3.7058,3.6861,3.6816,3.6585,3.6492,3.6492,3.6492,3.6492,3.6492,3.6492,3.6492,3.6492,3.6492,3.6492,3.6492,3.6492,3.6492,3.6492,3.6492,3.6492,3.6492,3.6492,3.6492,3.6492,3.6492,3.6492,3.6492,3.6492,3.6492,3.6492,3.6492,3.6492,3.6492,3.6492,3.6492,3.6492,3.6492,3.6492,3.6492,3.6492,3.6492,3.6492,3.6492,3.6492,3.6492,3.7578,0.0,0.0,0.0,0.0,0.0,0.0,0.0,0.0,0.0,0.0,0.0,0.0,0.0,0.0,0.0,0.0,3.8707,0.0,3.8707,0.0,0.0,0.0,0.0,0.0,4.0636,4.102,4.1607,4.1928,4.223,4.2539,4.2332,4.199,4.1516,4.1232,4.0995,4.0912,4.0912,4.0912,4.0912,4.0912,4.0912,4.0912,4.0912,4.0912,4.0912,4.0912,4.0912,4.0912,4.0912,4.0912,4.0912,4.0912,4.0912,4.0912,4.0912,4.0912,4.0912,4.0912,4.0912,4.0799,4.0195,3.98,3.9342,3.8222,3.7634,3.7237,3.6708,3.6523,3.6492,3.6492,3.6492,3.6492,3.6492,3.6492,3.6492,3.6492,3.6492,3.6492,3.6492,3.6492,3.6492,3.6492,3.6492,3.6492,3.6492,3.6492,3.6492,3.6492,3.6492,3.6492,3.6492,3.6492,3.6492,3.6492,3.6492,3.6492,3.6492,3.6492,3.6492,3.6492,3.6492,3.6492,3.6492,3.6492,3.6492,3.6492,3.6492,3.6492,3.6492,3.6492,3.6492,0.0,0.0,0.0,3.8192,0.0,0.0,0.0,0.0,3.8209,0.0,0.0,0.0,0.0,0.0,0.0,0.0,0.0,0.0,0.0,0.0,0.0,0.0,0.0,0.0,0.0,3.9478,3.9937,3.9974,4.0994,4.1632,4.1632,4.2008,4.199,4.1516,4.149,4.1305,4.0894,4.0912,4.0912,4.0912,4.0912,4.0912,4.0912,4.0912,4.0912,4.0912,4.0912,4.0912,4.0912,4.0912,4.0912,4.0912,4.0912,4.0912,4.0912,4.0912,4.0912,4.0912,4.0912,4.0912,4.0799,4.0195,3.9508,3.8799,3.8254,3.7431,3.6708,3.6693,3.66,3.6492,3.6492,3.6492,3.6492,3.6492,3.6492,3.6492,3.6492,3.6492,3.6492,3.6492,3.6492,3.6492,3.6492,3.6492,3.6492,3.6492,3.6492,3.6492,3.6492,3.6492,3.6492,3.6492,3.6492,3.6492,3.6492,3.6492,3.6492,3.6492,3.6492,3.6492,3.6492,3.6492,3.6492,3.6492,3.6492,3.6492,3.6492,3.6492,3.6492,3.6492,3.6492,3.6492,0.0,0.0,3.8209,3.8209,0.0,0.0,0.0,0.0,0.0,0.0,0.0,0.0,0.0,0.0,0.0,0.0,0.0,0.0,0.0,0.0,0.0,0.0,0.0,0.0,0.0,0.0,3.9551,4.0616,4.1052,4.1469,4.1972,4.2116,4.1842,4.1134,4.1094,4.1041,4.0912,4.0912,4.0912,4.0912,4.0912,4.0912,4.0912,4.0912,4.0912,4.0912,4.0912,4.0912,4.0912,4.0912,4.0912,4.0912,4.0912,4.0912,4.0912,4.0912,4.0912,4.0912,4.0912,4.0912,4.0799,4.0195,3.9834,3.9508,3.8816,3.8153,3.7608,3.7474,3.7042,3.6631,3.6631,3.6585,3.6492,3.6492,3.6492,3.6492,3.6492,3.6492,3.6492,3.6492,3.6492,3.6492,3.6492,3.6492,3.6492,3.6492,3.6492,3.6492,3.6492,3.6492,3.6492,3.6492,3.6492,3.6492,3.6492,3.6492,3.6492,3.6492,3.6492,3.6492,3.6492,3.6492,3.6492,3.6492,3.6492,3.6492,3.6492,3.6492,3.6492,3.6492,3.6492,3.6492,3.8209,3.8209,0.0,3.8209,3.8209,0.0,3.8209,0.0,3.8209,0.0,0.0,0.0,0.0,0.0,0.0,0.0,0.0,0.0,0.0,3.8707,0.0,0.0,0.0,0.0,0.0,3.8964,3.9551,4.0598,4.1203,4.1594,4.1774,4.2055,4.1796,4.0918,4.0912,4.0912,4.0912,4.0912,4.0912,4.0912,4.0912,4.0912,4.0912,4.0912,4.0912,4.0912,4.0912,4.0912,4.0912,4.0912,4.0912,4.0912,4.0912,4.0912,4.0912,4.0912,4.0912,4.0912,4.0912,4.0912,4.0799,4.0195,4.0003,3.9851,3.8951,3.839,3.8042,3.7663,3.7193,3.68,3.6723,3.6631,3.6554,3.6523,3.6492,3.6492,3.6492,3.6492,3.6492,3.6492,3.6492,3.6492,3.6492,3.6492,3.6492,3.6492,3.6492,3.6492,3.6492,3.6492,3.6492,3.6492,3.6492,3.6492,3.6492,3.6492,3.6492,3.6492,3.6492,3.6492,3.6492,3.6492,3.6722,3.72,3.6738,3.6722,3.7215,3.6722,3.6492,3.6492,3.6492,3.6492]}]]